<?xml version="1.0" encoding="UTF-8" standalone="no" ?>
<gpx xmlns="http://www.topografix.com/GPX/1/1" xmlns:xsi="http://www.w3.org/2001/XMLSchema-instance" xsi:schemaLocation="http://www.topografix.com/GPX/1/1 http://www.topografix.com/GPX/1/1/gpx.xsd" version="1.1" creator="VisuGPX - https://www.visugpx.com">
  <metadata>
    <name>Les Vans Serre de Barre (via Nojaret &amp; Malbosc)</name>
    <desc><![CDATA[Belle balade, attention portage et poussette aussi bien sur certaines montées que sur certaines descentes. Bonne condition physique obligatoire, prévoir de l\'eau. Certains singles sont rendus in-enroulables à causes des sangliers qui les labourent. ]]></desc>
  </metadata>
  <trk>
    <name><![CDATA[(sans titre)]]></name>
    <trkseg>
      <trkpt lat="44.40652" lon="4.12946">
        <ele>189</ele>
        <time>2014-05-29T07:16:01Z</time>
      </trkpt>
      <trkpt lat="44.40656" lon="4.12953">
        <ele>189</ele>
        <time>2014-05-29T07:18:27Z</time>
      </trkpt>
      <trkpt lat="44.40672" lon="4.12972">
        <ele>192</ele>
        <time>2014-05-29T07:31:32Z</time>
      </trkpt>
      <trkpt lat="44.40658" lon="4.12993">
        <ele>190</ele>
        <time>2014-05-29T07:31:48Z</time>
      </trkpt>
      <trkpt lat="44.40642" lon="4.13021">
        <ele>186</ele>
        <time>2014-05-29T07:32:02Z</time>
      </trkpt>
      <trkpt lat="44.40619" lon="4.13049">
        <ele>184</ele>
        <time>2014-05-29T07:32:14Z</time>
      </trkpt>
      <trkpt lat="44.40605" lon="4.13078">
        <ele>183</ele>
        <time>2014-05-29T07:32:22Z</time>
      </trkpt>
      <trkpt lat="44.40585" lon="4.13101">
        <ele>180</ele>
        <time>2014-05-29T07:32:30Z</time>
      </trkpt>
      <trkpt lat="44.40559" lon="4.13115">
        <ele>179</ele>
        <time>2014-05-29T07:32:39Z</time>
      </trkpt>
      <trkpt lat="44.40551" lon="4.13134">
        <ele>178</ele>
        <time>2014-05-29T07:32:52Z</time>
      </trkpt>
      <trkpt lat="44.40533" lon="4.13119">
        <ele>179</ele>
        <time>2014-05-29T07:33:03Z</time>
      </trkpt>
      <trkpt lat="44.40512" lon="4.13111">
        <ele>179</ele>
        <time>2014-05-29T07:33:50Z</time>
      </trkpt>
      <trkpt lat="44.40483" lon="4.13086">
        <ele>182</ele>
        <time>2014-05-29T07:34:16Z</time>
      </trkpt>
      <trkpt lat="44.4048" lon="4.13069">
        <ele>183</ele>
        <time>2014-05-29T07:34:24Z</time>
      </trkpt>
      <trkpt lat="44.40481" lon="4.13061">
        <ele>183</ele>
        <time>2014-05-29T07:34:36Z</time>
      </trkpt>
      <trkpt lat="44.40489" lon="4.13071">
        <ele>182</ele>
        <time>2014-05-29T07:35:00Z</time>
      </trkpt>
      <trkpt lat="44.40501" lon="4.13085">
        <ele>180</ele>
        <time>2014-05-29T07:35:14Z</time>
      </trkpt>
      <trkpt lat="44.40512" lon="4.13098">
        <ele>179</ele>
        <time>2014-05-29T07:35:19Z</time>
      </trkpt>
      <trkpt lat="44.4052" lon="4.13109">
        <ele>179</ele>
        <time>2014-05-29T07:36:16Z</time>
      </trkpt>
      <trkpt lat="44.4055" lon="4.13141">
        <ele>178</ele>
        <time>2014-05-29T07:36:21Z</time>
      </trkpt>
      <trkpt lat="44.40586" lon="4.13186">
        <ele>176</ele>
        <time>2014-05-29T07:36:31Z</time>
      </trkpt>
      <trkpt lat="44.40586" lon="4.13191">
        <ele>176</ele>
        <time>2014-05-29T07:36:37Z</time>
      </trkpt>
      <trkpt lat="44.40606" lon="4.13224">
        <ele>176</ele>
        <time>2014-05-29T07:36:45Z</time>
      </trkpt>
      <trkpt lat="44.40621" lon="4.13259">
        <ele>174</ele>
        <time>2014-05-29T07:36:52Z</time>
      </trkpt>
      <trkpt lat="44.40629" lon="4.13259">
        <ele>173</ele>
        <time>2014-05-29T07:36:58Z</time>
      </trkpt>
      <trkpt lat="44.40651" lon="4.13241">
        <ele>175</ele>
        <time>2014-05-29T07:37:16Z</time>
      </trkpt>
      <trkpt lat="44.40626" lon="4.13192">
        <ele>177</ele>
        <time>2014-05-29T07:37:27Z</time>
      </trkpt>
      <trkpt lat="44.40594" lon="4.1316">
        <ele>178</ele>
        <time>2014-05-29T07:37:41Z</time>
      </trkpt>
      <trkpt lat="44.40604" lon="4.13152">
        <ele>179</ele>
        <time>2014-05-29T07:38:14Z</time>
      </trkpt>
      <trkpt lat="44.40607" lon="4.13158">
        <ele>179</ele>
        <time>2014-05-29T07:38:26Z</time>
      </trkpt>
      <trkpt lat="44.4063" lon="4.13155">
        <ele>180</ele>
        <time>2014-05-29T07:38:36Z</time>
      </trkpt>
      <trkpt lat="44.40673" lon="4.13149">
        <ele>182</ele>
        <time>2014-05-29T07:38:47Z</time>
      </trkpt>
      <trkpt lat="44.40704" lon="4.13141">
        <ele>184</ele>
        <time>2014-05-29T07:39:01Z</time>
      </trkpt>
      <trkpt lat="44.40732" lon="4.13129">
        <ele>184</ele>
        <time>2014-05-29T07:39:13Z</time>
      </trkpt>
      <trkpt lat="44.40755" lon="4.13118">
        <ele>186</ele>
        <time>2014-05-29T07:39:24Z</time>
      </trkpt>
      <trkpt lat="44.40622" lon="4.13178">
        <ele>177</ele>
        <time>2014-05-29T07:40:01Z</time>
      </trkpt>
      <trkpt lat="44.40613" lon="4.13185">
        <ele>176</ele>
        <time>2014-05-29T07:41:17Z</time>
      </trkpt>
      <trkpt lat="44.40579" lon="4.13122">
        <ele>179</ele>
        <time>2014-05-29T07:42:27Z</time>
      </trkpt>
      <trkpt lat="44.40568" lon="4.13093">
        <ele>179</ele>
        <time>2014-05-29T07:42:35Z</time>
      </trkpt>
      <trkpt lat="44.40558" lon="4.13061">
        <ele>181</ele>
        <time>2014-05-29T07:42:43Z</time>
      </trkpt>
      <trkpt lat="44.40552" lon="4.13029">
        <ele>181</ele>
        <time>2014-05-29T07:42:50Z</time>
      </trkpt>
      <trkpt lat="44.40538" lon="4.12999">
        <ele>182</ele>
        <time>2014-05-29T07:42:59Z</time>
      </trkpt>
      <trkpt lat="44.40539" lon="4.12967">
        <ele>182</ele>
        <time>2014-05-29T07:43:07Z</time>
      </trkpt>
      <trkpt lat="44.40542" lon="4.12934">
        <ele>181</ele>
        <time>2014-05-29T07:43:14Z</time>
      </trkpt>
      <trkpt lat="44.40538" lon="4.12902">
        <ele>181</ele>
        <time>2014-05-29T07:43:22Z</time>
      </trkpt>
      <trkpt lat="44.4053" lon="4.12873">
        <ele>181</ele>
        <time>2014-05-29T07:43:32Z</time>
      </trkpt>
      <trkpt lat="44.40538" lon="4.12866">
        <ele>181</ele>
        <time>2014-05-29T07:43:47Z</time>
      </trkpt>
      <trkpt lat="44.40549" lon="4.12897">
        <ele>181</ele>
        <time>2014-05-29T07:43:58Z</time>
      </trkpt>
      <trkpt lat="44.40547" lon="4.12921">
        <ele>182</ele>
        <time>2014-05-29T07:44:13Z</time>
      </trkpt>
      <trkpt lat="44.40516" lon="4.12894">
        <ele>181</ele>
        <time>2014-05-29T07:44:17Z</time>
      </trkpt>
      <trkpt lat="44.40509" lon="4.12885">
        <ele>181</ele>
        <time>2014-05-29T07:44:32Z</time>
      </trkpt>
      <trkpt lat="44.40494" lon="4.12858">
        <ele>182</ele>
        <time>2014-05-29T07:44:37Z</time>
      </trkpt>
      <trkpt lat="44.40474" lon="4.12813">
        <ele>183</ele>
        <time>2014-05-29T07:44:46Z</time>
      </trkpt>
      <trkpt lat="44.4046" lon="4.12784">
        <ele>184</ele>
        <time>2014-05-29T07:44:55Z</time>
      </trkpt>
      <trkpt lat="44.40442" lon="4.12756">
        <ele>185</ele>
        <time>2014-05-29T07:45:06Z</time>
      </trkpt>
      <trkpt lat="44.40421" lon="4.12731">
        <ele>185</ele>
        <time>2014-05-29T07:45:17Z</time>
      </trkpt>
      <trkpt lat="44.40398" lon="4.12708">
        <ele>189</ele>
        <time>2014-05-29T07:45:27Z</time>
      </trkpt>
      <trkpt lat="44.40381" lon="4.12681">
        <ele>189</ele>
        <time>2014-05-29T07:45:38Z</time>
      </trkpt>
      <trkpt lat="44.40368" lon="4.12653">
        <ele>189</ele>
        <time>2014-05-29T07:45:51Z</time>
      </trkpt>
      <trkpt lat="44.40353" lon="4.12626">
        <ele>189</ele>
        <time>2014-05-29T07:46:01Z</time>
      </trkpt>
      <trkpt lat="44.40337" lon="4.12598">
        <ele>189</ele>
        <time>2014-05-29T07:46:11Z</time>
      </trkpt>
      <trkpt lat="44.40317" lon="4.12572">
        <ele>194</ele>
        <time>2014-05-29T07:46:21Z</time>
      </trkpt>
      <trkpt lat="44.40296" lon="4.12549">
        <ele>196</ele>
        <time>2014-05-29T07:46:33Z</time>
      </trkpt>
      <trkpt lat="44.40274" lon="4.12527">
        <ele>197</ele>
        <time>2014-05-29T07:46:47Z</time>
      </trkpt>
      <trkpt lat="44.40265" lon="4.12497">
        <ele>195</ele>
        <time>2014-05-29T07:46:56Z</time>
      </trkpt>
      <trkpt lat="44.40246" lon="4.12468">
        <ele>199</ele>
        <time>2014-05-29T07:47:05Z</time>
      </trkpt>
      <trkpt lat="44.40223" lon="4.12439">
        <ele>198</ele>
        <time>2014-05-29T07:47:14Z</time>
      </trkpt>
      <trkpt lat="44.40201" lon="4.12413">
        <ele>194</ele>
        <time>2014-05-29T07:47:20Z</time>
      </trkpt>
      <trkpt lat="44.40183" lon="4.12389">
        <ele>194</ele>
        <time>2014-05-29T07:47:26Z</time>
      </trkpt>
      <trkpt lat="44.40168" lon="4.1236">
        <ele>193</ele>
        <time>2014-05-29T07:47:35Z</time>
      </trkpt>
      <trkpt lat="44.40145" lon="4.12336">
        <ele>196</ele>
        <time>2014-05-29T07:47:44Z</time>
      </trkpt>
      <trkpt lat="44.40127" lon="4.12307">
        <ele>196</ele>
        <time>2014-05-29T07:47:54Z</time>
      </trkpt>
      <trkpt lat="44.40118" lon="4.12276">
        <ele>196</ele>
        <time>2014-05-29T07:48:04Z</time>
      </trkpt>
      <trkpt lat="44.40108" lon="4.12245">
        <ele>198</ele>
        <time>2014-05-29T07:48:13Z</time>
      </trkpt>
      <trkpt lat="44.40096" lon="4.12216">
        <ele>198</ele>
        <time>2014-05-29T07:48:22Z</time>
      </trkpt>
      <trkpt lat="44.40081" lon="4.1219">
        <ele>198</ele>
        <time>2014-05-29T07:48:33Z</time>
      </trkpt>
      <trkpt lat="44.40057" lon="4.12168">
        <ele>199</ele>
        <time>2014-05-29T07:48:44Z</time>
      </trkpt>
      <trkpt lat="44.4004" lon="4.12144">
        <ele>200</ele>
        <time>2014-05-29T07:48:55Z</time>
      </trkpt>
      <trkpt lat="44.40031" lon="4.12114">
        <ele>200</ele>
        <time>2014-05-29T07:49:05Z</time>
      </trkpt>
      <trkpt lat="44.40025" lon="4.12082">
        <ele>201</ele>
        <time>2014-05-29T07:49:14Z</time>
      </trkpt>
      <trkpt lat="44.40022" lon="4.12052">
        <ele>201</ele>
        <time>2014-05-29T07:49:22Z</time>
      </trkpt>
      <trkpt lat="44.40025" lon="4.12022">
        <ele>202</ele>
        <time>2014-05-29T07:49:30Z</time>
      </trkpt>
      <trkpt lat="44.40037" lon="4.11993">
        <ele>204</ele>
        <time>2014-05-29T07:49:42Z</time>
      </trkpt>
      <trkpt lat="44.40048" lon="4.11965">
        <ele>206</ele>
        <time>2014-05-29T07:49:56Z</time>
      </trkpt>
      <trkpt lat="44.40071" lon="4.11975">
        <ele>206</ele>
        <time>2014-05-29T07:50:10Z</time>
      </trkpt>
      <trkpt lat="44.40093" lon="4.11995">
        <ele>209</ele>
        <time>2014-05-29T07:50:21Z</time>
      </trkpt>
      <trkpt lat="44.4012" lon="4.12013">
        <ele>210</ele>
        <time>2014-05-29T07:50:33Z</time>
      </trkpt>
      <trkpt lat="44.40146" lon="4.12034">
        <ele>211</ele>
        <time>2014-05-29T07:50:43Z</time>
      </trkpt>
      <trkpt lat="44.40167" lon="4.12062">
        <ele>217</ele>
        <time>2014-05-29T07:50:53Z</time>
      </trkpt>
      <trkpt lat="44.40186" lon="4.12089">
        <ele>212</ele>
        <time>2014-05-29T07:51:02Z</time>
      </trkpt>
      <trkpt lat="44.40208" lon="4.12113">
        <ele>214</ele>
        <time>2014-05-29T07:51:13Z</time>
      </trkpt>
      <trkpt lat="44.40235" lon="4.12133">
        <ele>214</ele>
        <time>2014-05-29T07:51:25Z</time>
      </trkpt>
      <trkpt lat="44.4026" lon="4.12152">
        <ele>218</ele>
        <time>2014-05-29T07:51:36Z</time>
      </trkpt>
      <trkpt lat="44.40284" lon="4.1217">
        <ele>214</ele>
        <time>2014-05-29T07:51:46Z</time>
      </trkpt>
      <trkpt lat="44.40313" lon="4.1218">
        <ele>217</ele>
        <time>2014-05-29T07:51:59Z</time>
      </trkpt>
      <trkpt lat="44.40346" lon="4.12183">
        <ele>220</ele>
        <time>2014-05-29T07:52:11Z</time>
      </trkpt>
      <trkpt lat="44.40378" lon="4.12187">
        <ele>220</ele>
        <time>2014-05-29T07:52:23Z</time>
      </trkpt>
      <trkpt lat="44.40407" lon="4.12182">
        <ele>222</ele>
        <time>2014-05-29T07:52:35Z</time>
      </trkpt>
      <trkpt lat="44.40433" lon="4.12167">
        <ele>219</ele>
        <time>2014-05-29T07:52:47Z</time>
      </trkpt>
      <trkpt lat="44.40457" lon="4.12147">
        <ele>222</ele>
        <time>2014-05-29T07:52:58Z</time>
      </trkpt>
      <trkpt lat="44.40469" lon="4.12121">
        <ele>222</ele>
        <time>2014-05-29T07:53:08Z</time>
      </trkpt>
      <trkpt lat="44.40477" lon="4.12088">
        <ele>223</ele>
        <time>2014-05-29T07:53:18Z</time>
      </trkpt>
      <trkpt lat="44.40484" lon="4.12055">
        <ele>230</ele>
        <time>2014-05-29T07:53:28Z</time>
      </trkpt>
      <trkpt lat="44.40488" lon="4.12024">
        <ele>232</ele>
        <time>2014-05-29T07:53:36Z</time>
      </trkpt>
      <trkpt lat="44.40492" lon="4.11993">
        <ele>235</ele>
        <time>2014-05-29T07:53:44Z</time>
      </trkpt>
      <trkpt lat="44.40499" lon="4.11962">
        <ele>240</ele>
        <time>2014-05-29T07:53:54Z</time>
      </trkpt>
      <trkpt lat="44.40505" lon="4.11931">
        <ele>232</ele>
        <time>2014-05-29T07:54:04Z</time>
      </trkpt>
      <trkpt lat="44.40511" lon="4.11901">
        <ele>235</ele>
        <time>2014-05-29T07:54:15Z</time>
      </trkpt>
      <trkpt lat="44.40519" lon="4.11871">
        <ele>235</ele>
        <time>2014-05-29T07:54:26Z</time>
      </trkpt>
      <trkpt lat="44.40522" lon="4.11839">
        <ele>240</ele>
        <time>2014-05-29T07:54:36Z</time>
      </trkpt>
      <trkpt lat="44.40524" lon="4.1181">
        <ele>244</ele>
        <time>2014-05-29T07:54:46Z</time>
      </trkpt>
      <trkpt lat="44.40529" lon="4.11779">
        <ele>245</ele>
        <time>2014-05-29T07:54:56Z</time>
      </trkpt>
      <trkpt lat="44.40538" lon="4.1175">
        <ele>250</ele>
        <time>2014-05-29T07:55:06Z</time>
      </trkpt>
      <trkpt lat="44.40545" lon="4.1172">
        <ele>250</ele>
        <time>2014-05-29T07:55:16Z</time>
      </trkpt>
      <trkpt lat="44.40555" lon="4.11691">
        <ele>250</ele>
        <time>2014-05-29T07:55:26Z</time>
      </trkpt>
      <trkpt lat="44.40565" lon="4.11661">
        <ele>253</ele>
        <time>2014-05-29T07:55:36Z</time>
      </trkpt>
      <trkpt lat="44.40574" lon="4.11632">
        <ele>256</ele>
        <time>2014-05-29T07:55:47Z</time>
      </trkpt>
      <trkpt lat="44.40582" lon="4.11604">
        <ele>257</ele>
        <time>2014-05-29T07:55:57Z</time>
      </trkpt>
      <trkpt lat="44.40585" lon="4.11572">
        <ele>253</ele>
        <time>2014-05-29T07:56:08Z</time>
      </trkpt>
      <trkpt lat="44.40584" lon="4.11539">
        <ele>251</ele>
        <time>2014-05-29T07:56:18Z</time>
      </trkpt>
      <trkpt lat="44.40586" lon="4.11506">
        <ele>258</ele>
        <time>2014-05-29T07:56:27Z</time>
      </trkpt>
      <trkpt lat="44.40588" lon="4.11473">
        <ele>257</ele>
        <time>2014-05-29T07:56:37Z</time>
      </trkpt>
      <trkpt lat="44.40592" lon="4.11439">
        <ele>258</ele>
        <time>2014-05-29T07:56:47Z</time>
      </trkpt>
      <trkpt lat="44.40594" lon="4.11406">
        <ele>262</ele>
        <time>2014-05-29T07:56:57Z</time>
      </trkpt>
      <trkpt lat="44.40596" lon="4.11372">
        <ele>261</ele>
        <time>2014-05-29T07:57:07Z</time>
      </trkpt>
      <trkpt lat="44.40599" lon="4.11337">
        <ele>264</ele>
        <time>2014-05-29T07:57:17Z</time>
      </trkpt>
      <trkpt lat="44.40601" lon="4.11304">
        <ele>265</ele>
        <time>2014-05-29T07:57:26Z</time>
      </trkpt>
      <trkpt lat="44.40599" lon="4.11271">
        <ele>266</ele>
        <time>2014-05-29T07:57:34Z</time>
      </trkpt>
      <trkpt lat="44.40599" lon="4.11241">
        <ele>268</ele>
        <time>2014-05-29T07:57:42Z</time>
      </trkpt>
      <trkpt lat="44.40599" lon="4.11209">
        <ele>267</ele>
        <time>2014-05-29T07:57:50Z</time>
      </trkpt>
      <trkpt lat="44.406" lon="4.11178">
        <ele>269</ele>
        <time>2014-05-29T07:57:58Z</time>
      </trkpt>
      <trkpt lat="44.40602" lon="4.11147">
        <ele>270</ele>
        <time>2014-05-29T07:58:06Z</time>
      </trkpt>
      <trkpt lat="44.40601" lon="4.11114">
        <ele>270</ele>
        <time>2014-05-29T07:58:15Z</time>
      </trkpt>
      <trkpt lat="44.406" lon="4.11082">
        <ele>272</ele>
        <time>2014-05-29T07:58:24Z</time>
      </trkpt>
      <trkpt lat="44.40595" lon="4.11051">
        <ele>270</ele>
        <time>2014-05-29T07:58:33Z</time>
      </trkpt>
      <trkpt lat="44.40593" lon="4.11019">
        <ele>271</ele>
        <time>2014-05-29T07:58:42Z</time>
      </trkpt>
      <trkpt lat="44.40589" lon="4.10985">
        <ele>272</ele>
        <time>2014-05-29T07:58:51Z</time>
      </trkpt>
      <trkpt lat="44.40586" lon="4.10952">
        <ele>270</ele>
        <time>2014-05-29T07:59:00Z</time>
      </trkpt>
      <trkpt lat="44.40586" lon="4.10919">
        <ele>274</ele>
        <time>2014-05-29T07:59:09Z</time>
      </trkpt>
      <trkpt lat="44.40587" lon="4.10886">
        <ele>275</ele>
        <time>2014-05-29T07:59:17Z</time>
      </trkpt>
      <trkpt lat="44.40593" lon="4.10855">
        <ele>278</ele>
        <time>2014-05-29T07:59:25Z</time>
      </trkpt>
      <trkpt lat="44.40608" lon="4.10827">
        <ele>283</ele>
        <time>2014-05-29T07:59:34Z</time>
      </trkpt>
      <trkpt lat="44.40625" lon="4.10801">
        <ele>283</ele>
        <time>2014-05-29T07:59:43Z</time>
      </trkpt>
      <trkpt lat="44.40642" lon="4.10775">
        <ele>283</ele>
        <time>2014-05-29T07:59:52Z</time>
      </trkpt>
      <trkpt lat="44.40659" lon="4.10748">
        <ele>285</ele>
        <time>2014-05-29T08:00:00Z</time>
      </trkpt>
      <trkpt lat="44.40672" lon="4.10719">
        <ele>280</ele>
        <time>2014-05-29T08:00:09Z</time>
      </trkpt>
      <trkpt lat="44.40684" lon="4.10691">
        <ele>281</ele>
        <time>2014-05-29T08:00:17Z</time>
      </trkpt>
      <trkpt lat="44.40695" lon="4.10662">
        <ele>284</ele>
        <time>2014-05-29T08:00:25Z</time>
      </trkpt>
      <trkpt lat="44.40706" lon="4.1063">
        <ele>284</ele>
        <time>2014-05-29T08:00:33Z</time>
      </trkpt>
      <trkpt lat="44.40716" lon="4.10598">
        <ele>283</ele>
        <time>2014-05-29T08:00:41Z</time>
      </trkpt>
      <trkpt lat="44.40724" lon="4.10567">
        <ele>284</ele>
        <time>2014-05-29T08:00:47Z</time>
      </trkpt>
      <trkpt lat="44.40723" lon="4.10536">
        <ele>285</ele>
        <time>2014-05-29T08:00:56Z</time>
      </trkpt>
      <trkpt lat="44.40715" lon="4.10507">
        <ele>285</ele>
        <time>2014-05-29T08:01:07Z</time>
      </trkpt>
      <trkpt lat="44.40704" lon="4.10479">
        <ele>290</ele>
        <time>2014-05-29T08:01:18Z</time>
      </trkpt>
      <trkpt lat="44.40691" lon="4.1045">
        <ele>293</ele>
        <time>2014-05-29T08:01:29Z</time>
      </trkpt>
      <trkpt lat="44.4069" lon="4.10421">
        <ele>296</ele>
        <time>2014-05-29T08:01:40Z</time>
      </trkpt>
      <trkpt lat="44.40703" lon="4.10393">
        <ele>300</ele>
        <time>2014-05-29T08:01:51Z</time>
      </trkpt>
      <trkpt lat="44.40716" lon="4.10364">
        <ele>301</ele>
        <time>2014-05-29T08:02:01Z</time>
      </trkpt>
      <trkpt lat="44.4073" lon="4.10337">
        <ele>301</ele>
        <time>2014-05-29T08:02:11Z</time>
      </trkpt>
      <trkpt lat="44.40742" lon="4.10307">
        <ele>308</ele>
        <time>2014-05-29T08:02:21Z</time>
      </trkpt>
      <trkpt lat="44.40756" lon="4.10276">
        <ele>302</ele>
        <time>2014-05-29T08:02:31Z</time>
      </trkpt>
      <trkpt lat="44.4077" lon="4.10247">
        <ele>306</ele>
        <time>2014-05-29T08:02:40Z</time>
      </trkpt>
      <trkpt lat="44.40782" lon="4.10219">
        <ele>306</ele>
        <time>2014-05-29T08:02:48Z</time>
      </trkpt>
      <trkpt lat="44.40793" lon="4.10187">
        <ele>306</ele>
        <time>2014-05-29T08:02:58Z</time>
      </trkpt>
      <trkpt lat="44.408" lon="4.10156">
        <ele>310</ele>
        <time>2014-05-29T08:03:06Z</time>
      </trkpt>
      <trkpt lat="44.40804" lon="4.10123">
        <ele>310</ele>
        <time>2014-05-29T08:03:14Z</time>
      </trkpt>
      <trkpt lat="44.40808" lon="4.10084">
        <ele>310</ele>
        <time>2014-05-29T08:03:23Z</time>
      </trkpt>
      <trkpt lat="44.40807" lon="4.10049">
        <ele>312</ele>
        <time>2014-05-29T08:03:32Z</time>
      </trkpt>
      <trkpt lat="44.40805" lon="4.10016">
        <ele>312</ele>
        <time>2014-05-29T08:03:43Z</time>
      </trkpt>
      <trkpt lat="44.408" lon="4.09982">
        <ele>310</ele>
        <time>2014-05-29T08:03:51Z</time>
      </trkpt>
      <trkpt lat="44.40794" lon="4.0995">
        <ele>310</ele>
        <time>2014-05-29T08:03:59Z</time>
      </trkpt>
      <trkpt lat="44.40784" lon="4.09918">
        <ele>310</ele>
        <time>2014-05-29T08:04:06Z</time>
      </trkpt>
      <trkpt lat="44.40771" lon="4.09889">
        <ele>306</ele>
        <time>2014-05-29T08:04:14Z</time>
      </trkpt>
      <trkpt lat="44.40752" lon="4.09862">
        <ele>305</ele>
        <time>2014-05-29T08:04:21Z</time>
      </trkpt>
      <trkpt lat="44.40726" lon="4.09837">
        <ele>312</ele>
        <time>2014-05-29T08:04:29Z</time>
      </trkpt>
      <trkpt lat="44.40704" lon="4.09812">
        <ele>306</ele>
        <time>2014-05-29T08:04:37Z</time>
      </trkpt>
      <trkpt lat="44.40683" lon="4.09787">
        <ele>305</ele>
        <time>2014-05-29T08:04:45Z</time>
      </trkpt>
      <trkpt lat="44.4066" lon="4.09766">
        <ele>313</ele>
        <time>2014-05-29T08:04:53Z</time>
      </trkpt>
      <trkpt lat="44.40634" lon="4.09746">
        <ele>308</ele>
        <time>2014-05-29T08:05:02Z</time>
      </trkpt>
      <trkpt lat="44.40606" lon="4.09729">
        <ele>311</ele>
        <time>2014-05-29T08:05:11Z</time>
      </trkpt>
      <trkpt lat="44.40587" lon="4.09706">
        <ele>310</ele>
        <time>2014-05-29T08:05:21Z</time>
      </trkpt>
      <trkpt lat="44.40576" lon="4.09676">
        <ele>314</ele>
        <time>2014-05-29T08:05:28Z</time>
      </trkpt>
      <trkpt lat="44.40559" lon="4.09646">
        <ele>311</ele>
        <time>2014-05-29T08:05:36Z</time>
      </trkpt>
      <trkpt lat="44.40537" lon="4.09622">
        <ele>312</ele>
        <time>2014-05-29T08:05:46Z</time>
      </trkpt>
      <trkpt lat="44.40516" lon="4.09598">
        <ele>314</ele>
        <time>2014-05-29T08:05:58Z</time>
      </trkpt>
      <trkpt lat="44.40496" lon="4.0957">
        <ele>320</ele>
        <time>2014-05-29T08:06:10Z</time>
      </trkpt>
      <trkpt lat="44.40476" lon="4.09544">
        <ele>322</ele>
        <time>2014-05-29T08:06:22Z</time>
      </trkpt>
      <trkpt lat="44.40453" lon="4.09526">
        <ele>325</ele>
        <time>2014-05-29T08:06:36Z</time>
      </trkpt>
      <trkpt lat="44.4044" lon="4.09499">
        <ele>328</ele>
        <time>2014-05-29T08:06:49Z</time>
      </trkpt>
      <trkpt lat="44.4042" lon="4.09479">
        <ele>330</ele>
        <time>2014-05-29T08:07:06Z</time>
      </trkpt>
      <trkpt lat="44.40399" lon="4.09465">
        <ele>342</ele>
        <time>2014-05-29T08:07:21Z</time>
      </trkpt>
      <trkpt lat="44.40398" lon="4.09433">
        <ele>343</ele>
        <time>2014-05-29T08:07:36Z</time>
      </trkpt>
      <trkpt lat="44.404" lon="4.09404">
        <ele>345</ele>
        <time>2014-05-29T08:07:50Z</time>
      </trkpt>
      <trkpt lat="44.40395" lon="4.09375">
        <ele>349</ele>
        <time>2014-05-29T08:08:05Z</time>
      </trkpt>
      <trkpt lat="44.40378" lon="4.09348">
        <ele>351</ele>
        <time>2014-05-29T08:08:19Z</time>
      </trkpt>
      <trkpt lat="44.40366" lon="4.09322">
        <ele>359</ele>
        <time>2014-05-29T08:08:34Z</time>
      </trkpt>
      <trkpt lat="44.40393" lon="4.09311">
        <ele>358</ele>
        <time>2014-05-29T08:08:50Z</time>
      </trkpt>
      <trkpt lat="44.40417" lon="4.09294">
        <ele>353</ele>
        <time>2014-05-29T08:09:05Z</time>
      </trkpt>
      <trkpt lat="44.40437" lon="4.0927">
        <ele>355</ele>
        <time>2014-05-29T08:09:20Z</time>
      </trkpt>
      <trkpt lat="44.40458" lon="4.09246">
        <ele>361</ele>
        <time>2014-05-29T08:09:33Z</time>
      </trkpt>
      <trkpt lat="44.4048" lon="4.09227">
        <ele>360</ele>
        <time>2014-05-29T08:09:46Z</time>
      </trkpt>
      <trkpt lat="44.40506" lon="4.09205">
        <ele>353</ele>
        <time>2014-05-29T08:09:56Z</time>
      </trkpt>
      <trkpt lat="44.4052" lon="4.09173">
        <ele>354</ele>
        <time>2014-05-29T08:10:02Z</time>
      </trkpt>
      <trkpt lat="44.40528" lon="4.09141">
        <ele>354</ele>
        <time>2014-05-29T08:10:07Z</time>
      </trkpt>
      <trkpt lat="44.40545" lon="4.09116">
        <ele>352</ele>
        <time>2014-05-29T08:10:16Z</time>
      </trkpt>
      <trkpt lat="44.40559" lon="4.09087">
        <ele>350</ele>
        <time>2014-05-29T08:10:27Z</time>
      </trkpt>
      <trkpt lat="44.40574" lon="4.09055">
        <ele>357</ele>
        <time>2014-05-29T08:10:39Z</time>
      </trkpt>
      <trkpt lat="44.40592" lon="4.09025">
        <ele>351</ele>
        <time>2014-05-29T08:10:51Z</time>
      </trkpt>
      <trkpt lat="44.40606" lon="4.09">
        <ele>359</ele>
        <time>2014-05-29T08:11:00Z</time>
      </trkpt>
      <trkpt lat="44.4062" lon="4.08971">
        <ele>358</ele>
        <time>2014-05-29T08:11:09Z</time>
      </trkpt>
      <trkpt lat="44.40631" lon="4.08942">
        <ele>357</ele>
        <time>2014-05-29T08:11:19Z</time>
      </trkpt>
      <trkpt lat="44.40637" lon="4.0891">
        <ele>359</ele>
        <time>2014-05-29T08:11:28Z</time>
      </trkpt>
      <trkpt lat="44.40647" lon="4.0888">
        <ele>359</ele>
        <time>2014-05-29T08:11:33Z</time>
      </trkpt>
      <trkpt lat="44.40656" lon="4.08852">
        <ele>357</ele>
        <time>2014-05-29T08:11:37Z</time>
      </trkpt>
      <trkpt lat="44.40674" lon="4.08816">
        <ele>344</ele>
        <time>2014-05-29T08:11:41Z</time>
      </trkpt>
      <trkpt lat="44.40693" lon="4.08786">
        <ele>342</ele>
        <time>2014-05-29T08:11:45Z</time>
      </trkpt>
      <trkpt lat="44.40698" lon="4.0875">
        <ele>344</ele>
        <time>2014-05-29T08:11:48Z</time>
      </trkpt>
      <trkpt lat="44.40712" lon="4.08705">
        <ele>353</ele>
        <time>2014-05-29T08:11:52Z</time>
      </trkpt>
      <trkpt lat="44.40742" lon="4.08683">
        <ele>353</ele>
        <time>2014-05-29T08:11:59Z</time>
      </trkpt>
      <trkpt lat="44.40769" lon="4.08662">
        <ele>361</ele>
        <time>2014-05-29T08:12:07Z</time>
      </trkpt>
      <trkpt lat="44.40794" lon="4.08641">
        <ele>364</ele>
        <time>2014-05-29T08:12:19Z</time>
      </trkpt>
      <trkpt lat="44.40813" lon="4.08621">
        <ele>365</ele>
        <time>2014-05-29T08:12:36Z</time>
      </trkpt>
      <trkpt lat="44.40821" lon="4.08593">
        <ele>369</ele>
        <time>2014-05-29T08:12:48Z</time>
      </trkpt>
      <trkpt lat="44.40837" lon="4.08567">
        <ele>371</ele>
        <time>2014-05-29T08:13:05Z</time>
      </trkpt>
      <trkpt lat="44.40863" lon="4.08551">
        <ele>370</ele>
        <time>2014-05-29T08:13:24Z</time>
      </trkpt>
      <trkpt lat="44.40883" lon="4.08529">
        <ele>370</ele>
        <time>2014-05-29T08:13:40Z</time>
      </trkpt>
      <trkpt lat="44.40897" lon="4.08502">
        <ele>368</ele>
        <time>2014-05-29T08:13:50Z</time>
      </trkpt>
      <trkpt lat="44.4091" lon="4.08484">
        <ele>369</ele>
        <time>2014-05-29T08:14:11Z</time>
      </trkpt>
      <trkpt lat="44.40917" lon="4.08478">
        <ele>353</ele>
        <time>2014-05-29T08:15:00Z</time>
      </trkpt>
      <trkpt lat="44.40917" lon="4.08394">
        <ele>347</ele>
        <time>2014-05-29T08:15:41Z</time>
      </trkpt>
      <trkpt lat="44.40905" lon="4.08362">
        <ele>365</ele>
        <time>2014-05-29T08:15:53Z</time>
      </trkpt>
      <trkpt lat="44.40892" lon="4.08336">
        <ele>364</ele>
        <time>2014-05-29T08:16:04Z</time>
      </trkpt>
      <trkpt lat="44.40879" lon="4.08307">
        <ele>368</ele>
        <time>2014-05-29T08:16:13Z</time>
      </trkpt>
      <trkpt lat="44.40868" lon="4.08276">
        <ele>371</ele>
        <time>2014-05-29T08:16:22Z</time>
      </trkpt>
      <trkpt lat="44.40871" lon="4.08244">
        <ele>374</ele>
        <time>2014-05-29T08:16:30Z</time>
      </trkpt>
      <trkpt lat="44.40882" lon="4.08212">
        <ele>373</ele>
        <time>2014-05-29T08:16:38Z</time>
      </trkpt>
      <trkpt lat="44.40889" lon="4.08178">
        <ele>372</ele>
        <time>2014-05-29T08:16:45Z</time>
      </trkpt>
      <trkpt lat="44.4089" lon="4.08147">
        <ele>380</ele>
        <time>2014-05-29T08:16:53Z</time>
      </trkpt>
      <trkpt lat="44.40893" lon="4.08113">
        <ele>383</ele>
        <time>2014-05-29T08:17:05Z</time>
      </trkpt>
      <trkpt lat="44.40907" lon="4.08089">
        <ele>379</ele>
        <time>2014-05-29T08:17:17Z</time>
      </trkpt>
      <trkpt lat="44.4093" lon="4.0807">
        <ele>370</ele>
        <time>2014-05-29T08:17:27Z</time>
      </trkpt>
      <trkpt lat="44.40939" lon="4.0804">
        <ele>371</ele>
        <time>2014-05-29T08:17:36Z</time>
      </trkpt>
      <trkpt lat="44.40942" lon="4.08011">
        <ele>376</ele>
        <time>2014-05-29T08:17:45Z</time>
      </trkpt>
      <trkpt lat="44.40947" lon="4.07977">
        <ele>386</ele>
        <time>2014-05-29T08:17:55Z</time>
      </trkpt>
      <trkpt lat="44.40958" lon="4.07947">
        <ele>386</ele>
        <time>2014-05-29T08:18:03Z</time>
      </trkpt>
      <trkpt lat="44.40967" lon="4.07917">
        <ele>385</ele>
        <time>2014-05-29T08:18:12Z</time>
      </trkpt>
      <trkpt lat="44.40973" lon="4.07887">
        <ele>396</ele>
        <time>2014-05-29T08:18:20Z</time>
      </trkpt>
      <trkpt lat="44.40985" lon="4.07858">
        <ele>396</ele>
        <time>2014-05-29T08:18:29Z</time>
      </trkpt>
      <trkpt lat="44.40995" lon="4.07828">
        <ele>395</ele>
        <time>2014-05-29T08:18:39Z</time>
      </trkpt>
      <trkpt lat="44.40998" lon="4.07795">
        <ele>409</ele>
        <time>2014-05-29T08:18:49Z</time>
      </trkpt>
      <trkpt lat="44.41008" lon="4.07763">
        <ele>390</ele>
        <time>2014-05-29T08:18:58Z</time>
      </trkpt>
      <trkpt lat="44.41016" lon="4.07729">
        <ele>395</ele>
        <time>2014-05-29T08:19:06Z</time>
      </trkpt>
      <trkpt lat="44.41023" lon="4.07697">
        <ele>396</ele>
        <time>2014-05-29T08:19:15Z</time>
      </trkpt>
      <trkpt lat="44.41033" lon="4.07667">
        <ele>397</ele>
        <time>2014-05-29T08:19:23Z</time>
      </trkpt>
      <trkpt lat="44.41042" lon="4.07634">
        <ele>403</ele>
        <time>2014-05-29T08:19:32Z</time>
      </trkpt>
      <trkpt lat="44.41047" lon="4.07604">
        <ele>404</ele>
        <time>2014-05-29T08:19:40Z</time>
      </trkpt>
      <trkpt lat="44.41055" lon="4.07575">
        <ele>408</ele>
        <time>2014-05-29T08:19:48Z</time>
      </trkpt>
      <trkpt lat="44.41063" lon="4.07546">
        <ele>409</ele>
        <time>2014-05-29T08:19:56Z</time>
      </trkpt>
      <trkpt lat="44.41062" lon="4.07513">
        <ele>410</ele>
        <time>2014-05-29T08:20:05Z</time>
      </trkpt>
      <trkpt lat="44.41055" lon="4.07482">
        <ele>417</ele>
        <time>2014-05-29T08:20:16Z</time>
      </trkpt>
      <trkpt lat="44.41051" lon="4.07452">
        <ele>420</ele>
        <time>2014-05-29T08:20:26Z</time>
      </trkpt>
      <trkpt lat="44.41062" lon="4.07427">
        <ele>419</ele>
        <time>2014-05-29T08:20:37Z</time>
      </trkpt>
      <trkpt lat="44.41088" lon="4.07432">
        <ele>415</ele>
        <time>2014-05-29T08:20:46Z</time>
      </trkpt>
      <trkpt lat="44.41117" lon="4.07437">
        <ele>416</ele>
        <time>2014-05-29T08:20:55Z</time>
      </trkpt>
      <trkpt lat="44.41143" lon="4.07453">
        <ele>417</ele>
        <time>2014-05-29T08:21:06Z</time>
      </trkpt>
      <trkpt lat="44.41173" lon="4.07468">
        <ele>422</ele>
        <time>2014-05-29T08:21:15Z</time>
      </trkpt>
      <trkpt lat="44.41204" lon="4.07473">
        <ele>423</ele>
        <time>2014-05-29T08:21:25Z</time>
      </trkpt>
      <trkpt lat="44.41233" lon="4.07461">
        <ele>426</ele>
        <time>2014-05-29T08:21:36Z</time>
      </trkpt>
      <trkpt lat="44.41262" lon="4.07451">
        <ele>431</ele>
        <time>2014-05-29T08:21:47Z</time>
      </trkpt>
      <trkpt lat="44.41291" lon="4.07465">
        <ele>429</ele>
        <time>2014-05-29T08:21:56Z</time>
      </trkpt>
      <trkpt lat="44.41309" lon="4.0749">
        <ele>427</ele>
        <time>2014-05-29T08:22:03Z</time>
      </trkpt>
      <trkpt lat="44.41327" lon="4.07513">
        <ele>419</ele>
        <time>2014-05-29T08:22:13Z</time>
      </trkpt>
      <trkpt lat="44.41359" lon="4.07507">
        <ele>420</ele>
        <time>2014-05-29T08:22:21Z</time>
      </trkpt>
      <trkpt lat="44.41385" lon="4.07488">
        <ele>430</ele>
        <time>2014-05-29T08:22:32Z</time>
      </trkpt>
      <trkpt lat="44.41408" lon="4.07465">
        <ele>432</ele>
        <time>2014-05-29T08:22:42Z</time>
      </trkpt>
      <trkpt lat="44.41436" lon="4.07451">
        <ele>435</ele>
        <time>2014-05-29T08:22:54Z</time>
      </trkpt>
      <trkpt lat="44.41467" lon="4.07459">
        <ele>435</ele>
        <time>2014-05-29T08:23:06Z</time>
      </trkpt>
      <trkpt lat="44.41496" lon="4.07471">
        <ele>435</ele>
        <time>2014-05-29T08:23:18Z</time>
      </trkpt>
      <trkpt lat="44.41527" lon="4.07468">
        <ele>439</ele>
        <time>2014-05-29T08:23:30Z</time>
      </trkpt>
      <trkpt lat="44.41552" lon="4.07452">
        <ele>441</ele>
        <time>2014-05-29T08:23:41Z</time>
      </trkpt>
      <trkpt lat="44.41579" lon="4.07438">
        <ele>444</ele>
        <time>2014-05-29T08:23:52Z</time>
      </trkpt>
      <trkpt lat="44.41604" lon="4.07448">
        <ele>450</ele>
        <time>2014-05-29T08:24:03Z</time>
      </trkpt>
      <trkpt lat="44.41616" lon="4.07477">
        <ele>449</ele>
        <time>2014-05-29T08:24:13Z</time>
      </trkpt>
      <trkpt lat="44.41631" lon="4.07505">
        <ele>443</ele>
        <time>2014-05-29T08:24:23Z</time>
      </trkpt>
      <trkpt lat="44.41658" lon="4.07522">
        <ele>445</ele>
        <time>2014-05-29T08:24:34Z</time>
      </trkpt>
      <trkpt lat="44.41678" lon="4.07532">
        <ele>450</ele>
        <time>2014-05-29T08:25:06Z</time>
      </trkpt>
      <trkpt lat="44.41684" lon="4.07529">
        <ele>450</ele>
        <time>2014-05-29T08:25:42Z</time>
      </trkpt>
      <trkpt lat="44.41677" lon="4.07472">
        <ele>460</ele>
        <time>2014-05-29T08:25:59Z</time>
      </trkpt>
      <trkpt lat="44.41698" lon="4.07452">
        <ele>463</ele>
        <time>2014-05-29T08:26:17Z</time>
      </trkpt>
      <trkpt lat="44.41698" lon="4.07425">
        <ele>465</ele>
        <time>2014-05-29T08:26:33Z</time>
      </trkpt>
      <trkpt lat="44.41711" lon="4.07398">
        <ele>473</ele>
        <time>2014-05-29T08:26:51Z</time>
      </trkpt>
      <trkpt lat="44.41733" lon="4.07377">
        <ele>476</ele>
        <time>2014-05-29T08:27:10Z</time>
      </trkpt>
      <trkpt lat="44.41753" lon="4.07352">
        <ele>483</ele>
        <time>2014-05-29T08:27:25Z</time>
      </trkpt>
      <trkpt lat="44.4177" lon="4.07327">
        <ele>488</ele>
        <time>2014-05-29T08:27:41Z</time>
      </trkpt>
      <trkpt lat="44.41788" lon="4.07302">
        <ele>490</ele>
        <time>2014-05-29T08:27:59Z</time>
      </trkpt>
      <trkpt lat="44.41795" lon="4.07274">
        <ele>491</ele>
        <time>2014-05-29T08:28:13Z</time>
      </trkpt>
      <trkpt lat="44.41798" lon="4.07243">
        <ele>498</ele>
        <time>2014-05-29T08:28:33Z</time>
      </trkpt>
      <trkpt lat="44.41775" lon="4.07241">
        <ele>497</ele>
        <time>2014-05-29T08:28:56Z</time>
      </trkpt>
      <trkpt lat="44.4176" lon="4.0722">
        <ele>497</ele>
        <time>2014-05-29T08:29:14Z</time>
      </trkpt>
      <trkpt lat="44.41757" lon="4.07195">
        <ele>498</ele>
        <time>2014-05-29T08:29:33Z</time>
      </trkpt>
      <trkpt lat="44.41757" lon="4.07198">
        <ele>498</ele>
        <time>2014-05-29T08:29:50Z</time>
      </trkpt>
      <trkpt lat="44.41789" lon="4.07197">
        <ele>499</ele>
        <time>2014-05-29T08:30:28Z</time>
      </trkpt>
      <trkpt lat="44.4184" lon="4.07181">
        <ele>502</ele>
        <time>2014-05-29T08:30:37Z</time>
      </trkpt>
      <trkpt lat="44.41865" lon="4.07162">
        <ele>507</ele>
        <time>2014-05-29T08:30:46Z</time>
      </trkpt>
      <trkpt lat="44.41887" lon="4.07139">
        <ele>507</ele>
        <time>2014-05-29T08:30:57Z</time>
      </trkpt>
      <trkpt lat="44.41908" lon="4.07116">
        <ele>509</ele>
        <time>2014-05-29T08:31:08Z</time>
      </trkpt>
      <trkpt lat="44.41929" lon="4.07092">
        <ele>507</ele>
        <time>2014-05-29T08:31:21Z</time>
      </trkpt>
      <trkpt lat="44.41929" lon="4.07066">
        <ele>512</ele>
        <time>2014-05-29T08:31:40Z</time>
      </trkpt>
      <trkpt lat="44.41922" lon="4.07036">
        <ele>514</ele>
        <time>2014-05-29T08:32:20Z</time>
      </trkpt>
      <trkpt lat="44.4192" lon="4.07005">
        <ele>522</ele>
        <time>2014-05-29T08:32:34Z</time>
      </trkpt>
      <trkpt lat="44.41919" lon="4.06974">
        <ele>525</ele>
        <time>2014-05-29T08:32:49Z</time>
      </trkpt>
      <trkpt lat="44.4192" lon="4.06943">
        <ele>528</ele>
        <time>2014-05-29T08:33:07Z</time>
      </trkpt>
      <trkpt lat="44.41918" lon="4.06914">
        <ele>537</ele>
        <time>2014-05-29T08:33:29Z</time>
      </trkpt>
      <trkpt lat="44.41903" lon="4.06887">
        <ele>540</ele>
        <time>2014-05-29T08:33:56Z</time>
      </trkpt>
      <trkpt lat="44.41892" lon="4.0686">
        <ele>541</ele>
        <time>2014-05-29T08:34:18Z</time>
      </trkpt>
      <trkpt lat="44.41887" lon="4.06831">
        <ele>547</ele>
        <time>2014-05-29T08:34:36Z</time>
      </trkpt>
      <trkpt lat="44.41883" lon="4.06799">
        <ele>548</ele>
        <time>2014-05-29T08:34:54Z</time>
      </trkpt>
      <trkpt lat="44.41878" lon="4.06768">
        <ele>549</ele>
        <time>2014-05-29T08:35:08Z</time>
      </trkpt>
      <trkpt lat="44.41883" lon="4.06734">
        <ele>554</ele>
        <time>2014-05-29T08:35:18Z</time>
      </trkpt>
      <trkpt lat="44.41884" lon="4.06702">
        <ele>555</ele>
        <time>2014-05-29T08:35:31Z</time>
      </trkpt>
      <trkpt lat="44.4188" lon="4.06672">
        <ele>557</ele>
        <time>2014-05-29T08:35:48Z</time>
      </trkpt>
      <trkpt lat="44.41873" lon="4.06644">
        <ele>561</ele>
        <time>2014-05-29T08:36:06Z</time>
      </trkpt>
      <trkpt lat="44.41866" lon="4.06613">
        <ele>563</ele>
        <time>2014-05-29T08:36:22Z</time>
      </trkpt>
      <trkpt lat="44.41856" lon="4.06591">
        <ele>566</ele>
        <time>2014-05-29T08:36:32Z</time>
      </trkpt>
      <trkpt lat="44.41844" lon="4.0661">
        <ele>565</ele>
        <time>2014-05-29T08:36:48Z</time>
      </trkpt>
      <trkpt lat="44.41823" lon="4.06632">
        <ele>576</ele>
        <time>2014-05-29T08:37:08Z</time>
      </trkpt>
      <trkpt lat="44.41796" lon="4.06637">
        <ele>579</ele>
        <time>2014-05-29T08:37:27Z</time>
      </trkpt>
      <trkpt lat="44.4177" lon="4.06656">
        <ele>581</ele>
        <time>2014-05-29T08:37:43Z</time>
      </trkpt>
      <trkpt lat="44.41741" lon="4.06666">
        <ele>588</ele>
        <time>2014-05-29T08:38:01Z</time>
      </trkpt>
      <trkpt lat="44.41721" lon="4.06684">
        <ele>584</ele>
        <time>2014-05-29T08:38:15Z</time>
      </trkpt>
      <trkpt lat="44.41702" lon="4.06712">
        <ele>583</ele>
        <time>2014-05-29T08:38:46Z</time>
      </trkpt>
      <trkpt lat="44.41681" lon="4.06686">
        <ele>589</ele>
        <time>2014-05-29T08:41:23Z</time>
      </trkpt>
      <trkpt lat="44.41638" lon="4.06648">
        <ele>609</ele>
        <time>2014-05-29T08:41:43Z</time>
      </trkpt>
      <trkpt lat="44.41616" lon="4.06631">
        <ele>613</ele>
        <time>2014-05-29T08:42:03Z</time>
      </trkpt>
      <trkpt lat="44.41594" lon="4.06614">
        <ele>617</ele>
        <time>2014-05-29T08:42:22Z</time>
      </trkpt>
      <trkpt lat="44.41565" lon="4.06623">
        <ele>627</ele>
        <time>2014-05-29T08:42:38Z</time>
      </trkpt>
      <trkpt lat="44.41543" lon="4.06648">
        <ele>626</ele>
        <time>2014-05-29T08:42:51Z</time>
      </trkpt>
      <trkpt lat="44.41524" lon="4.06677">
        <ele>616</ele>
        <time>2014-05-29T08:43:02Z</time>
      </trkpt>
      <trkpt lat="44.415" lon="4.06696">
        <ele>624</ele>
        <time>2014-05-29T08:43:15Z</time>
      </trkpt>
      <trkpt lat="44.41474" lon="4.06688">
        <ele>625</ele>
        <time>2014-05-29T08:43:33Z</time>
      </trkpt>
      <trkpt lat="44.41457" lon="4.06666">
        <ele>641</ele>
        <time>2014-05-29T08:43:54Z</time>
      </trkpt>
      <trkpt lat="44.41432" lon="4.06662">
        <ele>642</ele>
        <time>2014-05-29T08:44:12Z</time>
      </trkpt>
      <trkpt lat="44.41404" lon="4.06675">
        <ele>635</ele>
        <time>2014-05-29T08:44:26Z</time>
      </trkpt>
      <trkpt lat="44.41376" lon="4.0667">
        <ele>634</ele>
        <time>2014-05-29T08:44:45Z</time>
      </trkpt>
      <trkpt lat="44.41349" lon="4.06658">
        <ele>647</ele>
        <time>2014-05-29T08:45:04Z</time>
      </trkpt>
      <trkpt lat="44.41321" lon="4.06655">
        <ele>648</ele>
        <time>2014-05-29T08:45:24Z</time>
      </trkpt>
      <trkpt lat="44.41309" lon="4.06648">
        <ele>651</ele>
        <time>2014-05-29T08:46:06Z</time>
      </trkpt>
      <trkpt lat="44.41295" lon="4.06641">
        <ele>652</ele>
        <time>2014-05-29T08:46:20Z</time>
      </trkpt>
      <trkpt lat="44.41266" lon="4.06624">
        <ele>654</ele>
        <time>2014-05-29T08:46:37Z</time>
      </trkpt>
      <trkpt lat="44.41233" lon="4.06587">
        <ele>656</ele>
        <time>2014-05-29T08:46:55Z</time>
      </trkpt>
      <trkpt lat="44.41213" lon="4.06564">
        <ele>665</ele>
        <time>2014-05-29T08:47:15Z</time>
      </trkpt>
      <trkpt lat="44.41196" lon="4.06539">
        <ele>667</ele>
        <time>2014-05-29T08:47:34Z</time>
      </trkpt>
      <trkpt lat="44.41184" lon="4.06511">
        <ele>670</ele>
        <time>2014-05-29T08:47:51Z</time>
      </trkpt>
      <trkpt lat="44.412" lon="4.06489">
        <ele>681</ele>
        <time>2014-05-29T08:48:09Z</time>
      </trkpt>
      <trkpt lat="44.41229" lon="4.06481">
        <ele>683</ele>
        <time>2014-05-29T08:48:25Z</time>
      </trkpt>
      <trkpt lat="44.41255" lon="4.06491">
        <ele>685</ele>
        <time>2014-05-29T08:48:36Z</time>
      </trkpt>
      <trkpt lat="44.41286" lon="4.06486">
        <ele>690</ele>
        <time>2014-05-29T08:48:48Z</time>
      </trkpt>
      <trkpt lat="44.41315" lon="4.0648">
        <ele>692</ele>
        <time>2014-05-29T08:49:04Z</time>
      </trkpt>
      <trkpt lat="44.41344" lon="4.06465">
        <ele>695</ele>
        <time>2014-05-29T08:49:18Z</time>
      </trkpt>
      <trkpt lat="44.41367" lon="4.06445">
        <ele>696</ele>
        <time>2014-05-29T08:49:30Z</time>
      </trkpt>
      <trkpt lat="44.41391" lon="4.06427">
        <ele>697</ele>
        <time>2014-05-29T08:49:45Z</time>
      </trkpt>
      <trkpt lat="44.41417" lon="4.06405">
        <ele>701</ele>
        <time>2014-05-29T08:50:00Z</time>
      </trkpt>
      <trkpt lat="44.41431" lon="4.0638">
        <ele>703</ele>
        <time>2014-05-29T08:50:18Z</time>
      </trkpt>
      <trkpt lat="44.41417" lon="4.06364">
        <ele>706</ele>
        <time>2014-05-29T08:50:40Z</time>
      </trkpt>
      <trkpt lat="44.41389" lon="4.06374">
        <ele>710</ele>
        <time>2014-05-29T08:51:00Z</time>
      </trkpt>
      <trkpt lat="44.41359" lon="4.0638">
        <ele>710</ele>
        <time>2014-05-29T08:51:21Z</time>
      </trkpt>
      <trkpt lat="44.41334" lon="4.06368">
        <ele>712</ele>
        <time>2014-05-29T08:51:41Z</time>
      </trkpt>
      <trkpt lat="44.41322" lon="4.06341">
        <ele>716</ele>
        <time>2014-05-29T08:51:59Z</time>
      </trkpt>
      <trkpt lat="44.41328" lon="4.06311">
        <ele>727</ele>
        <time>2014-05-29T08:52:16Z</time>
      </trkpt>
      <trkpt lat="44.41341" lon="4.06284">
        <ele>732</ele>
        <time>2014-05-29T08:52:31Z</time>
      </trkpt>
      <trkpt lat="44.41357" lon="4.0626">
        <ele>736</ele>
        <time>2014-05-29T08:52:46Z</time>
      </trkpt>
      <trkpt lat="44.41378" lon="4.06238">
        <ele>753</ele>
        <time>2014-05-29T08:53:01Z</time>
      </trkpt>
      <trkpt lat="44.41397" lon="4.06212">
        <ele>756</ele>
        <time>2014-05-29T08:53:17Z</time>
      </trkpt>
      <trkpt lat="44.4142" lon="4.06192">
        <ele>757</ele>
        <time>2014-05-29T08:53:33Z</time>
      </trkpt>
      <trkpt lat="44.41446" lon="4.06179">
        <ele>756</ele>
        <time>2014-05-29T08:53:50Z</time>
      </trkpt>
      <trkpt lat="44.41469" lon="4.06159">
        <ele>773</ele>
        <time>2014-05-29T08:54:04Z</time>
      </trkpt>
      <trkpt lat="44.41493" lon="4.06142">
        <ele>772</ele>
        <time>2014-05-29T08:54:13Z</time>
      </trkpt>
      <trkpt lat="44.41516" lon="4.06123">
        <ele>763</ele>
        <time>2014-05-29T08:54:26Z</time>
      </trkpt>
      <trkpt lat="44.4154" lon="4.06113">
        <ele>761</ele>
        <time>2014-05-29T08:54:34Z</time>
      </trkpt>
      <trkpt lat="44.41531" lon="4.06138">
        <ele>760</ele>
        <time>2014-05-29T08:54:42Z</time>
      </trkpt>
      <trkpt lat="44.41508" lon="4.06161">
        <ele>760</ele>
        <time>2014-05-29T08:54:56Z</time>
      </trkpt>
      <trkpt lat="44.41481" lon="4.06176">
        <ele>755</ele>
        <time>2014-05-29T08:55:11Z</time>
      </trkpt>
      <trkpt lat="44.41451" lon="4.06178">
        <ele>755</ele>
        <time>2014-05-29T08:55:27Z</time>
      </trkpt>
      <trkpt lat="44.41422" lon="4.06179">
        <ele>762</ele>
        <time>2014-05-29T08:55:44Z</time>
      </trkpt>
      <trkpt lat="44.41392" lon="4.06172">
        <ele>764</ele>
        <time>2014-05-29T08:56:04Z</time>
      </trkpt>
      <trkpt lat="44.41361" lon="4.06171">
        <ele>764</ele>
        <time>2014-05-29T08:56:24Z</time>
      </trkpt>
      <trkpt lat="44.41332" lon="4.06163">
        <ele>778</ele>
        <time>2014-05-29T08:56:44Z</time>
      </trkpt>
      <trkpt lat="44.41303" lon="4.06154">
        <ele>787</ele>
        <time>2014-05-29T08:57:07Z</time>
      </trkpt>
      <trkpt lat="44.41274" lon="4.06148">
        <ele>787</ele>
        <time>2014-05-29T08:57:26Z</time>
      </trkpt>
      <trkpt lat="44.41244" lon="4.06145">
        <ele>785</ele>
        <time>2014-05-29T08:57:45Z</time>
      </trkpt>
      <trkpt lat="44.41216" lon="4.06136">
        <ele>789</ele>
        <time>2014-05-29T08:58:03Z</time>
      </trkpt>
      <trkpt lat="44.41189" lon="4.06125">
        <ele>792</ele>
        <time>2014-05-29T08:58:22Z</time>
      </trkpt>
      <trkpt lat="44.41159" lon="4.06119">
        <ele>793</ele>
        <time>2014-05-29T08:58:40Z</time>
      </trkpt>
      <trkpt lat="44.41129" lon="4.06114">
        <ele>794</ele>
        <time>2014-05-29T08:59:00Z</time>
      </trkpt>
      <trkpt lat="44.411" lon="4.06113">
        <ele>795</ele>
        <time>2014-05-29T08:59:20Z</time>
      </trkpt>
      <trkpt lat="44.41071" lon="4.06114">
        <ele>797</ele>
        <time>2014-05-29T08:59:38Z</time>
      </trkpt>
      <trkpt lat="44.41043" lon="4.06116">
        <ele>797</ele>
        <time>2014-05-29T08:59:57Z</time>
      </trkpt>
      <trkpt lat="44.41013" lon="4.06116">
        <ele>797</ele>
        <time>2014-05-29T09:00:16Z</time>
      </trkpt>
      <trkpt lat="44.40982" lon="4.06118">
        <ele>800</ele>
        <time>2014-05-29T09:00:35Z</time>
      </trkpt>
      <trkpt lat="44.40953" lon="4.06128">
        <ele>800</ele>
        <time>2014-05-29T09:00:50Z</time>
      </trkpt>
      <trkpt lat="44.40927" lon="4.06146">
        <ele>800</ele>
        <time>2014-05-29T09:01:00Z</time>
      </trkpt>
      <trkpt lat="44.40906" lon="4.06167">
        <ele>798</ele>
        <time>2014-05-29T09:01:09Z</time>
      </trkpt>
      <trkpt lat="44.40889" lon="4.06149">
        <ele>797</ele>
        <time>2014-05-29T09:12:08Z</time>
      </trkpt>
      <trkpt lat="44.40874" lon="4.06105">
        <ele>797</ele>
        <time>2014-05-29T09:12:13Z</time>
      </trkpt>
      <trkpt lat="44.40888" lon="4.06076">
        <ele>797</ele>
        <time>2014-05-29T09:12:20Z</time>
      </trkpt>
      <trkpt lat="44.40908" lon="4.06052">
        <ele>797</ele>
        <time>2014-05-29T09:12:29Z</time>
      </trkpt>
      <trkpt lat="44.40939" lon="4.06036">
        <ele>803</ele>
        <time>2014-05-29T09:12:38Z</time>
      </trkpt>
      <trkpt lat="44.4097" lon="4.0602">
        <ele>804</ele>
        <time>2014-05-29T09:12:46Z</time>
      </trkpt>
      <trkpt lat="44.40986" lon="4.05995">
        <ele>803</ele>
        <time>2014-05-29T09:12:52Z</time>
      </trkpt>
      <trkpt lat="44.40997" lon="4.05968">
        <ele>801</ele>
        <time>2014-05-29T09:12:59Z</time>
      </trkpt>
      <trkpt lat="44.41013" lon="4.05937">
        <ele>812</ele>
        <time>2014-05-29T09:13:04Z</time>
      </trkpt>
      <trkpt lat="44.41028" lon="4.05906">
        <ele>816</ele>
        <time>2014-05-29T09:13:11Z</time>
      </trkpt>
      <trkpt lat="44.41013" lon="4.059">
        <ele>813</ele>
        <time>2014-05-29T09:13:17Z</time>
      </trkpt>
      <trkpt lat="44.40959" lon="4.05932">
        <ele>797</ele>
        <time>2014-05-29T09:13:21Z</time>
      </trkpt>
      <trkpt lat="44.40946" lon="4.05902">
        <ele>791</ele>
        <time>2014-05-29T09:13:26Z</time>
      </trkpt>
      <trkpt lat="44.40923" lon="4.05911">
        <ele>785</ele>
        <time>2014-05-29T09:13:31Z</time>
      </trkpt>
      <trkpt lat="44.40912" lon="4.05875">
        <ele>771</ele>
        <time>2014-05-29T09:13:35Z</time>
      </trkpt>
      <trkpt lat="44.40896" lon="4.05836">
        <ele>771</ele>
        <time>2014-05-29T09:13:40Z</time>
      </trkpt>
      <trkpt lat="44.40878" lon="4.05805">
        <ele>763</ele>
        <time>2014-05-29T09:13:44Z</time>
      </trkpt>
      <trkpt lat="44.40854" lon="4.05779">
        <ele>757</ele>
        <time>2014-05-29T09:13:49Z</time>
      </trkpt>
      <trkpt lat="44.40846" lon="4.05743">
        <ele>755</ele>
        <time>2014-05-29T09:13:52Z</time>
      </trkpt>
      <trkpt lat="44.4084" lon="4.05705">
        <ele>763</ele>
        <time>2014-05-29T09:13:57Z</time>
      </trkpt>
      <trkpt lat="44.40835" lon="4.05673">
        <ele>760</ele>
        <time>2014-05-29T09:14:03Z</time>
      </trkpt>
      <trkpt lat="44.40839" lon="4.05642">
        <ele>772</ele>
        <time>2014-05-29T09:14:11Z</time>
      </trkpt>
      <trkpt lat="44.40856" lon="4.05616">
        <ele>778</ele>
        <time>2014-05-29T09:14:19Z</time>
      </trkpt>
      <trkpt lat="44.40869" lon="4.05593">
        <ele>782</ele>
        <time>2014-05-29T09:14:23Z</time>
      </trkpt>
      <trkpt lat="44.40891" lon="4.05561">
        <ele>790</ele>
        <time>2014-05-29T09:14:27Z</time>
      </trkpt>
      <trkpt lat="44.40915" lon="4.05538">
        <ele>791</ele>
        <time>2014-05-29T09:14:33Z</time>
      </trkpt>
      <trkpt lat="44.40936" lon="4.05514">
        <ele>809</ele>
        <time>2014-05-29T09:14:40Z</time>
      </trkpt>
      <trkpt lat="44.40966" lon="4.05496">
        <ele>805</ele>
        <time>2014-05-29T09:14:49Z</time>
      </trkpt>
      <trkpt lat="44.40995" lon="4.05481">
        <ele>810</ele>
        <time>2014-05-29T09:14:57Z</time>
      </trkpt>
      <trkpt lat="44.41017" lon="4.05462">
        <ele>816</ele>
        <time>2014-05-29T09:15:05Z</time>
      </trkpt>
      <trkpt lat="44.41041" lon="4.05445">
        <ele>815</ele>
        <time>2014-05-29T09:15:15Z</time>
      </trkpt>
      <trkpt lat="44.41071" lon="4.05426">
        <ele>813</ele>
        <time>2014-05-29T09:15:27Z</time>
      </trkpt>
      <trkpt lat="44.41098" lon="4.05408">
        <ele>806</ele>
        <time>2014-05-29T09:15:39Z</time>
      </trkpt>
      <trkpt lat="44.4112" lon="4.05415">
        <ele>805</ele>
        <time>2014-05-29T09:15:50Z</time>
      </trkpt>
      <trkpt lat="44.41149" lon="4.05395">
        <ele>805</ele>
        <time>2014-05-29T09:16:05Z</time>
      </trkpt>
      <trkpt lat="44.41177" lon="4.0537">
        <ele>807</ele>
        <time>2014-05-29T09:16:18Z</time>
      </trkpt>
      <trkpt lat="44.41202" lon="4.05353">
        <ele>807</ele>
        <time>2014-05-29T09:16:33Z</time>
      </trkpt>
      <trkpt lat="44.4123" lon="4.05333">
        <ele>803</ele>
        <time>2014-05-29T09:16:53Z</time>
      </trkpt>
      <trkpt lat="44.41241" lon="4.05297">
        <ele>799</ele>
        <time>2014-05-29T09:17:07Z</time>
      </trkpt>
      <trkpt lat="44.41259" lon="4.05273">
        <ele>812</ele>
        <time>2014-05-29T09:17:21Z</time>
      </trkpt>
      <trkpt lat="44.41288" lon="4.05262">
        <ele>818</ele>
        <time>2014-05-29T09:17:40Z</time>
      </trkpt>
      <trkpt lat="44.41312" lon="4.05248">
        <ele>816</ele>
        <time>2014-05-29T09:17:58Z</time>
      </trkpt>
      <trkpt lat="44.41338" lon="4.05236">
        <ele>830</ele>
        <time>2014-05-29T09:18:16Z</time>
      </trkpt>
      <trkpt lat="44.41368" lon="4.05227">
        <ele>832</ele>
        <time>2014-05-29T09:18:38Z</time>
      </trkpt>
      <trkpt lat="44.41387" lon="4.05247">
        <ele>838</ele>
        <time>2014-05-29T09:18:56Z</time>
      </trkpt>
      <trkpt lat="44.41391" lon="4.05266">
        <ele>849</ele>
        <time>2014-05-29T09:19:03Z</time>
      </trkpt>
      <trkpt lat="44.41399" lon="4.05249">
        <ele>843</ele>
        <time>2014-05-29T09:19:09Z</time>
      </trkpt>
      <trkpt lat="44.41412" lon="4.05225">
        <ele>839</ele>
        <time>2014-05-29T09:19:15Z</time>
      </trkpt>
      <trkpt lat="44.41427" lon="4.05203">
        <ele>848</ele>
        <time>2014-05-29T09:19:24Z</time>
      </trkpt>
      <trkpt lat="44.41439" lon="4.05187">
        <ele>846</ele>
        <time>2014-05-29T09:19:32Z</time>
      </trkpt>
      <trkpt lat="44.41448" lon="4.05164">
        <ele>834</ele>
        <time>2014-05-29T09:19:42Z</time>
      </trkpt>
      <trkpt lat="44.41485" lon="4.05116">
        <ele>834</ele>
        <time>2014-05-29T09:19:44Z</time>
      </trkpt>
      <trkpt lat="44.41546" lon="4.05019">
        <ele>836</ele>
        <time>2014-05-29T09:19:48Z</time>
      </trkpt>
      <trkpt lat="44.41559" lon="4.05042">
        <ele>839</ele>
        <time>2014-05-29T09:19:58Z</time>
      </trkpt>
      <trkpt lat="44.41584" lon="4.05026">
        <ele>852</ele>
        <time>2014-05-29T09:20:11Z</time>
      </trkpt>
      <trkpt lat="44.41605" lon="4.05006">
        <ele>852</ele>
        <time>2014-05-29T09:20:23Z</time>
      </trkpt>
      <trkpt lat="44.41648" lon="4.04763">
        <ele>845</ele>
        <time>2014-05-29T09:20:31Z</time>
      </trkpt>
      <trkpt lat="44.41649" lon="4.0475">
        <ele>844</ele>
        <time>2014-05-29T09:20:34Z</time>
      </trkpt>
      <trkpt lat="44.41644" lon="4.04775">
        <ele>845</ele>
        <time>2014-05-29T09:20:37Z</time>
      </trkpt>
      <trkpt lat="44.41628" lon="4.04836">
        <ele>849</ele>
        <time>2014-05-29T09:20:42Z</time>
      </trkpt>
      <trkpt lat="44.41618" lon="4.04888">
        <ele>848</ele>
        <time>2014-05-29T09:20:48Z</time>
      </trkpt>
      <trkpt lat="44.41632" lon="4.04881">
        <ele>851</ele>
        <time>2014-05-29T09:21:07Z</time>
      </trkpt>
      <trkpt lat="44.41657" lon="4.04797">
        <ele>848</ele>
        <time>2014-05-29T09:21:22Z</time>
      </trkpt>
      <trkpt lat="44.41671" lon="4.0477">
        <ele>858</ele>
        <time>2014-05-29T09:21:31Z</time>
      </trkpt>
      <trkpt lat="44.41691" lon="4.04724">
        <ele>855</ele>
        <time>2014-05-29T09:21:39Z</time>
      </trkpt>
      <trkpt lat="44.41703" lon="4.0469">
        <ele>855</ele>
        <time>2014-05-29T09:21:43Z</time>
      </trkpt>
      <trkpt lat="44.41714" lon="4.04675">
        <ele>856</ele>
        <time>2014-05-29T09:21:48Z</time>
      </trkpt>
      <trkpt lat="44.41735" lon="4.04651">
        <ele>858</ele>
        <time>2014-05-29T09:21:57Z</time>
      </trkpt>
      <trkpt lat="44.41747" lon="4.04619">
        <ele>859</ele>
        <time>2014-05-29T09:22:04Z</time>
      </trkpt>
      <trkpt lat="44.41763" lon="4.04592">
        <ele>867</ele>
        <time>2014-05-29T09:22:11Z</time>
      </trkpt>
      <trkpt lat="44.41782" lon="4.04565">
        <ele>876</ele>
        <time>2014-05-29T09:22:19Z</time>
      </trkpt>
      <trkpt lat="44.41785" lon="4.04594">
        <ele>868</ele>
        <time>2014-05-29T09:22:25Z</time>
      </trkpt>
      <trkpt lat="44.41801" lon="4.04589">
        <ele>869</ele>
        <time>2014-05-29T09:22:34Z</time>
      </trkpt>
      <trkpt lat="44.41823" lon="4.04569">
        <ele>877</ele>
        <time>2014-05-29T09:22:48Z</time>
      </trkpt>
      <trkpt lat="44.41843" lon="4.04546">
        <ele>871</ele>
        <time>2014-05-29T09:23:00Z</time>
      </trkpt>
      <trkpt lat="44.41869" lon="4.04524">
        <ele>869</ele>
        <time>2014-05-29T09:23:22Z</time>
      </trkpt>
      <trkpt lat="44.41879" lon="4.04493">
        <ele>882</ele>
        <time>2014-05-29T09:23:34Z</time>
      </trkpt>
      <trkpt lat="44.41877" lon="4.04462">
        <ele>887</ele>
        <time>2014-05-29T09:23:45Z</time>
      </trkpt>
      <trkpt lat="44.41867" lon="4.04433">
        <ele>893</ele>
        <time>2014-05-29T09:23:56Z</time>
      </trkpt>
      <trkpt lat="44.41841" lon="4.04418">
        <ele>906</ele>
        <time>2014-05-29T09:24:10Z</time>
      </trkpt>
      <trkpt lat="44.41812" lon="4.04418">
        <ele>907</ele>
        <time>2014-05-29T09:24:23Z</time>
      </trkpt>
      <trkpt lat="44.41787" lon="4.04406">
        <ele>920</ele>
        <time>2014-05-29T09:24:36Z</time>
      </trkpt>
      <trkpt lat="44.41766" lon="4.04394">
        <ele>920</ele>
        <time>2014-05-29T09:24:49Z</time>
      </trkpt>
      <trkpt lat="44.41744" lon="4.04388">
        <ele>915</ele>
        <time>2014-05-29T09:25:02Z</time>
      </trkpt>
      <trkpt lat="44.41724" lon="4.04368">
        <ele>916</ele>
        <time>2014-05-29T09:25:15Z</time>
      </trkpt>
      <trkpt lat="44.41695" lon="4.04363">
        <ele>913</ele>
        <time>2014-05-29T09:25:30Z</time>
      </trkpt>
      <trkpt lat="44.41667" lon="4.04371">
        <ele>910</ele>
        <time>2014-05-29T09:25:45Z</time>
      </trkpt>
      <trkpt lat="44.41635" lon="4.04371">
        <ele>900</ele>
        <time>2014-05-29T09:25:57Z</time>
      </trkpt>
      <trkpt lat="44.41606" lon="4.04368">
        <ele>897</ele>
        <time>2014-05-29T09:26:12Z</time>
      </trkpt>
      <trkpt lat="44.41597" lon="4.04341">
        <ele>895</ele>
        <time>2014-05-29T09:26:31Z</time>
      </trkpt>
      <trkpt lat="44.41617" lon="4.0431">
        <ele>896</ele>
        <time>2014-05-29T09:26:40Z</time>
      </trkpt>
      <trkpt lat="44.41639" lon="4.04281">
        <ele>898</ele>
        <time>2014-05-29T09:26:47Z</time>
      </trkpt>
      <trkpt lat="44.41653" lon="4.04251">
        <ele>902</ele>
        <time>2014-05-29T09:26:52Z</time>
      </trkpt>
      <trkpt lat="44.41664" lon="4.04217">
        <ele>895</ele>
        <time>2014-05-29T09:26:55Z</time>
      </trkpt>
      <trkpt lat="44.41674" lon="4.04184">
        <ele>912</ele>
        <time>2014-05-29T09:27:00Z</time>
      </trkpt>
      <trkpt lat="44.41681" lon="4.04148">
        <ele>914</ele>
        <time>2014-05-29T09:27:06Z</time>
      </trkpt>
      <trkpt lat="44.41686" lon="4.04115">
        <ele>917</ele>
        <time>2014-05-29T09:27:11Z</time>
      </trkpt>
      <trkpt lat="44.41691" lon="4.04073">
        <ele>919</ele>
        <time>2014-05-29T09:27:22Z</time>
      </trkpt>
      <trkpt lat="44.41673" lon="4.04071">
        <ele>913</ele>
        <time>2014-05-29T09:27:28Z</time>
      </trkpt>
      <trkpt lat="44.41658" lon="4.04042">
        <ele>897</ele>
        <time>2014-05-29T09:27:34Z</time>
      </trkpt>
      <trkpt lat="44.41638" lon="4.04017">
        <ele>896</ele>
        <time>2014-05-29T09:27:43Z</time>
      </trkpt>
      <trkpt lat="44.41616" lon="4.03989">
        <ele>900</ele>
        <time>2014-05-29T09:27:52Z</time>
      </trkpt>
      <trkpt lat="44.4159" lon="4.0397">
        <ele>897</ele>
        <time>2014-05-29T09:28:01Z</time>
      </trkpt>
      <trkpt lat="44.41569" lon="4.03944">
        <ele>880</ele>
        <time>2014-05-29T09:28:10Z</time>
      </trkpt>
      <trkpt lat="44.41567" lon="4.03911">
        <ele>889</ele>
        <time>2014-05-29T09:28:17Z</time>
      </trkpt>
      <trkpt lat="44.41576" lon="4.03876">
        <ele>888</ele>
        <time>2014-05-29T09:28:20Z</time>
      </trkpt>
      <trkpt lat="44.41595" lon="4.03824">
        <ele>900</ele>
        <time>2014-05-29T09:28:24Z</time>
      </trkpt>
      <trkpt lat="44.4162" lon="4.03786">
        <ele>900</ele>
        <time>2014-05-29T09:28:28Z</time>
      </trkpt>
      <trkpt lat="44.41641" lon="4.0375">
        <ele>888</ele>
        <time>2014-05-29T09:28:32Z</time>
      </trkpt>
      <trkpt lat="44.41665" lon="4.03723">
        <ele>886</ele>
        <time>2014-05-29T09:28:38Z</time>
      </trkpt>
      <trkpt lat="44.4169" lon="4.03707">
        <ele>891</ele>
        <time>2014-05-29T09:28:42Z</time>
      </trkpt>
      <trkpt lat="44.41716" lon="4.03678">
        <ele>888</ele>
        <time>2014-05-29T09:28:47Z</time>
      </trkpt>
      <trkpt lat="44.41743" lon="4.03654">
        <ele>876</ele>
        <time>2014-05-29T09:28:52Z</time>
      </trkpt>
      <trkpt lat="44.41775" lon="4.03637">
        <ele>881</ele>
        <time>2014-05-29T09:28:58Z</time>
      </trkpt>
      <trkpt lat="44.41817" lon="4.03625">
        <ele>884</ele>
        <time>2014-05-29T09:29:06Z</time>
      </trkpt>
      <trkpt lat="44.41853" lon="4.03578">
        <ele>882</ele>
        <time>2014-05-29T09:29:13Z</time>
      </trkpt>
      <trkpt lat="44.4187" lon="4.03543">
        <ele>881</ele>
        <time>2014-05-29T09:29:18Z</time>
      </trkpt>
      <trkpt lat="44.41877" lon="4.03512">
        <ele>879</ele>
        <time>2014-05-29T09:29:22Z</time>
      </trkpt>
      <trkpt lat="44.41886" lon="4.0348">
        <ele>869</ele>
        <time>2014-05-29T09:29:26Z</time>
      </trkpt>
      <trkpt lat="44.41895" lon="4.03451">
        <ele>866</ele>
        <time>2014-05-29T09:29:30Z</time>
      </trkpt>
      <trkpt lat="44.41912" lon="4.03427">
        <ele>865</ele>
        <time>2014-05-29T09:29:35Z</time>
      </trkpt>
      <trkpt lat="44.41945" lon="4.03431">
        <ele>871</ele>
        <time>2014-05-29T09:29:41Z</time>
      </trkpt>
      <trkpt lat="44.41973" lon="4.03431">
        <ele>872</ele>
        <time>2014-05-29T09:29:47Z</time>
      </trkpt>
      <trkpt lat="44.41993" lon="4.03428">
        <ele>871</ele>
        <time>2014-05-29T09:29:54Z</time>
      </trkpt>
      <trkpt lat="44.42007" lon="4.03433">
        <ele>869</ele>
        <time>2014-05-29T09:30:10Z</time>
      </trkpt>
      <trkpt lat="44.42035" lon="4.03415">
        <ele>869</ele>
        <time>2014-05-29T09:30:15Z</time>
      </trkpt>
      <trkpt lat="44.42069" lon="4.03395">
        <ele>871</ele>
        <time>2014-05-29T09:30:28Z</time>
      </trkpt>
      <trkpt lat="44.42092" lon="4.03377">
        <ele>872</ele>
        <time>2014-05-29T09:30:43Z</time>
      </trkpt>
      <trkpt lat="44.421" lon="4.03366">
        <ele>873</ele>
        <time>2014-05-29T09:31:18Z</time>
      </trkpt>
      <trkpt lat="44.42114" lon="4.03317">
        <ele>882</ele>
        <time>2014-05-29T09:34:24Z</time>
      </trkpt>
      <trkpt lat="44.4212" lon="4.0324">
        <ele>889</ele>
        <time>2014-05-29T09:34:37Z</time>
      </trkpt>
      <trkpt lat="44.42108" lon="4.03218">
        <ele>888</ele>
        <time>2014-05-29T09:35:04Z</time>
      </trkpt>
      <trkpt lat="44.42102" lon="4.03222">
        <ele>888</ele>
        <time>2014-05-29T09:35:20Z</time>
      </trkpt>
      <trkpt lat="44.42084" lon="4.03247">
        <ele>884</ele>
        <time>2014-05-29T09:35:29Z</time>
      </trkpt>
      <trkpt lat="44.42069" lon="4.03243">
        <ele>877</ele>
        <time>2014-05-29T09:35:40Z</time>
      </trkpt>
      <trkpt lat="44.42068" lon="4.03208">
        <ele>873</ele>
        <time>2014-05-29T09:35:44Z</time>
      </trkpt>
      <trkpt lat="44.42072" lon="4.03166">
        <ele>877</ele>
        <time>2014-05-29T09:35:48Z</time>
      </trkpt>
      <trkpt lat="44.42065" lon="4.03134">
        <ele>876</ele>
        <time>2014-05-29T09:35:57Z</time>
      </trkpt>
      <trkpt lat="44.42061" lon="4.03102">
        <ele>877</ele>
        <time>2014-05-29T09:36:01Z</time>
      </trkpt>
      <trkpt lat="44.42057" lon="4.03047">
        <ele>887</ele>
        <time>2014-05-29T09:36:08Z</time>
      </trkpt>
      <trkpt lat="44.42032" lon="4.03041">
        <ele>885</ele>
        <time>2014-05-29T09:36:16Z</time>
      </trkpt>
      <trkpt lat="44.42003" lon="4.03036">
        <ele>884</ele>
        <time>2014-05-29T09:36:25Z</time>
      </trkpt>
      <trkpt lat="44.41977" lon="4.03027">
        <ele>870</ele>
        <time>2014-05-29T09:36:35Z</time>
      </trkpt>
      <trkpt lat="44.41963" lon="4.03003">
        <ele>870</ele>
        <time>2014-05-29T09:36:38Z</time>
      </trkpt>
      <trkpt lat="44.41963" lon="4.02957">
        <ele>880</ele>
        <time>2014-05-29T09:36:41Z</time>
      </trkpt>
      <trkpt lat="44.41947" lon="4.02919">
        <ele>880</ele>
        <time>2014-05-29T09:36:47Z</time>
      </trkpt>
      <trkpt lat="44.4192" lon="4.02894">
        <ele>882</ele>
        <time>2014-05-29T09:36:57Z</time>
      </trkpt>
      <trkpt lat="44.41908" lon="4.02865">
        <ele>871</ele>
        <time>2014-05-29T09:37:05Z</time>
      </trkpt>
      <trkpt lat="44.41895" lon="4.02828">
        <ele>872</ele>
        <time>2014-05-29T09:37:13Z</time>
      </trkpt>
      <trkpt lat="44.41893" lon="4.02779">
        <ele>872</ele>
        <time>2014-05-29T09:37:17Z</time>
      </trkpt>
      <trkpt lat="44.41882" lon="4.02737">
        <ele>875</ele>
        <time>2014-05-29T09:37:22Z</time>
      </trkpt>
      <trkpt lat="44.41868" lon="4.02709">
        <ele>873</ele>
        <time>2014-05-29T09:37:27Z</time>
      </trkpt>
      <trkpt lat="44.41855" lon="4.02684">
        <ele>871</ele>
        <time>2014-05-29T09:37:33Z</time>
      </trkpt>
      <trkpt lat="44.41849" lon="4.0265">
        <ele>875</ele>
        <time>2014-05-29T09:37:47Z</time>
      </trkpt>
      <trkpt lat="44.41842" lon="4.02623">
        <ele>879</ele>
        <time>2014-05-29T09:37:56Z</time>
      </trkpt>
      <trkpt lat="44.41817" lon="4.02604">
        <ele>864</ele>
        <time>2014-05-29T09:38:06Z</time>
      </trkpt>
      <trkpt lat="44.41787" lon="4.02599">
        <ele>858</ele>
        <time>2014-05-29T09:38:14Z</time>
      </trkpt>
      <trkpt lat="44.41758" lon="4.02597">
        <ele>853</ele>
        <time>2014-05-29T09:38:26Z</time>
      </trkpt>
      <trkpt lat="44.41743" lon="4.02572">
        <ele>847</ele>
        <time>2014-05-29T09:38:39Z</time>
      </trkpt>
      <trkpt lat="44.4178" lon="4.0238">
        <ele>876</ele>
        <time>2014-05-29T09:38:50Z</time>
      </trkpt>
      <trkpt lat="44.41776" lon="4.0235">
        <ele>876</ele>
        <time>2014-05-29T09:39:02Z</time>
      </trkpt>
      <trkpt lat="44.41776" lon="4.02346">
        <ele>876</ele>
        <time>2014-05-29T09:39:12Z</time>
      </trkpt>
      <trkpt lat="44.41778" lon="4.02338">
        <ele>876</ele>
        <time>2014-05-29T09:39:29Z</time>
      </trkpt>
      <trkpt lat="44.41782" lon="4.02325">
        <ele>876</ele>
        <time>2014-05-29T09:39:32Z</time>
      </trkpt>
      <trkpt lat="44.41754" lon="4.02323">
        <ele>872</ele>
        <time>2014-05-29T09:41:26Z</time>
      </trkpt>
      <trkpt lat="44.41697" lon="4.02336">
        <ele>856</ele>
        <time>2014-05-29T09:41:32Z</time>
      </trkpt>
      <trkpt lat="44.41679" lon="4.02328">
        <ele>855</ele>
        <time>2014-05-29T09:41:39Z</time>
      </trkpt>
      <trkpt lat="44.41689" lon="4.02292">
        <ele>859</ele>
        <time>2014-05-29T09:41:43Z</time>
      </trkpt>
      <trkpt lat="44.41677" lon="4.02281">
        <ele>859</ele>
        <time>2014-05-29T09:41:52Z</time>
      </trkpt>
      <trkpt lat="44.4168" lon="4.02277">
        <ele>859</ele>
        <time>2014-05-29T09:42:19Z</time>
      </trkpt>
      <trkpt lat="44.41707" lon="4.02303">
        <ele>861</ele>
        <time>2014-05-29T09:42:34Z</time>
      </trkpt>
      <trkpt lat="44.41754" lon="4.02266">
        <ele>872</ele>
        <time>2014-05-29T09:42:39Z</time>
      </trkpt>
      <trkpt lat="44.41789" lon="4.02242">
        <ele>866</ele>
        <time>2014-05-29T09:42:55Z</time>
      </trkpt>
      <trkpt lat="44.41811" lon="4.0221">
        <ele>864</ele>
        <time>2014-05-29T09:43:12Z</time>
      </trkpt>
      <trkpt lat="44.41817" lon="4.02197">
        <ele>862</ele>
        <time>2014-05-29T09:43:17Z</time>
      </trkpt>
      <trkpt lat="44.41767" lon="4.0221">
        <ele>862</ele>
        <time>2014-05-29T09:44:10Z</time>
      </trkpt>
      <trkpt lat="44.41706" lon="4.02209">
        <ele>854</ele>
        <time>2014-05-29T09:44:31Z</time>
      </trkpt>
      <trkpt lat="44.41683" lon="4.02218">
        <ele>854</ele>
        <time>2014-05-29T09:44:38Z</time>
      </trkpt>
      <trkpt lat="44.41655" lon="4.02218">
        <ele>846</ele>
        <time>2014-05-29T09:44:46Z</time>
      </trkpt>
      <trkpt lat="44.41627" lon="4.02235">
        <ele>845</ele>
        <time>2014-05-29T09:44:53Z</time>
      </trkpt>
      <trkpt lat="44.416" lon="4.02255">
        <ele>844</ele>
        <time>2014-05-29T09:44:58Z</time>
      </trkpt>
      <trkpt lat="44.4157" lon="4.02266">
        <ele>842</ele>
        <time>2014-05-29T09:45:04Z</time>
      </trkpt>
      <trkpt lat="44.41547" lon="4.02294">
        <ele>842</ele>
        <time>2014-05-29T09:45:10Z</time>
      </trkpt>
      <trkpt lat="44.41526" lon="4.02321">
        <ele>842</ele>
        <time>2014-05-29T09:45:15Z</time>
      </trkpt>
      <trkpt lat="44.41504" lon="4.02347">
        <ele>840</ele>
        <time>2014-05-29T09:45:25Z</time>
      </trkpt>
      <trkpt lat="44.41491" lon="4.02376">
        <ele>846</ele>
        <time>2014-05-29T09:45:34Z</time>
      </trkpt>
      <trkpt lat="44.41479" lon="4.02406">
        <ele>845</ele>
        <time>2014-05-29T09:45:43Z</time>
      </trkpt>
      <trkpt lat="44.41491" lon="4.02376">
        <ele>846</ele>
        <time>2014-05-29T09:45:50Z</time>
      </trkpt>
      <trkpt lat="44.41502" lon="4.02351">
        <ele>840</ele>
        <time>2014-05-29T09:45:54Z</time>
      </trkpt>
      <trkpt lat="44.41514" lon="4.02324">
        <ele>842</ele>
        <time>2014-05-29T09:45:58Z</time>
      </trkpt>
      <trkpt lat="44.41532" lon="4.02285">
        <ele>842</ele>
        <time>2014-05-29T09:45:59Z</time>
      </trkpt>
      <trkpt lat="44.41543" lon="4.02261">
        <ele>842</ele>
        <time>2014-05-29T09:46:20Z</time>
      </trkpt>
      <trkpt lat="44.41553" lon="4.02239">
        <ele>841</ele>
        <time>2014-05-29T09:46:52Z</time>
      </trkpt>
      <trkpt lat="44.41511" lon="4.02205">
        <ele>841</ele>
        <time>2014-05-29T09:47:28Z</time>
      </trkpt>
      <trkpt lat="44.41489" lon="4.02207">
        <ele>852</ele>
        <time>2014-05-29T09:47:49Z</time>
      </trkpt>
      <trkpt lat="44.41485" lon="4.02215">
        <ele>853</ele>
        <time>2014-05-29T09:48:07Z</time>
      </trkpt>
      <trkpt lat="44.41491" lon="4.02213">
        <ele>852</ele>
        <time>2014-05-29T09:48:32Z</time>
      </trkpt>
      <trkpt lat="44.41494" lon="4.02212">
        <ele>852</ele>
        <time>2014-05-29T09:48:54Z</time>
      </trkpt>
      <trkpt lat="44.41494" lon="4.02221">
        <ele>852</ele>
        <time>2014-05-29T09:49:13Z</time>
      </trkpt>
      <trkpt lat="44.41491" lon="4.02236">
        <ele>850</ele>
        <time>2014-05-29T09:49:21Z</time>
      </trkpt>
      <trkpt lat="44.41475" lon="4.02279">
        <ele>854</ele>
        <time>2014-05-29T09:49:25Z</time>
      </trkpt>
      <trkpt lat="44.41446" lon="4.02339">
        <ele>854</ele>
        <time>2014-05-29T09:49:35Z</time>
      </trkpt>
      <trkpt lat="44.41428" lon="4.02368">
        <ele>854</ele>
        <time>2014-05-29T09:49:46Z</time>
      </trkpt>
      <trkpt lat="44.41414" lon="4.02397">
        <ele>857</ele>
        <time>2014-05-29T09:49:52Z</time>
      </trkpt>
      <trkpt lat="44.41402" lon="4.02423">
        <ele>849</ele>
        <time>2014-05-29T09:50:01Z</time>
      </trkpt>
      <trkpt lat="44.41397" lon="4.0239">
        <ele>859</ele>
        <time>2014-05-29T09:50:12Z</time>
      </trkpt>
      <trkpt lat="44.41386" lon="4.0236">
        <ele>862</ele>
        <time>2014-05-29T09:50:22Z</time>
      </trkpt>
      <trkpt lat="44.4137" lon="4.0233">
        <ele>872</ele>
        <time>2014-05-29T09:50:37Z</time>
      </trkpt>
      <trkpt lat="44.41349" lon="4.02307">
        <ele>873</ele>
        <time>2014-05-29T09:50:50Z</time>
      </trkpt>
      <trkpt lat="44.41325" lon="4.02291">
        <ele>877</ele>
        <time>2014-05-29T09:51:02Z</time>
      </trkpt>
      <trkpt lat="44.41298" lon="4.02275">
        <ele>878</ele>
        <time>2014-05-29T09:51:14Z</time>
      </trkpt>
      <trkpt lat="44.41273" lon="4.0226">
        <ele>879</ele>
        <time>2014-05-29T09:51:28Z</time>
      </trkpt>
      <trkpt lat="44.41242" lon="4.02245">
        <ele>884</ele>
        <time>2014-05-29T09:51:41Z</time>
      </trkpt>
      <trkpt lat="44.41218" lon="4.02232">
        <ele>882</ele>
        <time>2014-05-29T09:51:53Z</time>
      </trkpt>
      <trkpt lat="44.41208" lon="4.02207">
        <ele>883</ele>
        <time>2014-05-29T09:52:02Z</time>
      </trkpt>
      <trkpt lat="44.41201" lon="4.02176">
        <ele>884</ele>
        <time>2014-05-29T09:52:14Z</time>
      </trkpt>
      <trkpt lat="44.412" lon="4.02138">
        <ele>890</ele>
        <time>2014-05-29T09:52:23Z</time>
      </trkpt>
      <trkpt lat="44.41195" lon="4.02104">
        <ele>892</ele>
        <time>2014-05-29T09:52:32Z</time>
      </trkpt>
      <trkpt lat="44.41172" lon="4.02083">
        <ele>893</ele>
        <time>2014-05-29T09:52:44Z</time>
      </trkpt>
      <trkpt lat="44.41147" lon="4.02068">
        <ele>895</ele>
        <time>2014-05-29T09:52:55Z</time>
      </trkpt>
      <trkpt lat="44.41126" lon="4.02044">
        <ele>895</ele>
        <time>2014-05-29T09:53:04Z</time>
      </trkpt>
      <trkpt lat="44.4111" lon="4.02023">
        <ele>897</ele>
        <time>2014-05-29T09:53:13Z</time>
      </trkpt>
      <trkpt lat="44.41094" lon="4.01994">
        <ele>903</ele>
        <time>2014-05-29T09:53:23Z</time>
      </trkpt>
      <trkpt lat="44.41074" lon="4.01972">
        <ele>903</ele>
        <time>2014-05-29T09:53:34Z</time>
      </trkpt>
      <trkpt lat="44.4105" lon="4.01952">
        <ele>905</ele>
        <time>2014-05-29T09:53:44Z</time>
      </trkpt>
      <trkpt lat="44.41031" lon="4.01925">
        <ele>906</ele>
        <time>2014-05-29T09:53:55Z</time>
      </trkpt>
      <trkpt lat="44.41005" lon="4.0191">
        <ele>908</ele>
        <time>2014-05-29T09:54:07Z</time>
      </trkpt>
      <trkpt lat="44.40983" lon="4.01888">
        <ele>905</ele>
        <time>2014-05-29T09:54:21Z</time>
      </trkpt>
      <trkpt lat="44.40958" lon="4.01871">
        <ele>904</ele>
        <time>2014-05-29T09:54:40Z</time>
      </trkpt>
      <trkpt lat="44.40931" lon="4.01854">
        <ele>905</ele>
        <time>2014-05-29T09:54:54Z</time>
      </trkpt>
      <trkpt lat="44.40898" lon="4.01849">
        <ele>907</ele>
        <time>2014-05-29T09:55:06Z</time>
      </trkpt>
      <trkpt lat="44.40866" lon="4.01853">
        <ele>909</ele>
        <time>2014-05-29T09:55:18Z</time>
      </trkpt>
      <trkpt lat="44.40838" lon="4.01859">
        <ele>911</ele>
        <time>2014-05-29T09:55:34Z</time>
      </trkpt>
      <trkpt lat="44.40807" lon="4.01855">
        <ele>916</ele>
        <time>2014-05-29T09:55:43Z</time>
      </trkpt>
      <trkpt lat="44.40776" lon="4.01845">
        <ele>920</ele>
        <time>2014-05-29T09:55:54Z</time>
      </trkpt>
      <trkpt lat="44.40748" lon="4.01828">
        <ele>932</ele>
        <time>2014-05-29T09:56:06Z</time>
      </trkpt>
      <trkpt lat="44.40718" lon="4.01819">
        <ele>937</ele>
        <time>2014-05-29T09:56:19Z</time>
      </trkpt>
      <trkpt lat="44.40693" lon="4.01839">
        <ele>934</ele>
        <time>2014-05-29T09:56:28Z</time>
      </trkpt>
      <trkpt lat="44.40672" lon="4.01867">
        <ele>932</ele>
        <time>2014-05-29T09:56:31Z</time>
      </trkpt>
      <trkpt lat="44.40641" lon="4.01879">
        <ele>943</ele>
        <time>2014-05-29T09:56:41Z</time>
      </trkpt>
      <trkpt lat="44.40612" lon="4.0189">
        <ele>945</ele>
        <time>2014-05-29T09:56:52Z</time>
      </trkpt>
      <trkpt lat="44.40587" lon="4.0191">
        <ele>946</ele>
        <time>2014-05-29T09:57:03Z</time>
      </trkpt>
      <trkpt lat="44.40567" lon="4.01936">
        <ele>949</ele>
        <time>2014-05-29T09:57:14Z</time>
      </trkpt>
      <trkpt lat="44.40551" lon="4.01965">
        <ele>948</ele>
        <time>2014-05-29T09:57:25Z</time>
      </trkpt>
      <trkpt lat="44.40537" lon="4.01997">
        <ele>949</ele>
        <time>2014-05-29T09:57:36Z</time>
      </trkpt>
      <trkpt lat="44.40528" lon="4.02027">
        <ele>944</ele>
        <time>2014-05-29T09:57:48Z</time>
      </trkpt>
      <trkpt lat="44.40513" lon="4.02055">
        <ele>944</ele>
        <time>2014-05-29T09:57:59Z</time>
      </trkpt>
      <trkpt lat="44.4049" lon="4.02057">
        <ele>947</ele>
        <time>2014-05-29T09:58:11Z</time>
      </trkpt>
      <trkpt lat="44.40475" lon="4.02035">
        <ele>947</ele>
        <time>2014-05-29T09:58:31Z</time>
      </trkpt>
      <trkpt lat="44.40471" lon="4.02003">
        <ele>948</ele>
        <time>2014-05-29T09:58:54Z</time>
      </trkpt>
      <trkpt lat="44.40482" lon="4.01977">
        <ele>953</ele>
        <time>2014-05-29T09:59:11Z</time>
      </trkpt>
      <trkpt lat="44.40502" lon="4.01954">
        <ele>953</ele>
        <time>2014-05-29T09:59:49Z</time>
      </trkpt>
      <trkpt lat="44.4051" lon="4.01956">
        <ele>953</ele>
        <time>2014-05-29T10:00:15Z</time>
      </trkpt>
      <trkpt lat="44.40495" lon="4.01984">
        <ele>953</ele>
        <time>2014-05-29T10:00:29Z</time>
      </trkpt>
      <trkpt lat="44.40486" lon="4.02001">
        <ele>950</ele>
        <time>2014-05-29T10:00:37Z</time>
      </trkpt>
      <trkpt lat="44.40476" lon="4.0203">
        <ele>948</ele>
        <time>2014-05-29T10:00:43Z</time>
      </trkpt>
      <trkpt lat="44.40463" lon="4.02065">
        <ele>946</ele>
        <time>2014-05-29T10:00:45Z</time>
      </trkpt>
      <trkpt lat="44.40457" lon="4.0208">
        <ele>945</ele>
        <time>2014-05-29T10:00:48Z</time>
      </trkpt>
      <trkpt lat="44.40449" lon="4.02095">
        <ele>943</ele>
        <time>2014-05-29T10:00:52Z</time>
      </trkpt>
      <trkpt lat="44.40436" lon="4.02111">
        <ele>943</ele>
        <time>2014-05-29T10:02:05Z</time>
      </trkpt>
      <trkpt lat="44.40427" lon="4.02125">
        <ele>943</ele>
        <time>2014-05-29T10:02:08Z</time>
      </trkpt>
      <trkpt lat="44.40418" lon="4.02138">
        <ele>944</ele>
        <time>2014-05-29T10:02:15Z</time>
      </trkpt>
      <trkpt lat="44.40394" lon="4.02164">
        <ele>936</ele>
        <time>2014-05-29T10:02:23Z</time>
      </trkpt>
      <trkpt lat="44.40363" lon="4.02205">
        <ele>931</ele>
        <time>2014-05-29T10:02:33Z</time>
      </trkpt>
      <trkpt lat="44.40344" lon="4.02229">
        <ele>928</ele>
        <time>2014-05-29T10:02:51Z</time>
      </trkpt>
      <trkpt lat="44.40323" lon="4.02255">
        <ele>920</ele>
        <time>2014-05-29T10:03:02Z</time>
      </trkpt>
      <trkpt lat="44.40306" lon="4.02264">
        <ele>918</ele>
        <time>2014-05-29T10:03:39Z</time>
      </trkpt>
      <trkpt lat="44.40302" lon="4.0226">
        <ele>917</ele>
        <time>2014-05-29T10:04:32Z</time>
      </trkpt>
      <trkpt lat="44.40237" lon="4.0234">
        <ele>911</ele>
        <time>2014-05-29T10:04:58Z</time>
      </trkpt>
      <trkpt lat="44.40226" lon="4.02346">
        <ele>912</ele>
        <time>2014-05-29T10:05:13Z</time>
      </trkpt>
      <trkpt lat="44.40222" lon="4.02351">
        <ele>912</ele>
        <time>2014-05-29T10:05:17Z</time>
      </trkpt>
      <trkpt lat="44.40217" lon="4.02364">
        <ele>913</ele>
        <time>2014-05-29T10:05:25Z</time>
      </trkpt>
      <trkpt lat="44.4021" lon="4.02378">
        <ele>913</ele>
        <time>2014-05-29T10:05:32Z</time>
      </trkpt>
      <trkpt lat="44.40188" lon="4.02392">
        <ele>912</ele>
        <time>2014-05-29T10:05:51Z</time>
      </trkpt>
      <trkpt lat="44.40164" lon="4.02379">
        <ele>919</ele>
        <time>2014-05-29T10:06:24Z</time>
      </trkpt>
      <trkpt lat="44.40164" lon="4.02378">
        <ele>919</ele>
        <time>2014-05-29T10:06:34Z</time>
      </trkpt>
      <trkpt lat="44.4016" lon="4.0238">
        <ele>919</ele>
        <time>2014-05-29T10:06:38Z</time>
      </trkpt>
      <trkpt lat="44.40159" lon="4.02387">
        <ele>918</ele>
        <time>2014-05-29T10:06:51Z</time>
      </trkpt>
      <trkpt lat="44.40166" lon="4.02397">
        <ele>916</ele>
        <time>2014-05-29T10:07:03Z</time>
      </trkpt>
      <trkpt lat="44.40175" lon="4.02408">
        <ele>910</ele>
        <time>2014-05-29T10:07:13Z</time>
      </trkpt>
      <trkpt lat="44.40177" lon="4.02447">
        <ele>906</ele>
        <time>2014-05-29T10:07:18Z</time>
      </trkpt>
      <trkpt lat="44.40179" lon="4.02507">
        <ele>896</ele>
        <time>2014-05-29T10:07:26Z</time>
      </trkpt>
      <trkpt lat="44.40184" lon="4.02534">
        <ele>899</ele>
        <time>2014-05-29T10:07:36Z</time>
      </trkpt>
      <trkpt lat="44.40187" lon="4.02527">
        <ele>899</ele>
        <time>2014-05-29T10:07:53Z</time>
      </trkpt>
      <trkpt lat="44.40173" lon="4.02575">
        <ele>892</ele>
        <time>2014-05-29T10:08:04Z</time>
      </trkpt>
      <trkpt lat="44.40156" lon="4.02611">
        <ele>884</ele>
        <time>2014-05-29T10:08:10Z</time>
      </trkpt>
      <trkpt lat="44.40144" lon="4.02638">
        <ele>883</ele>
        <time>2014-05-29T10:08:29Z</time>
      </trkpt>
      <trkpt lat="44.40123" lon="4.02649">
        <ele>881</ele>
        <time>2014-05-29T10:08:55Z</time>
      </trkpt>
      <trkpt lat="44.40117" lon="4.02623">
        <ele>881</ele>
        <time>2014-05-29T10:09:11Z</time>
      </trkpt>
      <trkpt lat="44.40118" lon="4.02616">
        <ele>881</ele>
        <time>2014-05-29T10:09:23Z</time>
      </trkpt>
      <trkpt lat="44.40106" lon="4.02633">
        <ele>879</ele>
        <time>2014-05-29T10:10:55Z</time>
      </trkpt>
      <trkpt lat="44.40105" lon="4.02641">
        <ele>879</ele>
        <time>2014-05-29T10:13:26Z</time>
      </trkpt>
      <trkpt lat="44.40052" lon="4.02646">
        <ele>879</ele>
        <time>2014-05-29T10:14:41Z</time>
      </trkpt>
      <trkpt lat="44.40051" lon="4.02692">
        <ele>872</ele>
        <time>2014-05-29T10:14:49Z</time>
      </trkpt>
      <trkpt lat="44.40049" lon="4.02723">
        <ele>870</ele>
        <time>2014-05-29T10:15:01Z</time>
      </trkpt>
      <trkpt lat="44.40049" lon="4.02778">
        <ele>856</ele>
        <time>2014-05-29T10:15:16Z</time>
      </trkpt>
      <trkpt lat="44.40035" lon="4.0282">
        <ele>851</ele>
        <time>2014-05-29T10:15:20Z</time>
      </trkpt>
      <trkpt lat="44.40011" lon="4.02848">
        <ele>840</ele>
        <time>2014-05-29T10:15:25Z</time>
      </trkpt>
      <trkpt lat="44.39996" lon="4.02851">
        <ele>835</ele>
        <time>2014-05-29T10:15:49Z</time>
      </trkpt>
      <trkpt lat="44.39969" lon="4.0285">
        <ele>835</ele>
        <time>2014-05-29T10:16:15Z</time>
      </trkpt>
      <trkpt lat="44.39939" lon="4.02852">
        <ele>836</ele>
        <time>2014-05-29T10:16:23Z</time>
      </trkpt>
      <trkpt lat="44.39915" lon="4.02829">
        <ele>845</ele>
        <time>2014-05-29T10:16:29Z</time>
      </trkpt>
      <trkpt lat="44.39892" lon="4.02786">
        <ele>851</ele>
        <time>2014-05-29T10:16:31Z</time>
      </trkpt>
      <trkpt lat="44.39867" lon="4.02756">
        <ele>852</ele>
        <time>2014-05-29T10:16:35Z</time>
      </trkpt>
      <trkpt lat="44.39841" lon="4.02736">
        <ele>862</ele>
        <time>2014-05-29T10:16:41Z</time>
      </trkpt>
      <trkpt lat="44.39811" lon="4.02727">
        <ele>858</ele>
        <time>2014-05-29T10:16:48Z</time>
      </trkpt>
      <trkpt lat="44.39778" lon="4.02722">
        <ele>857</ele>
        <time>2014-05-29T10:16:56Z</time>
      </trkpt>
      <trkpt lat="44.39746" lon="4.02706">
        <ele>854</ele>
        <time>2014-05-29T10:17:04Z</time>
      </trkpt>
      <trkpt lat="44.39721" lon="4.02695">
        <ele>855</ele>
        <time>2014-05-29T10:17:15Z</time>
      </trkpt>
      <trkpt lat="44.39716" lon="4.02677">
        <ele>857</ele>
        <time>2014-05-29T10:19:50Z</time>
      </trkpt>
      <trkpt lat="44.39714" lon="4.02657">
        <ele>874</ele>
        <time>2014-05-29T10:20:02Z</time>
      </trkpt>
      <trkpt lat="44.39704" lon="4.02617">
        <ele>880</ele>
        <time>2014-05-29T10:20:09Z</time>
      </trkpt>
      <trkpt lat="44.39693" lon="4.02573">
        <ele>901</ele>
        <time>2014-05-29T10:20:15Z</time>
      </trkpt>
      <trkpt lat="44.39684" lon="4.02535">
        <ele>908</ele>
        <time>2014-05-29T10:20:19Z</time>
      </trkpt>
      <trkpt lat="44.39676" lon="4.025">
        <ele>918</ele>
        <time>2014-05-29T10:20:23Z</time>
      </trkpt>
      <trkpt lat="44.39694" lon="4.02575">
        <ele>901</ele>
        <time>2014-05-29T10:20:26Z</time>
      </trkpt>
      <trkpt lat="44.39699" lon="4.02593">
        <ele>884</ele>
        <time>2014-05-29T10:20:39Z</time>
      </trkpt>
      <trkpt lat="44.39704" lon="4.02612">
        <ele>881</ele>
        <time>2014-05-29T10:20:41Z</time>
      </trkpt>
      <trkpt lat="44.39708" lon="4.02631">
        <ele>878</ele>
        <time>2014-05-29T10:20:43Z</time>
      </trkpt>
      <trkpt lat="44.39712" lon="4.02648">
        <ele>875</ele>
        <time>2014-05-29T10:20:46Z</time>
      </trkpt>
      <trkpt lat="44.39716" lon="4.02665">
        <ele>873</ele>
        <time>2014-05-29T10:20:56Z</time>
      </trkpt>
      <trkpt lat="44.39717" lon="4.02672">
        <ele>857</ele>
        <time>2014-05-29T10:21:19Z</time>
      </trkpt>
      <trkpt lat="44.39713" lon="4.02665">
        <ele>873</ele>
        <time>2014-05-29T10:22:52Z</time>
      </trkpt>
      <trkpt lat="44.39707" lon="4.02654">
        <ele>874</ele>
        <time>2014-05-29T10:23:40Z</time>
      </trkpt>
      <trkpt lat="44.39647" lon="4.02608">
        <ele>882</ele>
        <time>2014-05-29T10:23:45Z</time>
      </trkpt>
      <trkpt lat="44.39574" lon="4.02551">
        <ele>901</ele>
        <time>2014-05-29T10:23:56Z</time>
      </trkpt>
      <trkpt lat="44.39554" lon="4.02527">
        <ele>905</ele>
        <time>2014-05-29T10:24:10Z</time>
      </trkpt>
      <trkpt lat="44.39535" lon="4.02506">
        <ele>906</ele>
        <time>2014-05-29T10:24:23Z</time>
      </trkpt>
      <trkpt lat="44.39526" lon="4.025">
        <ele>918</ele>
        <time>2014-05-29T10:24:36Z</time>
      </trkpt>
      <trkpt lat="44.39518" lon="4.02536">
        <ele>903</ele>
        <time>2014-05-29T10:24:41Z</time>
      </trkpt>
      <trkpt lat="44.39516" lon="4.0255">
        <ele>901</ele>
        <time>2014-05-29T10:24:44Z</time>
      </trkpt>
      <trkpt lat="44.39513" lon="4.02562">
        <ele>900</ele>
        <time>2014-05-29T10:24:50Z</time>
      </trkpt>
      <trkpt lat="44.39506" lon="4.0259">
        <ele>892</ele>
        <time>2014-05-29T10:25:04Z</time>
      </trkpt>
      <trkpt lat="44.39501" lon="4.02603">
        <ele>890</ele>
        <time>2014-05-29T10:25:20Z</time>
      </trkpt>
      <trkpt lat="44.39501" lon="4.02581">
        <ele>896</ele>
        <time>2014-05-29T10:25:35Z</time>
      </trkpt>
      <trkpt lat="44.39497" lon="4.02574">
        <ele>901</ele>
        <time>2014-05-29T10:25:57Z</time>
      </trkpt>
      <trkpt lat="44.39491" lon="4.0259">
        <ele>899</ele>
        <time>2014-05-29T10:26:22Z</time>
      </trkpt>
      <trkpt lat="44.39448" lon="4.02719">
        <ele>898</ele>
        <time>2014-05-29T10:26:28Z</time>
      </trkpt>
      <trkpt lat="44.39442" lon="4.02766">
        <ele>894</ele>
        <time>2014-05-29T10:26:35Z</time>
      </trkpt>
      <trkpt lat="44.39435" lon="4.02782">
        <ele>894</ele>
        <time>2014-05-29T10:26:42Z</time>
      </trkpt>
      <trkpt lat="44.39387" lon="4.02765">
        <ele>907</ele>
        <time>2014-05-29T10:26:46Z</time>
      </trkpt>
      <trkpt lat="44.39373" lon="4.02767">
        <ele>908</ele>
        <time>2014-05-29T10:28:33Z</time>
      </trkpt>
      <trkpt lat="44.39335" lon="4.02759">
        <ele>912</ele>
        <time>2014-05-29T10:28:35Z</time>
      </trkpt>
      <trkpt lat="44.39329" lon="4.02757">
        <ele>913</ele>
        <time>2014-05-29T10:28:42Z</time>
      </trkpt>
      <trkpt lat="44.39325" lon="4.02742">
        <ele>917</ele>
        <time>2014-05-29T10:28:58Z</time>
      </trkpt>
      <trkpt lat="44.39314" lon="4.0272">
        <ele>921</ele>
        <time>2014-05-29T10:29:11Z</time>
      </trkpt>
      <trkpt lat="44.39288" lon="4.02699">
        <ele>923</ele>
        <time>2014-05-29T10:29:21Z</time>
      </trkpt>
      <trkpt lat="44.39263" lon="4.02683">
        <ele>927</ele>
        <time>2014-05-29T10:29:35Z</time>
      </trkpt>
      <trkpt lat="44.39232" lon="4.02668">
        <ele>931</ele>
        <time>2014-05-29T10:29:51Z</time>
      </trkpt>
      <trkpt lat="44.39204" lon="4.02659">
        <ele>939</ele>
        <time>2014-05-29T10:30:05Z</time>
      </trkpt>
      <trkpt lat="44.39181" lon="4.02672">
        <ele>934</ele>
        <time>2014-05-29T10:30:23Z</time>
      </trkpt>
      <trkpt lat="44.39147" lon="4.02673">
        <ele>934</ele>
        <time>2014-05-29T10:30:35Z</time>
      </trkpt>
      <trkpt lat="44.39122" lon="4.02671">
        <ele>932</ele>
        <time>2014-05-29T10:30:59Z</time>
      </trkpt>
      <trkpt lat="44.39088" lon="4.02672">
        <ele>930</ele>
        <time>2014-05-29T10:31:15Z</time>
      </trkpt>
      <trkpt lat="44.39072" lon="4.02664">
        <ele>923</ele>
        <time>2014-05-29T10:32:42Z</time>
      </trkpt>
      <trkpt lat="44.39072" lon="4.02691">
        <ele>923</ele>
        <time>2014-05-29T10:34:08Z</time>
      </trkpt>
      <trkpt lat="44.39073" lon="4.02703">
        <ele>922</ele>
        <time>2014-05-29T10:35:27Z</time>
      </trkpt>
      <trkpt lat="44.39075" lon="4.02722">
        <ele>923</ele>
        <time>2014-05-29T10:37:35Z</time>
      </trkpt>
      <trkpt lat="44.39075" lon="4.02727">
        <ele>924</ele>
        <time>2014-05-29T10:38:39Z</time>
      </trkpt>
      <trkpt lat="44.39045" lon="4.02817">
        <ele>925</ele>
        <time>2014-05-29T10:38:55Z</time>
      </trkpt>
      <trkpt lat="44.39032" lon="4.02844">
        <ele>924</ele>
        <time>2014-05-29T10:39:10Z</time>
      </trkpt>
      <trkpt lat="44.39028" lon="4.02862">
        <ele>923</ele>
        <time>2014-05-29T10:39:25Z</time>
      </trkpt>
      <trkpt lat="44.39013" lon="4.02892">
        <ele>922</ele>
        <time>2014-05-29T10:39:41Z</time>
      </trkpt>
      <trkpt lat="44.39004" lon="4.0293">
        <ele>918</ele>
        <time>2014-05-29T10:39:45Z</time>
      </trkpt>
      <trkpt lat="44.38985" lon="4.02966">
        <ele>914</ele>
        <time>2014-05-29T10:39:50Z</time>
      </trkpt>
      <trkpt lat="44.38962" lon="4.02998">
        <ele>912</ele>
        <time>2014-05-29T10:39:57Z</time>
      </trkpt>
      <trkpt lat="44.38939" lon="4.0303">
        <ele>904</ele>
        <time>2014-05-29T10:40:02Z</time>
      </trkpt>
      <trkpt lat="44.38919" lon="4.03068">
        <ele>901</ele>
        <time>2014-05-29T10:40:07Z</time>
      </trkpt>
      <trkpt lat="44.38909" lon="4.03104">
        <ele>896</ele>
        <time>2014-05-29T10:40:11Z</time>
      </trkpt>
      <trkpt lat="44.38907" lon="4.03133">
        <ele>893</ele>
        <time>2014-05-29T10:40:15Z</time>
      </trkpt>
      <trkpt lat="44.38898" lon="4.03168">
        <ele>886</ele>
        <time>2014-05-29T10:40:20Z</time>
      </trkpt>
      <trkpt lat="44.3888" lon="4.03197">
        <ele>885</ele>
        <time>2014-05-29T10:40:24Z</time>
      </trkpt>
      <trkpt lat="44.38857" lon="4.0323">
        <ele>884</ele>
        <time>2014-05-29T10:40:29Z</time>
      </trkpt>
      <trkpt lat="44.38842" lon="4.03265">
        <ele>880</ele>
        <time>2014-05-29T10:40:35Z</time>
      </trkpt>
      <trkpt lat="44.38843" lon="4.03295">
        <ele>878</ele>
        <time>2014-05-29T10:40:42Z</time>
      </trkpt>
      <trkpt lat="44.38859" lon="4.03323">
        <ele>877</ele>
        <time>2014-05-29T10:40:52Z</time>
      </trkpt>
      <trkpt lat="44.38855" lon="4.03327">
        <ele>877</ele>
        <time>2014-05-29T10:41:06Z</time>
      </trkpt>
      <trkpt lat="44.38848" lon="4.03306">
        <ele>878</ele>
        <time>2014-05-29T10:43:27Z</time>
      </trkpt>
      <trkpt lat="44.3884" lon="4.03406">
        <ele>870</ele>
        <time>2014-05-29T10:48:23Z</time>
      </trkpt>
      <trkpt lat="44.38835" lon="4.03436">
        <ele>864</ele>
        <time>2014-05-29T10:48:28Z</time>
      </trkpt>
      <trkpt lat="44.38825" lon="4.03515">
        <ele>860</ele>
        <time>2014-05-29T10:48:36Z</time>
      </trkpt>
      <trkpt lat="44.38828" lon="4.03535">
        <ele>858</ele>
        <time>2014-05-29T10:48:43Z</time>
      </trkpt>
      <trkpt lat="44.38811" lon="4.03567">
        <ele>855</ele>
        <time>2014-05-29T10:48:49Z</time>
      </trkpt>
      <trkpt lat="44.38803" lon="4.03606">
        <ele>848</ele>
        <time>2014-05-29T10:48:54Z</time>
      </trkpt>
      <trkpt lat="44.38797" lon="4.03643">
        <ele>846</ele>
        <time>2014-05-29T10:48:59Z</time>
      </trkpt>
      <trkpt lat="44.38784" lon="4.03679">
        <ele>840</ele>
        <time>2014-05-29T10:49:05Z</time>
      </trkpt>
      <trkpt lat="44.38772" lon="4.03711">
        <ele>839</ele>
        <time>2014-05-29T10:49:10Z</time>
      </trkpt>
      <trkpt lat="44.3876" lon="4.03744">
        <ele>841</ele>
        <time>2014-05-29T10:49:16Z</time>
      </trkpt>
      <trkpt lat="44.38748" lon="4.03778">
        <ele>840</ele>
        <time>2014-05-29T10:49:22Z</time>
      </trkpt>
      <trkpt lat="44.38736" lon="4.03813">
        <ele>839</ele>
        <time>2014-05-29T10:49:30Z</time>
      </trkpt>
      <trkpt lat="44.38723" lon="4.03824">
        <ele>839</ele>
        <time>2014-05-29T10:50:03Z</time>
      </trkpt>
      <trkpt lat="44.38711" lon="4.03793">
        <ele>839</ele>
        <time>2014-05-29T10:50:43Z</time>
      </trkpt>
      <trkpt lat="44.38664" lon="4.03806">
        <ele>832</ele>
        <time>2014-05-29T10:51:04Z</time>
      </trkpt>
      <trkpt lat="44.38644" lon="4.03816">
        <ele>832</ele>
        <time>2014-05-29T10:51:17Z</time>
      </trkpt>
      <trkpt lat="44.38619" lon="4.03827">
        <ele>828</ele>
      </trkpt>
      <trkpt lat="44.38598" lon="4.03829">
        <ele>827</ele>
        <time>2014-05-29T10:51:33Z</time>
      </trkpt>
      <trkpt lat="44.38569" lon="4.03829">
        <ele>818</ele>
      </trkpt>
      <trkpt lat="44.38491" lon="4.03847">
        <ele>813</ele>
      </trkpt>
      <trkpt lat="44.38449" lon="4.03888">
        <ele>817</ele>
      </trkpt>
      <trkpt lat="44.38405" lon="4.03873">
        <ele>803</ele>
      </trkpt>
      <trkpt lat="44.38346" lon="4.03886">
        <ele>801</ele>
      </trkpt>
      <trkpt lat="44.38276" lon="4.03923">
        <ele>792</ele>
      </trkpt>
      <trkpt lat="44.38265" lon="4.03972">
        <ele>798</ele>
      </trkpt>
      <trkpt lat="44.38211" lon="4.04043">
        <ele>806</ele>
      </trkpt>
      <trkpt lat="44.38155" lon="4.03986">
        <ele>775</ele>
        <time>2014-05-29T11:33:59Z</time>
      </trkpt>
      <trkpt lat="44.38153" lon="4.03999">
        <ele>777</ele>
        <time>2014-05-29T11:34:18Z</time>
      </trkpt>
      <trkpt lat="44.38152" lon="4.03998">
        <ele>777</ele>
        <time>2014-05-29T11:34:48Z</time>
      </trkpt>
      <trkpt lat="44.38144" lon="4.03996">
        <ele>774</ele>
        <time>2014-05-29T11:40:38Z</time>
      </trkpt>
      <trkpt lat="44.38117" lon="4.04009">
        <ele>790</ele>
        <time>2014-05-29T11:48:57Z</time>
      </trkpt>
      <trkpt lat="44.38091" lon="4.04045">
        <ele>793</ele>
        <time>2014-05-29T11:49:23Z</time>
      </trkpt>
      <trkpt lat="44.38078" lon="4.04064">
        <ele>782</ele>
        <time>2014-05-29T11:49:44Z</time>
      </trkpt>
      <trkpt lat="44.38058" lon="4.0408">
        <ele>778</ele>
        <time>2014-05-29T11:50:06Z</time>
      </trkpt>
      <trkpt lat="44.38053" lon="4.04109">
        <ele>787</ele>
        <time>2014-05-29T11:50:30Z</time>
      </trkpt>
      <trkpt lat="44.38037" lon="4.04133">
        <ele>786</ele>
        <time>2014-05-29T11:50:54Z</time>
      </trkpt>
      <trkpt lat="44.38031" lon="4.04146">
        <ele>785</ele>
        <time>2014-05-29T11:51:14Z</time>
      </trkpt>
      <trkpt lat="44.38027" lon="4.0416">
        <ele>784</ele>
        <time>2014-05-29T11:51:35Z</time>
      </trkpt>
      <trkpt lat="44.38023" lon="4.04174">
        <ele>795</ele>
        <time>2014-05-29T11:51:53Z</time>
      </trkpt>
      <trkpt lat="44.38016" lon="4.04188">
        <ele>795</ele>
        <time>2014-05-29T11:52:04Z</time>
      </trkpt>
      <trkpt lat="44.38008" lon="4.04201">
        <ele>798</ele>
        <time>2014-05-29T11:52:23Z</time>
      </trkpt>
      <trkpt lat="44.38001" lon="4.04213">
        <ele>800</ele>
        <time>2014-05-29T11:52:46Z</time>
      </trkpt>
      <trkpt lat="44.37993" lon="4.04224">
        <ele>780</ele>
        <time>2014-05-29T11:53:05Z</time>
      </trkpt>
      <trkpt lat="44.3794" lon="4.04314">
        <ele>795</ele>
        <time>2014-05-29T11:53:22Z</time>
      </trkpt>
      <trkpt lat="44.37938" lon="4.04317">
        <ele>795</ele>
        <time>2014-05-29T11:53:34Z</time>
      </trkpt>
      <trkpt lat="44.37927" lon="4.04324">
        <ele>795</ele>
        <time>2014-05-29T11:53:50Z</time>
      </trkpt>
      <trkpt lat="44.379" lon="4.04336">
        <ele>800</ele>
        <time>2014-05-29T11:54:03Z</time>
      </trkpt>
      <trkpt lat="44.37871" lon="4.04343">
        <ele>803</ele>
        <time>2014-05-29T11:54:29Z</time>
      </trkpt>
      <trkpt lat="44.37858" lon="4.04338">
        <ele>801</ele>
        <time>2014-05-29T11:54:57Z</time>
      </trkpt>
      <trkpt lat="44.37847" lon="4.0433">
        <ele>790</ele>
        <time>2014-05-29T11:55:42Z</time>
      </trkpt>
      <trkpt lat="44.3782" lon="4.04327">
        <ele>788</ele>
        <time>2014-05-29T11:56:13Z</time>
      </trkpt>
      <trkpt lat="44.37792" lon="4.04352">
        <ele>792</ele>
        <time>2014-05-29T11:56:26Z</time>
      </trkpt>
      <trkpt lat="44.37787" lon="4.04381">
        <ele>793</ele>
        <time>2014-05-29T11:56:41Z</time>
      </trkpt>
      <trkpt lat="44.3778" lon="4.04412">
        <ele>792</ele>
        <time>2014-05-29T11:56:55Z</time>
      </trkpt>
      <trkpt lat="44.37763" lon="4.04434">
        <ele>796</ele>
        <time>2014-05-29T11:57:18Z</time>
      </trkpt>
      <trkpt lat="44.37744" lon="4.04457">
        <ele>777</ele>
        <time>2014-05-29T11:57:34Z</time>
      </trkpt>
      <trkpt lat="44.37723" lon="4.04479">
        <ele>776</ele>
        <time>2014-05-29T11:57:48Z</time>
      </trkpt>
      <trkpt lat="44.37695" lon="4.04492">
        <ele>769</ele>
        <time>2014-05-29T11:58:01Z</time>
      </trkpt>
      <trkpt lat="44.37665" lon="4.04492">
        <ele>754</ele>
        <time>2014-05-29T11:58:15Z</time>
      </trkpt>
      <trkpt lat="44.37634" lon="4.04491">
        <ele>745</ele>
        <time>2014-05-29T11:58:29Z</time>
      </trkpt>
      <trkpt lat="44.37603" lon="4.04498">
        <ele>741</ele>
        <time>2014-05-29T11:58:48Z</time>
      </trkpt>
      <trkpt lat="44.37576" lon="4.045">
        <ele>737</ele>
        <time>2014-05-29T11:59:24Z</time>
      </trkpt>
      <trkpt lat="44.37562" lon="4.045">
        <ele>733</ele>
        <time>2014-05-29T11:59:51Z</time>
      </trkpt>
      <trkpt lat="44.3753" lon="4.04497">
        <ele>731</ele>
        <time>2014-05-29T12:00:06Z</time>
      </trkpt>
      <trkpt lat="44.37498" lon="4.0449">
        <ele>732</ele>
        <time>2014-05-29T12:00:22Z</time>
      </trkpt>
      <trkpt lat="44.37466" lon="4.04478">
        <ele>725</ele>
        <time>2014-05-29T12:00:33Z</time>
      </trkpt>
      <trkpt lat="44.37439" lon="4.04463">
        <ele>722</ele>
        <time>2014-05-29T12:00:44Z</time>
      </trkpt>
      <trkpt lat="44.37412" lon="4.04439">
        <ele>710</ele>
        <time>2014-05-29T12:01:02Z</time>
      </trkpt>
      <trkpt lat="44.37394" lon="4.0443">
        <ele>709</ele>
        <time>2014-05-29T12:02:23Z</time>
      </trkpt>
      <trkpt lat="44.37371" lon="4.04452">
        <ele>707</ele>
        <time>2014-05-29T12:02:38Z</time>
      </trkpt>
      <trkpt lat="44.37363" lon="4.04482">
        <ele>706</ele>
        <time>2014-05-29T12:02:53Z</time>
      </trkpt>
      <trkpt lat="44.37356" lon="4.04512">
        <ele>705</ele>
        <time>2014-05-29T12:03:14Z</time>
      </trkpt>
      <trkpt lat="44.37353" lon="4.04539">
        <ele>705</ele>
        <time>2014-05-29T12:03:38Z</time>
      </trkpt>
      <trkpt lat="44.37347" lon="4.04568">
        <ele>700</ele>
        <time>2014-05-29T12:03:57Z</time>
      </trkpt>
      <trkpt lat="44.37347" lon="4.04599">
        <ele>702</ele>
        <time>2014-05-29T12:04:16Z</time>
      </trkpt>
      <trkpt lat="44.37343" lon="4.04628">
        <ele>707</ele>
        <time>2014-05-29T12:04:38Z</time>
      </trkpt>
      <trkpt lat="44.37322" lon="4.04651">
        <ele>695</ele>
        <time>2014-05-29T12:05:01Z</time>
      </trkpt>
      <trkpt lat="44.37311" lon="4.04655">
        <ele>693</ele>
        <time>2014-05-29T12:05:28Z</time>
      </trkpt>
      <trkpt lat="44.37302" lon="4.04652">
        <ele>691</ele>
        <time>2014-05-29T12:07:11Z</time>
      </trkpt>
      <trkpt lat="44.3727" lon="4.0463">
        <ele>684</ele>
        <time>2014-05-29T12:07:21Z</time>
      </trkpt>
      <trkpt lat="44.37246" lon="4.04644">
        <ele>674</ele>
        <time>2014-05-29T12:07:31Z</time>
      </trkpt>
      <trkpt lat="44.37193" lon="4.04657">
        <ele>665</ele>
        <time>2014-05-29T12:07:55Z</time>
      </trkpt>
      <trkpt lat="44.37129" lon="4.04634">
        <ele>640</ele>
        <time>2014-05-29T12:08:19Z</time>
      </trkpt>
      <trkpt lat="44.37132" lon="4.04576">
        <ele>624</ele>
        <time>2014-05-29T12:08:42Z</time>
      </trkpt>
      <trkpt lat="44.3715" lon="4.04562">
        <ele>627</ele>
        <time>2014-05-29T12:09:07Z</time>
      </trkpt>
      <trkpt lat="44.37141" lon="4.04557">
        <ele>624</ele>
        <time>2014-05-29T12:09:48Z</time>
      </trkpt>
      <trkpt lat="44.37149" lon="4.04561">
        <ele>626</ele>
        <time>2014-05-29T12:10:11Z</time>
      </trkpt>
      <trkpt lat="44.37172" lon="4.04561">
        <ele>642</ele>
        <time>2014-05-29T12:10:20Z</time>
      </trkpt>
      <trkpt lat="44.372" lon="4.04542">
        <ele>642</ele>
        <time>2014-05-29T12:11:11Z</time>
      </trkpt>
      <trkpt lat="44.37221" lon="4.04539">
        <ele>645</ele>
        <time>2014-05-29T12:12:06Z</time>
      </trkpt>
      <trkpt lat="44.37213" lon="4.04498">
        <ele>636</ele>
        <time>2014-05-29T12:12:21Z</time>
      </trkpt>
      <trkpt lat="44.37208" lon="4.04467">
        <ele>634</ele>
        <time>2014-05-29T12:12:33Z</time>
      </trkpt>
      <trkpt lat="44.37201" lon="4.04436">
        <ele>632</ele>
        <time>2014-05-29T12:12:44Z</time>
      </trkpt>
      <trkpt lat="44.37199" lon="4.04405">
        <ele>629</ele>
        <time>2014-05-29T12:12:54Z</time>
      </trkpt>
      <trkpt lat="44.372" lon="4.04375">
        <ele>630</ele>
        <time>2014-05-29T12:13:06Z</time>
      </trkpt>
      <trkpt lat="44.37196" lon="4.04343">
        <ele>627</ele>
        <time>2014-05-29T12:13:16Z</time>
      </trkpt>
      <trkpt lat="44.37199" lon="4.04311">
        <ele>620</ele>
        <time>2014-05-29T12:13:25Z</time>
      </trkpt>
      <trkpt lat="44.37218" lon="4.04283">
        <ele>622</ele>
        <time>2014-05-29T12:13:34Z</time>
      </trkpt>
      <trkpt lat="44.37233" lon="4.04258">
        <ele>625</ele>
        <time>2014-05-29T12:13:44Z</time>
      </trkpt>
      <trkpt lat="44.37251" lon="4.04232">
        <ele>628</ele>
        <time>2014-05-29T12:13:54Z</time>
      </trkpt>
      <trkpt lat="44.37276" lon="4.04213">
        <ele>624</ele>
        <time>2014-05-29T12:14:08Z</time>
      </trkpt>
      <trkpt lat="44.37303" lon="4.04196">
        <ele>623</ele>
        <time>2014-05-29T12:14:20Z</time>
      </trkpt>
      <trkpt lat="44.37333" lon="4.04191">
        <ele>623</ele>
        <time>2014-05-29T12:14:33Z</time>
      </trkpt>
      <trkpt lat="44.37365" lon="4.04198">
        <ele>627</ele>
        <time>2014-05-29T12:14:44Z</time>
      </trkpt>
      <trkpt lat="44.37396" lon="4.04204">
        <ele>628</ele>
        <time>2014-05-29T12:14:54Z</time>
      </trkpt>
      <trkpt lat="44.37429" lon="4.04209">
        <ele>635</ele>
        <time>2014-05-29T12:15:03Z</time>
      </trkpt>
      <trkpt lat="44.37455" lon="4.04202">
        <ele>638</ele>
        <time>2014-05-29T12:15:15Z</time>
      </trkpt>
      <trkpt lat="44.37449" lon="4.04169">
        <ele>633</ele>
        <time>2014-05-29T12:15:28Z</time>
      </trkpt>
      <trkpt lat="44.37443" lon="4.04138">
        <ele>621</ele>
        <time>2014-05-29T12:15:39Z</time>
      </trkpt>
      <trkpt lat="44.37441" lon="4.04104">
        <ele>618</ele>
        <time>2014-05-29T12:15:49Z</time>
      </trkpt>
      <trkpt lat="44.37441" lon="4.0407">
        <ele>607</ele>
        <time>2014-05-29T12:15:58Z</time>
      </trkpt>
      <trkpt lat="44.37452" lon="4.04042">
        <ele>608</ele>
        <time>2014-05-29T12:16:08Z</time>
      </trkpt>
      <trkpt lat="44.37469" lon="4.04018">
        <ele>610</ele>
        <time>2014-05-29T12:16:27Z</time>
      </trkpt>
      <trkpt lat="44.37478" lon="4.03989">
        <ele>601</ele>
        <time>2014-05-29T12:17:03Z</time>
      </trkpt>
      <trkpt lat="44.37492" lon="4.03962">
        <ele>597</ele>
        <time>2014-05-29T12:17:27Z</time>
      </trkpt>
      <trkpt lat="44.37501" lon="4.03952">
        <ele>619</ele>
        <time>2014-05-29T12:18:59Z</time>
      </trkpt>
      <trkpt lat="44.37519" lon="4.03917">
        <ele>614</ele>
        <time>2014-05-29T12:19:18Z</time>
      </trkpt>
      <trkpt lat="44.37538" lon="4.03871">
        <ele>603</ele>
        <time>2014-05-29T12:19:36Z</time>
      </trkpt>
      <trkpt lat="44.37549" lon="4.03853">
        <ele>603</ele>
        <time>2014-05-29T12:19:56Z</time>
      </trkpt>
      <trkpt lat="44.37564" lon="4.03827">
        <ele>594</ele>
        <time>2014-05-29T12:20:08Z</time>
      </trkpt>
      <trkpt lat="44.3758" lon="4.038">
        <ele>589</ele>
        <time>2014-05-29T12:20:19Z</time>
      </trkpt>
      <trkpt lat="44.37602" lon="4.03776">
        <ele>601</ele>
        <time>2014-05-29T12:20:30Z</time>
      </trkpt>
      <trkpt lat="44.37625" lon="4.03755">
        <ele>602</ele>
        <time>2014-05-29T12:20:43Z</time>
      </trkpt>
      <trkpt lat="44.37647" lon="4.03735">
        <ele>588</ele>
        <time>2014-05-29T12:20:55Z</time>
      </trkpt>
      <trkpt lat="44.37677" lon="4.03725">
        <ele>592</ele>
        <time>2014-05-29T12:21:06Z</time>
      </trkpt>
      <trkpt lat="44.37688" lon="4.03726">
        <ele>592</ele>
        <time>2014-05-29T12:21:40Z</time>
      </trkpt>
      <trkpt lat="44.3771" lon="4.03741">
        <ele>592</ele>
        <time>2014-05-29T12:23:28Z</time>
      </trkpt>
      <trkpt lat="44.37738" lon="4.03774">
        <ele>607</ele>
        <time>2014-05-29T12:23:45Z</time>
      </trkpt>
      <trkpt lat="44.37761" lon="4.0378">
        <ele>609</ele>
        <time>2014-05-29T12:24:14Z</time>
      </trkpt>
      <trkpt lat="44.37772" lon="4.03775">
        <ele>609</ele>
        <time>2014-05-29T12:24:37Z</time>
      </trkpt>
      <trkpt lat="44.37788" lon="4.03764">
        <ele>609</ele>
        <time>2014-05-29T12:24:48Z</time>
      </trkpt>
      <trkpt lat="44.37802" lon="4.03754">
        <ele>609</ele>
        <time>2014-05-29T12:24:55Z</time>
      </trkpt>
      <trkpt lat="44.3781" lon="4.03747">
        <ele>601</ele>
        <time>2014-05-29T12:25:12Z</time>
      </trkpt>
      <trkpt lat="44.37821" lon="4.03717">
        <ele>601</ele>
        <time>2014-05-29T12:25:33Z</time>
      </trkpt>
      <trkpt lat="44.37838" lon="4.03666">
        <ele>606</ele>
        <time>2014-05-29T12:25:47Z</time>
      </trkpt>
      <trkpt lat="44.3785" lon="4.03637">
        <ele>615</ele>
        <time>2014-05-29T12:26:03Z</time>
      </trkpt>
      <trkpt lat="44.37866" lon="4.0361">
        <ele>617</ele>
        <time>2014-05-29T12:26:18Z</time>
      </trkpt>
      <trkpt lat="44.37878" lon="4.03602">
        <ele>618</ele>
        <time>2014-05-29T12:26:44Z</time>
      </trkpt>
      <trkpt lat="44.37895" lon="4.03594">
        <ele>618</ele>
        <time>2014-05-29T12:27:06Z</time>
      </trkpt>
      <trkpt lat="44.37912" lon="4.03577">
        <ele>620</ele>
        <time>2014-05-29T12:27:32Z</time>
      </trkpt>
      <trkpt lat="44.37933" lon="4.0357">
        <ele>625</ele>
        <time>2014-05-29T12:27:55Z</time>
      </trkpt>
      <trkpt lat="44.37946" lon="4.03569">
        <ele>627</ele>
        <time>2014-05-29T12:28:18Z</time>
      </trkpt>
      <trkpt lat="44.37962" lon="4.03568">
        <ele>630</ele>
        <time>2014-05-29T12:28:42Z</time>
      </trkpt>
      <trkpt lat="44.37975" lon="4.0357">
        <ele>631</ele>
        <time>2014-05-29T12:29:05Z</time>
      </trkpt>
      <trkpt lat="44.37999" lon="4.03571">
        <ele>633</ele>
        <time>2014-05-29T12:29:26Z</time>
      </trkpt>
      <trkpt lat="44.38023" lon="4.03571">
        <ele>639</ele>
        <time>2014-05-29T12:29:48Z</time>
      </trkpt>
      <trkpt lat="44.38039" lon="4.03575">
        <ele>641</ele>
        <time>2014-05-29T12:30:07Z</time>
      </trkpt>
      <trkpt lat="44.3805" lon="4.03577">
        <ele>642</ele>
        <time>2014-05-29T12:31:09Z</time>
      </trkpt>
      <trkpt lat="44.38065" lon="4.03576">
        <ele>643</ele>
        <time>2014-05-29T12:32:17Z</time>
      </trkpt>
      <trkpt lat="44.38079" lon="4.03574">
        <ele>644</ele>
        <time>2014-05-29T12:32:48Z</time>
      </trkpt>
      <trkpt lat="44.38094" lon="4.03563">
        <ele>650</ele>
        <time>2014-05-29T12:33:13Z</time>
      </trkpt>
      <trkpt lat="44.381" lon="4.03561">
        <ele>651</ele>
        <time>2014-05-29T12:33:34Z</time>
      </trkpt>
      <trkpt lat="44.3816" lon="4.03576">
        <ele>656</ele>
        <time>2014-05-29T12:33:53Z</time>
      </trkpt>
      <trkpt lat="44.38181" lon="4.03568">
        <ele>662</ele>
        <time>2014-05-29T12:34:14Z</time>
      </trkpt>
      <trkpt lat="44.38206" lon="4.03553">
        <ele>664</ele>
        <time>2014-05-29T12:34:43Z</time>
      </trkpt>
      <trkpt lat="44.38226" lon="4.03531">
        <ele>664</ele>
        <time>2014-05-29T12:35:08Z</time>
      </trkpt>
      <trkpt lat="44.38253" lon="4.03516">
        <ele>671</ele>
        <time>2014-05-29T12:35:40Z</time>
      </trkpt>
      <trkpt lat="44.38278" lon="4.03503">
        <ele>675</ele>
        <time>2014-05-29T12:36:18Z</time>
      </trkpt>
      <trkpt lat="44.38305" lon="4.03489">
        <ele>677</ele>
        <time>2014-05-29T12:36:47Z</time>
      </trkpt>
      <trkpt lat="44.38319" lon="4.03484">
        <ele>679</ele>
        <time>2014-05-29T12:37:10Z</time>
      </trkpt>
      <trkpt lat="44.38333" lon="4.03481">
        <ele>680</ele>
        <time>2014-05-29T12:37:31Z</time>
      </trkpt>
      <trkpt lat="44.38345" lon="4.03484">
        <ele>691</ele>
        <time>2014-05-29T12:37:59Z</time>
      </trkpt>
      <trkpt lat="44.38352" lon="4.03492">
        <ele>691</ele>
        <time>2014-05-29T12:38:26Z</time>
      </trkpt>
      <trkpt lat="44.38358" lon="4.03503">
        <ele>697</ele>
        <time>2014-05-29T12:40:27Z</time>
      </trkpt>
      <trkpt lat="44.384" lon="4.03515">
        <ele>707</ele>
        <time>2014-05-29T12:41:19Z</time>
      </trkpt>
      <trkpt lat="44.38403" lon="4.03521">
        <ele>707</ele>
        <time>2014-05-29T12:42:24Z</time>
      </trkpt>
      <trkpt lat="44.38434" lon="4.03528">
        <ele>725</ele>
        <time>2014-05-29T12:43:45Z</time>
      </trkpt>
      <trkpt lat="44.38435" lon="4.03504">
        <ele>721</ele>
        <time>2014-05-29T12:49:15Z</time>
      </trkpt>
      <trkpt lat="44.3844" lon="4.03489">
        <ele>722</ele>
        <time>2014-05-29T12:50:31Z</time>
      </trkpt>
      <trkpt lat="44.38444" lon="4.03427">
        <ele>724</ele>
        <time>2014-05-29T12:54:55Z</time>
      </trkpt>
      <trkpt lat="44.38446" lon="4.03448">
        <ele>726</ele>
        <time>2014-05-29T12:55:04Z</time>
      </trkpt>
      <trkpt lat="44.38435" lon="4.03459">
        <ele>724</ele>
        <time>2014-05-29T12:55:26Z</time>
      </trkpt>
      <trkpt lat="44.38406" lon="4.0341">
        <ele>706</ele>
        <time>2014-05-29T12:55:48Z</time>
      </trkpt>
      <trkpt lat="44.38406" lon="4.03303">
        <ele>704</ele>
        <time>2014-05-29T12:55:54Z</time>
      </trkpt>
      <trkpt lat="44.38418" lon="4.0326">
        <ele>708</ele>
        <time>2014-05-29T12:55:59Z</time>
      </trkpt>
      <trkpt lat="44.38398" lon="4.03236">
        <ele>713</ele>
        <time>2014-05-29T12:56:10Z</time>
      </trkpt>
      <trkpt lat="44.38412" lon="4.03232">
        <ele>711</ele>
        <time>2014-05-29T12:56:35Z</time>
      </trkpt>
      <trkpt lat="44.38386" lon="4.03251">
        <ele>705</ele>
        <time>2014-05-29T12:58:22Z</time>
      </trkpt>
      <trkpt lat="44.38351" lon="4.03302">
        <ele>703</ele>
        <time>2014-05-29T12:58:25Z</time>
      </trkpt>
      <trkpt lat="44.38313" lon="4.03306">
        <ele>707</ele>
        <time>2014-05-29T12:58:32Z</time>
      </trkpt>
      <trkpt lat="44.38283" lon="4.03315">
        <ele>709</ele>
        <time>2014-05-29T12:58:45Z</time>
      </trkpt>
      <trkpt lat="44.38253" lon="4.03313">
        <ele>710</ele>
        <time>2014-05-29T12:59:00Z</time>
      </trkpt>
      <trkpt lat="44.38227" lon="4.03297">
        <ele>719</ele>
        <time>2014-05-29T12:59:17Z</time>
      </trkpt>
      <trkpt lat="44.38206" lon="4.03275">
        <ele>723</ele>
        <time>2014-05-29T12:59:35Z</time>
      </trkpt>
      <trkpt lat="44.3818" lon="4.03266">
        <ele>726</ele>
        <time>2014-05-29T12:59:53Z</time>
      </trkpt>
      <trkpt lat="44.38152" lon="4.03276">
        <ele>726</ele>
        <time>2014-05-29T13:00:12Z</time>
      </trkpt>
      <trkpt lat="44.38123" lon="4.03275">
        <ele>726</ele>
        <time>2014-05-29T13:00:30Z</time>
      </trkpt>
      <trkpt lat="44.38094" lon="4.03268">
        <ele>730</ele>
        <time>2014-05-29T13:00:45Z</time>
      </trkpt>
      <trkpt lat="44.38067" lon="4.03256">
        <ele>730</ele>
        <time>2014-05-29T13:00:57Z</time>
      </trkpt>
      <trkpt lat="44.38037" lon="4.0324">
        <ele>740</ele>
        <time>2014-05-29T13:01:12Z</time>
      </trkpt>
      <trkpt lat="44.38015" lon="4.03219">
        <ele>740</ele>
        <time>2014-05-29T13:01:25Z</time>
      </trkpt>
      <trkpt lat="44.37998" lon="4.03194">
        <ele>731</ele>
        <time>2014-05-29T13:01:41Z</time>
      </trkpt>
      <trkpt lat="44.37979" lon="4.03165">
        <ele>745</ele>
        <time>2014-05-29T13:01:54Z</time>
      </trkpt>
      <trkpt lat="44.3796" lon="4.03137">
        <ele>743</ele>
        <time>2014-05-29T13:02:03Z</time>
      </trkpt>
      <trkpt lat="44.37937" lon="4.03113">
        <ele>743</ele>
        <time>2014-05-29T13:02:12Z</time>
      </trkpt>
      <trkpt lat="44.37914" lon="4.03091">
        <ele>738</ele>
        <time>2014-05-29T13:02:20Z</time>
      </trkpt>
      <trkpt lat="44.37893" lon="4.03067">
        <ele>746</ele>
        <time>2014-05-29T13:02:31Z</time>
      </trkpt>
      <trkpt lat="44.37871" lon="4.03042">
        <ele>747</ele>
        <time>2014-05-29T13:02:45Z</time>
      </trkpt>
      <trkpt lat="44.37857" lon="4.03016">
        <ele>748</ele>
        <time>2014-05-29T13:03:02Z</time>
      </trkpt>
      <trkpt lat="44.3785" lon="4.02988">
        <ele>759</ele>
        <time>2014-05-29T13:03:19Z</time>
      </trkpt>
      <trkpt lat="44.3785" lon="4.02959">
        <ele>765</ele>
        <time>2014-05-29T13:03:35Z</time>
      </trkpt>
      <trkpt lat="44.3785" lon="4.02925">
        <ele>766</ele>
        <time>2014-05-29T13:03:48Z</time>
      </trkpt>
      <trkpt lat="44.3785" lon="4.02897">
        <ele>774</ele>
        <time>2014-05-29T13:04:02Z</time>
      </trkpt>
      <trkpt lat="44.37849" lon="4.02865">
        <ele>776</ele>
        <time>2014-05-29T13:04:12Z</time>
      </trkpt>
      <trkpt lat="44.37839" lon="4.02834">
        <ele>770</ele>
        <time>2014-05-29T13:04:22Z</time>
      </trkpt>
      <trkpt lat="44.37822" lon="4.02808">
        <ele>762</ele>
        <time>2014-05-29T13:04:31Z</time>
      </trkpt>
      <trkpt lat="44.37803" lon="4.02782">
        <ele>762</ele>
        <time>2014-05-29T13:04:40Z</time>
      </trkpt>
      <trkpt lat="44.3778" lon="4.02758">
        <ele>759</ele>
        <time>2014-05-29T13:04:49Z</time>
      </trkpt>
      <trkpt lat="44.37768" lon="4.02728">
        <ele>768</ele>
        <time>2014-05-29T13:04:58Z</time>
      </trkpt>
      <trkpt lat="44.37758" lon="4.02697">
        <ele>772</ele>
        <time>2014-05-29T13:05:05Z</time>
      </trkpt>
      <trkpt lat="44.37738" lon="4.02668">
        <ele>762</ele>
        <time>2014-05-29T13:05:12Z</time>
      </trkpt>
      <trkpt lat="44.37722" lon="4.02638">
        <ele>767</ele>
        <time>2014-05-29T13:05:22Z</time>
      </trkpt>
      <trkpt lat="44.37696" lon="4.02619">
        <ele>765</ele>
        <time>2014-05-29T13:05:30Z</time>
      </trkpt>
      <trkpt lat="44.37668" lon="4.02607">
        <ele>764</ele>
        <time>2014-05-29T13:05:36Z</time>
      </trkpt>
      <trkpt lat="44.37639" lon="4.02598">
        <ele>757</ele>
        <time>2014-05-29T13:05:49Z</time>
      </trkpt>
      <trkpt lat="44.37611" lon="4.0259">
        <ele>757</ele>
        <time>2014-05-29T13:06:07Z</time>
      </trkpt>
      <trkpt lat="44.37588" lon="4.02608">
        <ele>756</ele>
        <time>2014-05-29T13:06:26Z</time>
      </trkpt>
      <trkpt lat="44.37568" lon="4.0263">
        <ele>758</ele>
        <time>2014-05-29T13:06:39Z</time>
      </trkpt>
      <trkpt lat="44.3754" lon="4.02637">
        <ele>761</ele>
        <time>2014-05-29T13:06:50Z</time>
      </trkpt>
      <trkpt lat="44.37509" lon="4.02633">
        <ele>764</ele>
        <time>2014-05-29T13:06:58Z</time>
      </trkpt>
      <trkpt lat="44.37445" lon="4.02667">
        <ele>779</ele>
        <time>2014-05-29T13:07:05Z</time>
      </trkpt>
      <trkpt lat="44.37462" lon="4.02729">
        <ele>774</ele>
        <time>2014-05-29T13:07:12Z</time>
      </trkpt>
      <trkpt lat="44.37473" lon="4.02787">
        <ele>773</ele>
        <time>2014-05-29T13:07:19Z</time>
      </trkpt>
      <trkpt lat="44.37476" lon="4.02817">
        <ele>771</ele>
        <time>2014-05-29T13:07:27Z</time>
      </trkpt>
      <trkpt lat="44.37473" lon="4.02838">
        <ele>772</ele>
        <time>2014-05-29T13:07:37Z</time>
      </trkpt>
      <trkpt lat="44.37482" lon="4.02851">
        <ele>769</ele>
        <time>2014-05-29T13:07:47Z</time>
      </trkpt>
      <trkpt lat="44.37476" lon="4.02866">
        <ele>772</ele>
        <time>2014-05-29T13:07:58Z</time>
      </trkpt>
      <trkpt lat="44.3748" lon="4.02872">
        <ele>771</ele>
        <time>2014-05-29T13:08:09Z</time>
      </trkpt>
      <trkpt lat="44.37471" lon="4.02906">
        <ele>771</ele>
        <time>2014-05-29T13:08:19Z</time>
      </trkpt>
      <trkpt lat="44.3746" lon="4.02936">
        <ele>768</ele>
        <time>2014-05-29T13:08:28Z</time>
      </trkpt>
      <trkpt lat="44.37445" lon="4.02967">
        <ele>769</ele>
        <time>2014-05-29T13:08:36Z</time>
      </trkpt>
      <trkpt lat="44.37435" lon="4.02994">
        <ele>772</ele>
        <time>2014-05-29T13:08:42Z</time>
      </trkpt>
      <trkpt lat="44.37421" lon="4.03023">
        <ele>765</ele>
        <time>2014-05-29T13:08:50Z</time>
      </trkpt>
      <trkpt lat="44.37407" lon="4.03049">
        <ele>782</ele>
        <time>2014-05-29T13:08:58Z</time>
      </trkpt>
      <trkpt lat="44.37398" lon="4.0308">
        <ele>778</ele>
        <time>2014-05-29T13:09:07Z</time>
      </trkpt>
      <trkpt lat="44.37391" lon="4.03111">
        <ele>775</ele>
        <time>2014-05-29T13:09:15Z</time>
      </trkpt>
      <trkpt lat="44.37388" lon="4.03143">
        <ele>774</ele>
        <time>2014-05-29T13:09:25Z</time>
      </trkpt>
      <trkpt lat="44.37386" lon="4.03175">
        <ele>767</ele>
        <time>2014-05-29T13:09:35Z</time>
      </trkpt>
      <trkpt lat="44.3736" lon="4.03192">
        <ele>769</ele>
        <time>2014-05-29T13:09:46Z</time>
      </trkpt>
      <trkpt lat="44.37333" lon="4.03186">
        <ele>775</ele>
        <time>2014-05-29T13:09:57Z</time>
      </trkpt>
      <trkpt lat="44.3731" lon="4.03167">
        <ele>775</ele>
        <time>2014-05-29T13:10:08Z</time>
      </trkpt>
      <trkpt lat="44.37292" lon="4.03138">
        <ele>791</ele>
        <time>2014-05-29T13:10:16Z</time>
      </trkpt>
      <trkpt lat="44.37269" lon="4.03129">
        <ele>793</ele>
        <time>2014-05-29T13:10:24Z</time>
      </trkpt>
      <trkpt lat="44.3724" lon="4.03121">
        <ele>798</ele>
        <time>2014-05-29T13:10:31Z</time>
      </trkpt>
      <trkpt lat="44.37211" lon="4.03126">
        <ele>797</ele>
        <time>2014-05-29T13:10:39Z</time>
      </trkpt>
      <trkpt lat="44.37179" lon="4.0313">
        <ele>795</ele>
        <time>2014-05-29T13:10:47Z</time>
      </trkpt>
      <trkpt lat="44.37152" lon="4.03152">
        <ele>794</ele>
        <time>2014-05-29T13:10:55Z</time>
      </trkpt>
      <trkpt lat="44.37127" lon="4.03174">
        <ele>780</ele>
        <time>2014-05-29T13:11:02Z</time>
      </trkpt>
      <trkpt lat="44.371" lon="4.03194">
        <ele>782</ele>
        <time>2014-05-29T13:11:08Z</time>
      </trkpt>
      <trkpt lat="44.37074" lon="4.03216">
        <ele>785</ele>
        <time>2014-05-29T13:11:13Z</time>
      </trkpt>
      <trkpt lat="44.37049" lon="4.03246">
        <ele>783</ele>
        <time>2014-05-29T13:11:19Z</time>
      </trkpt>
      <trkpt lat="44.37026" lon="4.03276">
        <ele>766</ele>
        <time>2014-05-29T13:11:22Z</time>
      </trkpt>
      <trkpt lat="44.37" lon="4.03294">
        <ele>770</ele>
        <time>2014-05-29T13:11:27Z</time>
      </trkpt>
      <trkpt lat="44.36974" lon="4.03313">
        <ele>768</ele>
        <time>2014-05-29T13:11:31Z</time>
      </trkpt>
      <trkpt lat="44.36945" lon="4.03327">
        <ele>769</ele>
        <time>2014-05-29T13:11:34Z</time>
      </trkpt>
      <trkpt lat="44.36916" lon="4.03344">
        <ele>763</ele>
        <time>2014-05-29T13:11:40Z</time>
      </trkpt>
      <trkpt lat="44.36896" lon="4.0334">
        <ele>759</ele>
        <time>2014-05-29T13:11:48Z</time>
      </trkpt>
      <trkpt lat="44.36892" lon="4.03352">
        <ele>757</ele>
        <time>2014-05-29T13:11:54Z</time>
      </trkpt>
      <trkpt lat="44.36888" lon="4.03372">
        <ele>755</ele>
        <time>2014-05-29T13:12:00Z</time>
      </trkpt>
      <trkpt lat="44.36884" lon="4.03383">
        <ele>754</ele>
        <time>2014-05-29T13:13:32Z</time>
      </trkpt>
      <trkpt lat="44.36859" lon="4.03337">
        <ele>752</ele>
        <time>2014-05-29T13:15:04Z</time>
      </trkpt>
      <trkpt lat="44.36856" lon="4.03302">
        <ele>757</ele>
        <time>2014-05-29T13:15:08Z</time>
      </trkpt>
      <trkpt lat="44.36857" lon="4.03266">
        <ele>756</ele>
        <time>2014-05-29T13:15:11Z</time>
      </trkpt>
      <trkpt lat="44.36849" lon="4.03226">
        <ele>758</ele>
        <time>2014-05-29T13:15:16Z</time>
      </trkpt>
      <trkpt lat="44.36841" lon="4.03194">
        <ele>758</ele>
        <time>2014-05-29T13:15:20Z</time>
      </trkpt>
      <trkpt lat="44.36823" lon="4.03168">
        <ele>743</ele>
        <time>2014-05-29T13:15:25Z</time>
      </trkpt>
      <trkpt lat="44.36812" lon="4.03139">
        <ele>736</ele>
        <time>2014-05-29T13:15:33Z</time>
      </trkpt>
      <trkpt lat="44.36806" lon="4.03108">
        <ele>735</ele>
        <time>2014-05-29T13:15:46Z</time>
      </trkpt>
      <trkpt lat="44.36803" lon="4.03079">
        <ele>740</ele>
        <time>2014-05-29T13:16:02Z</time>
      </trkpt>
      <trkpt lat="44.3679" lon="4.03054">
        <ele>738</ele>
        <time>2014-05-29T13:16:26Z</time>
      </trkpt>
      <trkpt lat="44.36791" lon="4.03013">
        <ele>742</ele>
        <time>2014-05-29T13:16:36Z</time>
      </trkpt>
      <trkpt lat="44.3677" lon="4.03">
        <ele>745</ele>
        <time>2014-05-29T13:16:50Z</time>
      </trkpt>
      <trkpt lat="44.36744" lon="4.02989">
        <ele>728</ele>
        <time>2014-05-29T13:17:02Z</time>
      </trkpt>
      <trkpt lat="44.36724" lon="4.02967">
        <ele>726</ele>
        <time>2014-05-29T13:17:08Z</time>
      </trkpt>
      <trkpt lat="44.36702" lon="4.02942">
        <ele>725</ele>
        <time>2014-05-29T13:17:16Z</time>
      </trkpt>
      <trkpt lat="44.36686" lon="4.02922">
        <ele>722</ele>
        <time>2014-05-29T13:17:29Z</time>
      </trkpt>
      <trkpt lat="44.36677" lon="4.02901">
        <ele>729</ele>
        <time>2014-05-29T13:18:22Z</time>
      </trkpt>
      <trkpt lat="44.36673" lon="4.02854">
        <ele>736</ele>
        <time>2014-05-29T13:18:28Z</time>
      </trkpt>
      <trkpt lat="44.36668" lon="4.02844">
        <ele>736</ele>
        <time>2014-05-29T13:18:36Z</time>
      </trkpt>
      <trkpt lat="44.36657" lon="4.02833">
        <ele>736</ele>
        <time>2014-05-29T13:18:43Z</time>
      </trkpt>
      <trkpt lat="44.36632" lon="4.02811">
        <ele>738</ele>
        <time>2014-05-29T13:18:51Z</time>
      </trkpt>
      <trkpt lat="44.36614" lon="4.0279">
        <ele>740</ele>
        <time>2014-05-29T13:19:03Z</time>
      </trkpt>
      <trkpt lat="44.36584" lon="4.02752">
        <ele>745</ele>
        <time>2014-05-29T13:19:14Z</time>
      </trkpt>
      <trkpt lat="44.36562" lon="4.02735">
        <ele>738</ele>
        <time>2014-05-29T13:19:24Z</time>
      </trkpt>
      <trkpt lat="44.36548" lon="4.02703">
        <ele>736</ele>
        <time>2014-05-29T13:19:35Z</time>
      </trkpt>
      <trkpt lat="44.36538" lon="4.0267">
        <ele>735</ele>
        <time>2014-05-29T13:19:44Z</time>
      </trkpt>
      <trkpt lat="44.36528" lon="4.02639">
        <ele>741</ele>
        <time>2014-05-29T13:19:58Z</time>
      </trkpt>
      <trkpt lat="44.36526" lon="4.02606">
        <ele>743</ele>
        <time>2014-05-29T13:20:11Z</time>
      </trkpt>
      <trkpt lat="44.3653" lon="4.02573">
        <ele>746</ele>
        <time>2014-05-29T13:20:22Z</time>
      </trkpt>
      <trkpt lat="44.36543" lon="4.02535">
        <ele>749</ele>
        <time>2014-05-29T13:20:31Z</time>
      </trkpt>
      <trkpt lat="44.36556" lon="4.02507">
        <ele>752</ele>
        <time>2014-05-29T13:20:40Z</time>
      </trkpt>
      <trkpt lat="44.36557" lon="4.02477">
        <ele>754</ele>
        <time>2014-05-29T13:20:46Z</time>
      </trkpt>
      <trkpt lat="44.36544" lon="4.02446">
        <ele>753</ele>
        <time>2014-05-29T13:20:52Z</time>
      </trkpt>
      <trkpt lat="44.36523" lon="4.02418">
        <ele>749</ele>
        <time>2014-05-29T13:20:58Z</time>
      </trkpt>
      <trkpt lat="44.36525" lon="4.02381">
        <ele>759</ele>
        <time>2014-05-29T13:21:05Z</time>
      </trkpt>
      <trkpt lat="44.36533" lon="4.02347">
        <ele>763</ele>
        <time>2014-05-29T13:21:13Z</time>
      </trkpt>
      <trkpt lat="44.36543" lon="4.02321">
        <ele>771</ele>
        <time>2014-05-29T13:21:22Z</time>
      </trkpt>
      <trkpt lat="44.36534" lon="4.02353">
        <ele>762</ele>
        <time>2014-05-29T13:21:31Z</time>
      </trkpt>
      <trkpt lat="44.36523" lon="4.02325">
        <ele>768</ele>
        <time>2014-05-29T13:21:51Z</time>
      </trkpt>
      <trkpt lat="44.36506" lon="4.02332">
        <ele>762</ele>
        <time>2014-05-29T13:22:01Z</time>
      </trkpt>
      <trkpt lat="44.36462" lon="4.0236">
        <ele>756</ele>
        <time>2014-05-29T13:22:10Z</time>
      </trkpt>
      <trkpt lat="44.36413" lon="4.02409">
        <ele>755</ele>
        <time>2014-05-29T13:22:17Z</time>
      </trkpt>
      <trkpt lat="44.36385" lon="4.0241">
        <ele>761</ele>
        <time>2014-05-29T13:22:26Z</time>
      </trkpt>
      <trkpt lat="44.36355" lon="4.02392">
        <ele>765</ele>
        <time>2014-05-29T13:22:33Z</time>
      </trkpt>
      <trkpt lat="44.36327" lon="4.02379">
        <ele>764</ele>
        <time>2014-05-29T13:22:44Z</time>
      </trkpt>
      <trkpt lat="44.36303" lon="4.02362">
        <ele>762</ele>
        <time>2014-05-29T13:22:53Z</time>
      </trkpt>
      <trkpt lat="44.36293" lon="4.02386">
        <ele>763</ele>
        <time>2014-05-29T13:23:33Z</time>
      </trkpt>
      <trkpt lat="44.36306" lon="4.02361">
        <ele>762</ele>
        <time>2014-05-29T13:24:33Z</time>
      </trkpt>
      <trkpt lat="44.36323" lon="4.0238">
        <ele>764</ele>
        <time>2014-05-29T13:24:40Z</time>
      </trkpt>
      <trkpt lat="44.36321" lon="4.02394">
        <ele>765</ele>
        <time>2014-05-29T13:25:27Z</time>
      </trkpt>
      <trkpt lat="44.36315" lon="4.02405">
        <ele>765</ele>
        <time>2014-05-29T13:26:55Z</time>
      </trkpt>
      <trkpt lat="44.36299" lon="4.02508">
        <ele>773</ele>
      </trkpt>
      <trkpt lat="44.36275" lon="4.02558">
        <ele>776</ele>
      </trkpt>
      <trkpt lat="44.36232" lon="4.02631">
        <ele>793</ele>
      </trkpt>
      <trkpt lat="44.36196" lon="4.02639">
        <ele>798</ele>
        <time>2014-05-29T13:31:01Z</time>
      </trkpt>
      <trkpt lat="44.36199" lon="4.02639">
        <ele>798</ele>
        <time>2014-05-29T13:34:55Z</time>
      </trkpt>
      <trkpt lat="44.36221" lon="4.02658">
        <ele>792</ele>
        <time>2014-05-29T13:35:03Z</time>
      </trkpt>
      <trkpt lat="44.36219" lon="4.02658">
        <ele>793</ele>
        <time>2014-05-29T13:35:14Z</time>
      </trkpt>
      <trkpt lat="44.36219" lon="4.02658">
        <ele>793</ele>
        <time>2014-05-29T13:35:39Z</time>
      </trkpt>
      <trkpt lat="44.36223" lon="4.02663">
        <ele>791</ele>
        <time>2014-05-29T13:39:17Z</time>
      </trkpt>
      <trkpt lat="44.36205" lon="4.02656">
        <ele>796</ele>
        <time>2014-05-29T13:42:51Z</time>
      </trkpt>
      <trkpt lat="44.36082" lon="4.02807">
        <ele>798</ele>
        <time>2014-05-29T13:43:10Z</time>
      </trkpt>
      <trkpt lat="44.36024" lon="4.02879">
        <ele>787</ele>
        <time>2014-05-29T13:43:42Z</time>
      </trkpt>
      <trkpt lat="44.35998" lon="4.0288">
        <ele>795</ele>
        <time>2014-05-29T13:43:52Z</time>
      </trkpt>
      <trkpt lat="44.35968" lon="4.02869">
        <ele>797</ele>
        <time>2014-05-29T13:44:06Z</time>
      </trkpt>
      <trkpt lat="44.35943" lon="4.02856">
        <ele>799</ele>
        <time>2014-05-29T13:44:19Z</time>
      </trkpt>
      <trkpt lat="44.35914" lon="4.02866">
        <ele>800</ele>
        <time>2014-05-29T13:44:31Z</time>
      </trkpt>
      <trkpt lat="44.35885" lon="4.02876">
        <ele>798</ele>
        <time>2014-05-29T13:44:41Z</time>
      </trkpt>
      <trkpt lat="44.35865" lon="4.02871">
        <ele>798</ele>
        <time>2014-05-29T13:44:47Z</time>
      </trkpt>
      <trkpt lat="44.3585" lon="4.02862">
        <ele>799</ele>
        <time>2014-05-29T13:44:52Z</time>
      </trkpt>
      <trkpt lat="44.35838" lon="4.02852">
        <ele>801</ele>
        <time>2014-05-29T13:44:55Z</time>
      </trkpt>
      <trkpt lat="44.3582" lon="4.02842">
        <ele>799</ele>
        <time>2014-05-29T13:44:58Z</time>
      </trkpt>
      <trkpt lat="44.35805" lon="4.02834">
        <ele>797</ele>
        <time>2014-05-29T13:45:01Z</time>
      </trkpt>
      <trkpt lat="44.35789" lon="4.02834">
        <ele>796</ele>
        <time>2014-05-29T13:45:04Z</time>
      </trkpt>
      <trkpt lat="44.35774" lon="4.02832">
        <ele>794</ele>
        <time>2014-05-29T13:45:07Z</time>
      </trkpt>
      <trkpt lat="44.35759" lon="4.02837">
        <ele>794</ele>
        <time>2014-05-29T13:45:12Z</time>
      </trkpt>
      <trkpt lat="44.35746" lon="4.0284">
        <ele>792</ele>
        <time>2014-05-29T13:45:18Z</time>
      </trkpt>
      <trkpt lat="44.35733" lon="4.02853">
        <ele>790</ele>
        <time>2014-05-29T13:45:26Z</time>
      </trkpt>
      <trkpt lat="44.35721" lon="4.0286">
        <ele>790</ele>
        <time>2014-05-29T13:45:33Z</time>
      </trkpt>
      <trkpt lat="44.35705" lon="4.02861">
        <ele>789</ele>
        <time>2014-05-29T13:45:42Z</time>
      </trkpt>
      <trkpt lat="44.3569" lon="4.02855">
        <ele>790</ele>
        <time>2014-05-29T13:45:49Z</time>
      </trkpt>
      <trkpt lat="44.35676" lon="4.02847">
        <ele>791</ele>
        <time>2014-05-29T13:45:56Z</time>
      </trkpt>
      <trkpt lat="44.35658" lon="4.02835">
        <ele>792</ele>
        <time>2014-05-29T13:46:01Z</time>
      </trkpt>
      <trkpt lat="44.35642" lon="4.02824">
        <ele>790</ele>
        <time>2014-05-29T13:46:06Z</time>
      </trkpt>
      <trkpt lat="44.35627" lon="4.0282">
        <ele>790</ele>
        <time>2014-05-29T13:46:10Z</time>
      </trkpt>
      <trkpt lat="44.35618" lon="4.02827">
        <ele>790</ele>
        <time>2014-05-29T13:46:16Z</time>
      </trkpt>
      <trkpt lat="44.35609" lon="4.02831">
        <ele>791</ele>
        <time>2014-05-29T13:46:20Z</time>
      </trkpt>
      <trkpt lat="44.35591" lon="4.02825">
        <ele>792</ele>
        <time>2014-05-29T13:46:23Z</time>
      </trkpt>
      <trkpt lat="44.35577" lon="4.02828">
        <ele>794</ele>
        <time>2014-05-29T13:46:28Z</time>
      </trkpt>
      <trkpt lat="44.35562" lon="4.02833">
        <ele>793</ele>
        <time>2014-05-29T13:46:33Z</time>
      </trkpt>
      <trkpt lat="44.35546" lon="4.02835">
        <ele>793</ele>
        <time>2014-05-29T13:46:38Z</time>
      </trkpt>
      <trkpt lat="44.35534" lon="4.02843">
        <ele>793</ele>
        <time>2014-05-29T13:46:44Z</time>
      </trkpt>
      <trkpt lat="44.35523" lon="4.02856">
        <ele>792</ele>
        <time>2014-05-29T13:46:51Z</time>
      </trkpt>
      <trkpt lat="44.35512" lon="4.02865">
        <ele>792</ele>
        <time>2014-05-29T13:46:58Z</time>
      </trkpt>
      <trkpt lat="44.35498" lon="4.02871">
        <ele>795</ele>
        <time>2014-05-29T13:47:07Z</time>
      </trkpt>
      <trkpt lat="44.35485" lon="4.02878">
        <ele>795</ele>
        <time>2014-05-29T13:47:16Z</time>
      </trkpt>
      <trkpt lat="44.35471" lon="4.02882">
        <ele>796</ele>
        <time>2014-05-29T13:47:23Z</time>
      </trkpt>
      <trkpt lat="44.35458" lon="4.02889">
        <ele>796</ele>
        <time>2014-05-29T13:47:29Z</time>
      </trkpt>
      <trkpt lat="44.35447" lon="4.02899">
        <ele>797</ele>
        <time>2014-05-29T13:47:35Z</time>
      </trkpt>
      <trkpt lat="44.35434" lon="4.02905">
        <ele>799</ele>
        <time>2014-05-29T13:47:40Z</time>
      </trkpt>
      <trkpt lat="44.35419" lon="4.02912">
        <ele>802</ele>
        <time>2014-05-29T13:47:45Z</time>
      </trkpt>
      <trkpt lat="44.3541" lon="4.02922">
        <ele>802</ele>
        <time>2014-05-29T13:47:53Z</time>
      </trkpt>
      <trkpt lat="44.35394" lon="4.02925">
        <ele>801</ele>
        <time>2014-05-29T13:47:58Z</time>
      </trkpt>
      <trkpt lat="44.3538" lon="4.02922">
        <ele>801</ele>
        <time>2014-05-29T13:48:17Z</time>
      </trkpt>
      <trkpt lat="44.35365" lon="4.02984">
        <ele>801</ele>
        <time>2014-05-29T13:50:57Z</time>
      </trkpt>
      <trkpt lat="44.35362" lon="4.03">
        <ele>801</ele>
        <time>2014-05-29T13:51:03Z</time>
      </trkpt>
      <trkpt lat="44.35358" lon="4.03013">
        <ele>801</ele>
        <time>2014-05-29T13:51:08Z</time>
      </trkpt>
      <trkpt lat="44.3536" lon="4.03035">
        <ele>800</ele>
        <time>2014-05-29T13:51:13Z</time>
      </trkpt>
      <trkpt lat="44.3536" lon="4.03048">
        <ele>800</ele>
        <time>2014-05-29T13:51:16Z</time>
      </trkpt>
      <trkpt lat="44.35357" lon="4.03061">
        <ele>801</ele>
        <time>2014-05-29T13:51:21Z</time>
      </trkpt>
      <trkpt lat="44.3535" lon="4.03079">
        <ele>804</ele>
        <time>2014-05-29T13:51:27Z</time>
      </trkpt>
      <trkpt lat="44.35348" lon="4.03096">
        <ele>803</ele>
        <time>2014-05-29T13:51:35Z</time>
      </trkpt>
      <trkpt lat="44.35346" lon="4.03109">
        <ele>802</ele>
        <time>2014-05-29T13:51:43Z</time>
      </trkpt>
      <trkpt lat="44.35343" lon="4.03123">
        <ele>802</ele>
        <time>2014-05-29T13:51:52Z</time>
      </trkpt>
      <trkpt lat="44.35341" lon="4.03138">
        <ele>803</ele>
        <time>2014-05-29T13:52:00Z</time>
      </trkpt>
      <trkpt lat="44.35339" lon="4.03154">
        <ele>806</ele>
        <time>2014-05-29T13:52:08Z</time>
      </trkpt>
      <trkpt lat="44.35339" lon="4.03166">
        <ele>810</ele>
        <time>2014-05-29T13:52:18Z</time>
      </trkpt>
      <trkpt lat="44.35334" lon="4.03183">
        <ele>806</ele>
        <time>2014-05-29T13:52:27Z</time>
      </trkpt>
      <trkpt lat="44.35332" lon="4.03196">
        <ele>811</ele>
        <time>2014-05-29T13:52:36Z</time>
      </trkpt>
      <trkpt lat="44.3533" lon="4.03212">
        <ele>811</ele>
        <time>2014-05-29T13:52:40Z</time>
      </trkpt>
      <trkpt lat="44.3533" lon="4.03228">
        <ele>811</ele>
        <time>2014-05-29T13:52:58Z</time>
      </trkpt>
      <trkpt lat="44.3533" lon="4.03242">
        <ele>811</ele>
        <time>2014-05-29T13:53:06Z</time>
      </trkpt>
      <trkpt lat="44.35332" lon="4.03259">
        <ele>811</ele>
        <time>2014-05-29T13:53:12Z</time>
      </trkpt>
      <trkpt lat="44.35332" lon="4.03273">
        <ele>811</ele>
        <time>2014-05-29T13:53:21Z</time>
      </trkpt>
      <trkpt lat="44.35331" lon="4.03288">
        <ele>811</ele>
        <time>2014-05-29T13:53:33Z</time>
      </trkpt>
      <trkpt lat="44.35331" lon="4.03302">
        <ele>812</ele>
        <time>2014-05-29T13:53:43Z</time>
      </trkpt>
      <trkpt lat="44.3533" lon="4.03318">
        <ele>814</ele>
        <time>2014-05-29T13:53:54Z</time>
      </trkpt>
      <trkpt lat="44.35331" lon="4.03333">
        <ele>817</ele>
        <time>2014-05-29T13:54:06Z</time>
      </trkpt>
      <trkpt lat="44.3533" lon="4.03347">
        <ele>816</ele>
        <time>2014-05-29T13:54:14Z</time>
      </trkpt>
      <trkpt lat="44.35333" lon="4.03361">
        <ele>816</ele>
        <time>2014-05-29T13:54:50Z</time>
      </trkpt>
      <trkpt lat="44.35339" lon="4.03374">
        <ele>816</ele>
        <time>2014-05-29T13:55:06Z</time>
      </trkpt>
      <trkpt lat="44.35343" lon="4.0339">
        <ele>819</ele>
        <time>2014-05-29T13:55:21Z</time>
      </trkpt>
      <trkpt lat="44.35345" lon="4.03404">
        <ele>822</ele>
        <time>2014-05-29T13:55:30Z</time>
      </trkpt>
      <trkpt lat="44.35349" lon="4.03418">
        <ele>828</ele>
        <time>2014-05-29T13:55:55Z</time>
      </trkpt>
      <trkpt lat="44.35351" lon="4.03435">
        <ele>827</ele>
        <time>2014-05-29T13:56:03Z</time>
      </trkpt>
      <trkpt lat="44.35357" lon="4.03446">
        <ele>827</ele>
        <time>2014-05-29T13:56:26Z</time>
      </trkpt>
      <trkpt lat="44.35363" lon="4.03458">
        <ele>826</ele>
        <time>2014-05-29T13:56:46Z</time>
      </trkpt>
      <trkpt lat="44.35364" lon="4.03475">
        <ele>828</ele>
        <time>2014-05-29T13:57:10Z</time>
      </trkpt>
      <trkpt lat="44.35365" lon="4.03492">
        <ele>829</ele>
        <time>2014-05-29T13:57:25Z</time>
      </trkpt>
      <trkpt lat="44.35365" lon="4.03503">
        <ele>834</ele>
        <time>2014-05-29T13:59:00Z</time>
      </trkpt>
      <trkpt lat="44.35364" lon="4.03516">
        <ele>834</ele>
        <time>2014-05-29T13:59:57Z</time>
      </trkpt>
      <trkpt lat="44.3536" lon="4.03534">
        <ele>835</ele>
        <time>2014-05-29T14:00:46Z</time>
      </trkpt>
      <trkpt lat="44.35358" lon="4.03544">
        <ele>836</ele>
        <time>2014-05-29T14:01:48Z</time>
      </trkpt>
      <trkpt lat="44.35366" lon="4.0356">
        <ele>835</ele>
        <time>2014-05-29T14:02:49Z</time>
      </trkpt>
      <trkpt lat="44.35371" lon="4.03566">
        <ele>835</ele>
        <time>2014-05-29T14:03:32Z</time>
      </trkpt>
      <trkpt lat="44.35361" lon="4.03617">
        <ele>843</ele>
        <time>2014-05-29T14:03:36Z</time>
      </trkpt>
      <trkpt lat="44.35366" lon="4.03633">
        <ele>843</ele>
        <time>2014-05-29T14:04:06Z</time>
      </trkpt>
      <trkpt lat="44.35363" lon="4.03649">
        <ele>845</ele>
        <time>2014-05-29T14:04:38Z</time>
      </trkpt>
      <trkpt lat="44.35358" lon="4.0366">
        <ele>848</ele>
        <time>2014-05-29T14:05:12Z</time>
      </trkpt>
      <trkpt lat="44.35356" lon="4.03674">
        <ele>852</ele>
        <time>2014-05-29T14:05:47Z</time>
      </trkpt>
      <trkpt lat="44.35354" lon="4.03691">
        <ele>852</ele>
        <time>2014-05-29T14:06:04Z</time>
      </trkpt>
      <trkpt lat="44.35358" lon="4.03706">
        <ele>851</ele>
        <time>2014-05-29T14:06:15Z</time>
      </trkpt>
      <trkpt lat="44.35356" lon="4.03719">
        <ele>851</ele>
        <time>2014-05-29T14:06:48Z</time>
      </trkpt>
      <trkpt lat="44.3535" lon="4.03734">
        <ele>854</ele>
        <time>2014-05-29T14:07:03Z</time>
      </trkpt>
      <trkpt lat="44.35346" lon="4.0375">
        <ele>854</ele>
        <time>2014-05-29T14:07:11Z</time>
      </trkpt>
      <trkpt lat="44.3534" lon="4.03761">
        <ele>854</ele>
        <time>2014-05-29T14:07:35Z</time>
      </trkpt>
      <trkpt lat="44.35335" lon="4.03776">
        <ele>849</ele>
        <time>2014-05-29T14:07:57Z</time>
      </trkpt>
      <trkpt lat="44.35327" lon="4.03784">
        <ele>851</ele>
        <time>2014-05-29T14:08:23Z</time>
      </trkpt>
      <trkpt lat="44.35319" lon="4.03799">
        <ele>849</ele>
        <time>2014-05-29T14:08:48Z</time>
      </trkpt>
      <trkpt lat="44.35313" lon="4.03811">
        <ele>848</ele>
        <time>2014-05-29T14:09:22Z</time>
      </trkpt>
      <trkpt lat="44.35305" lon="4.03824">
        <ele>847</ele>
        <time>2014-05-29T14:09:37Z</time>
      </trkpt>
      <trkpt lat="44.35297" lon="4.03837">
        <ele>841</ele>
        <time>2014-05-29T14:09:52Z</time>
      </trkpt>
      <trkpt lat="44.35288" lon="4.03851">
        <ele>840</ele>
        <time>2014-05-29T14:10:08Z</time>
      </trkpt>
      <trkpt lat="44.35281" lon="4.03863">
        <ele>839</ele>
        <time>2014-05-29T14:10:17Z</time>
      </trkpt>
      <trkpt lat="44.35275" lon="4.03874">
        <ele>839</ele>
        <time>2014-05-29T14:10:50Z</time>
      </trkpt>
      <trkpt lat="44.35268" lon="4.03888">
        <ele>839</ele>
        <time>2014-05-29T14:11:06Z</time>
      </trkpt>
      <trkpt lat="44.35263" lon="4.03902">
        <ele>839</ele>
        <time>2014-05-29T14:11:19Z</time>
      </trkpt>
      <trkpt lat="44.35256" lon="4.03917">
        <ele>840</ele>
        <time>2014-05-29T14:11:32Z</time>
      </trkpt>
      <trkpt lat="44.3525" lon="4.03931">
        <ele>838</ele>
        <time>2014-05-29T14:11:46Z</time>
      </trkpt>
      <trkpt lat="44.35244" lon="4.03945">
        <ele>835</ele>
        <time>2014-05-29T14:12:00Z</time>
      </trkpt>
      <trkpt lat="44.3524" lon="4.03959">
        <ele>833</ele>
        <time>2014-05-29T14:12:11Z</time>
      </trkpt>
      <trkpt lat="44.35235" lon="4.03973">
        <ele>832</ele>
        <time>2014-05-29T14:12:23Z</time>
      </trkpt>
      <trkpt lat="44.35229" lon="4.03988">
        <ele>831</ele>
        <time>2014-05-29T14:12:34Z</time>
      </trkpt>
      <trkpt lat="44.35223" lon="4.03998">
        <ele>831</ele>
        <time>2014-05-29T14:12:44Z</time>
      </trkpt>
      <trkpt lat="44.35216" lon="4.04013">
        <ele>829</ele>
        <time>2014-05-29T14:12:56Z</time>
      </trkpt>
      <trkpt lat="44.35209" lon="4.04026">
        <ele>830</ele>
        <time>2014-05-29T14:13:08Z</time>
      </trkpt>
      <trkpt lat="44.35204" lon="4.0404">
        <ele>830</ele>
        <time>2014-05-29T14:13:20Z</time>
      </trkpt>
      <trkpt lat="44.35203" lon="4.04056">
        <ele>830</ele>
        <time>2014-05-29T14:13:32Z</time>
      </trkpt>
      <trkpt lat="44.35201" lon="4.0407">
        <ele>831</ele>
        <time>2014-05-29T14:13:41Z</time>
      </trkpt>
      <trkpt lat="44.35197" lon="4.04086">
        <ele>832</ele>
        <time>2014-05-29T14:13:52Z</time>
      </trkpt>
      <trkpt lat="44.35192" lon="4.041">
        <ele>833</ele>
        <time>2014-05-29T14:14:04Z</time>
      </trkpt>
      <trkpt lat="44.35191" lon="4.04111">
        <ele>832</ele>
        <time>2014-05-29T14:14:11Z</time>
      </trkpt>
      <trkpt lat="44.3519" lon="4.04129">
        <ele>833</ele>
        <time>2014-05-29T14:14:32Z</time>
      </trkpt>
      <trkpt lat="44.35189" lon="4.04145">
        <ele>834</ele>
        <time>2014-05-29T14:14:39Z</time>
      </trkpt>
      <trkpt lat="44.35192" lon="4.04159">
        <ele>834</ele>
        <time>2014-05-29T14:14:48Z</time>
      </trkpt>
      <trkpt lat="44.35195" lon="4.04173">
        <ele>835</ele>
        <time>2014-05-29T14:14:57Z</time>
      </trkpt>
      <trkpt lat="44.35195" lon="4.0419">
        <ele>834</ele>
        <time>2014-05-29T14:15:07Z</time>
      </trkpt>
      <trkpt lat="44.35187" lon="4.042">
        <ele>835</ele>
        <time>2014-05-29T14:15:18Z</time>
      </trkpt>
      <trkpt lat="44.35172" lon="4.04207">
        <ele>837</ele>
        <time>2014-05-29T14:15:27Z</time>
      </trkpt>
      <trkpt lat="44.35158" lon="4.0421">
        <ele>843</ele>
        <time>2014-05-29T14:15:34Z</time>
      </trkpt>
      <trkpt lat="44.35144" lon="4.04214">
        <ele>843</ele>
        <time>2014-05-29T14:15:39Z</time>
      </trkpt>
      <trkpt lat="44.35132" lon="4.04228">
        <ele>843</ele>
        <time>2014-05-29T14:15:45Z</time>
      </trkpt>
      <trkpt lat="44.3512" lon="4.04239">
        <ele>842</ele>
        <time>2014-05-29T14:15:51Z</time>
      </trkpt>
      <trkpt lat="44.35109" lon="4.04246">
        <ele>842</ele>
        <time>2014-05-29T14:15:55Z</time>
      </trkpt>
      <trkpt lat="44.35092" lon="4.04259">
        <ele>840</ele>
        <time>2014-05-29T14:15:59Z</time>
      </trkpt>
      <trkpt lat="44.3508" lon="4.04274">
        <ele>837</ele>
        <time>2014-05-29T14:16:03Z</time>
      </trkpt>
      <trkpt lat="44.3507" lon="4.04287">
        <ele>835</ele>
        <time>2014-05-29T14:16:06Z</time>
      </trkpt>
      <trkpt lat="44.3506" lon="4.04296">
        <ele>834</ele>
        <time>2014-05-29T14:16:09Z</time>
      </trkpt>
      <trkpt lat="44.35049" lon="4.04308">
        <ele>834</ele>
        <time>2014-05-29T14:16:13Z</time>
      </trkpt>
      <trkpt lat="44.35039" lon="4.04319">
        <ele>833</ele>
        <time>2014-05-29T14:16:19Z</time>
      </trkpt>
      <trkpt lat="44.3503" lon="4.04332">
        <ele>833</ele>
        <time>2014-05-29T14:16:26Z</time>
      </trkpt>
      <trkpt lat="44.3502" lon="4.04345">
        <ele>828</ele>
        <time>2014-05-29T14:16:31Z</time>
      </trkpt>
      <trkpt lat="44.3501" lon="4.04357">
        <ele>827</ele>
        <time>2014-05-29T14:16:36Z</time>
      </trkpt>
      <trkpt lat="44.35" lon="4.04371">
        <ele>823</ele>
        <time>2014-05-29T14:16:41Z</time>
      </trkpt>
      <trkpt lat="44.34991" lon="4.04383">
        <ele>822</ele>
        <time>2014-05-29T14:16:47Z</time>
      </trkpt>
      <trkpt lat="44.3498" lon="4.04395">
        <ele>821</ele>
        <time>2014-05-29T14:16:53Z</time>
      </trkpt>
      <trkpt lat="44.34969" lon="4.04406">
        <ele>821</ele>
        <time>2014-05-29T14:16:59Z</time>
      </trkpt>
      <trkpt lat="44.34959" lon="4.04416">
        <ele>821</ele>
        <time>2014-05-29T14:17:03Z</time>
      </trkpt>
      <trkpt lat="44.34946" lon="4.04428">
        <ele>815</ele>
        <time>2014-05-29T14:17:08Z</time>
      </trkpt>
      <trkpt lat="44.34936" lon="4.04442">
        <ele>814</ele>
        <time>2014-05-29T14:17:12Z</time>
      </trkpt>
      <trkpt lat="44.34926" lon="4.04453">
        <ele>814</ele>
        <time>2014-05-29T14:17:17Z</time>
      </trkpt>
      <trkpt lat="44.34913" lon="4.04467">
        <ele>811</ele>
        <time>2014-05-29T14:17:22Z</time>
      </trkpt>
      <trkpt lat="44.34905" lon="4.0448">
        <ele>810</ele>
        <time>2014-05-29T14:17:26Z</time>
      </trkpt>
      <trkpt lat="44.34895" lon="4.04494">
        <ele>810</ele>
        <time>2014-05-29T14:17:31Z</time>
      </trkpt>
      <trkpt lat="44.34883" lon="4.04507">
        <ele>808</ele>
        <time>2014-05-29T14:17:35Z</time>
      </trkpt>
      <trkpt lat="44.34875" lon="4.04521">
        <ele>808</ele>
        <time>2014-05-29T14:17:39Z</time>
      </trkpt>
      <trkpt lat="44.34866" lon="4.04534">
        <ele>807</ele>
        <time>2014-05-29T14:17:43Z</time>
      </trkpt>
      <trkpt lat="44.34859" lon="4.04546">
        <ele>808</ele>
        <time>2014-05-29T14:17:47Z</time>
      </trkpt>
      <trkpt lat="44.34853" lon="4.04561">
        <ele>808</ele>
        <time>2014-05-29T14:17:53Z</time>
      </trkpt>
      <trkpt lat="44.34848" lon="4.04576">
        <ele>810</ele>
        <time>2014-05-29T14:17:59Z</time>
      </trkpt>
      <trkpt lat="44.34844" lon="4.04591">
        <ele>807</ele>
        <time>2014-05-29T14:18:04Z</time>
      </trkpt>
      <trkpt lat="44.34838" lon="4.04605">
        <ele>805</ele>
        <time>2014-05-29T14:18:09Z</time>
      </trkpt>
      <trkpt lat="44.34831" lon="4.04619">
        <ele>806</ele>
        <time>2014-05-29T14:18:14Z</time>
      </trkpt>
      <trkpt lat="44.34824" lon="4.04633">
        <ele>805</ele>
        <time>2014-05-29T14:18:18Z</time>
      </trkpt>
      <trkpt lat="44.34819" lon="4.0465">
        <ele>804</ele>
        <time>2014-05-29T14:18:23Z</time>
      </trkpt>
      <trkpt lat="44.34813" lon="4.04665">
        <ele>803</ele>
        <time>2014-05-29T14:18:26Z</time>
      </trkpt>
      <trkpt lat="44.34805" lon="4.04676">
        <ele>797</ele>
        <time>2014-05-29T14:18:47Z</time>
      </trkpt>
      <trkpt lat="44.34803" lon="4.04697">
        <ele>796</ele>
        <time>2014-05-29T14:19:15Z</time>
      </trkpt>
      <trkpt lat="44.34788" lon="4.04703">
        <ele>795</ele>
        <time>2014-05-29T14:19:32Z</time>
      </trkpt>
      <trkpt lat="44.34778" lon="4.04713">
        <ele>795</ele>
        <time>2014-05-29T14:19:42Z</time>
      </trkpt>
      <trkpt lat="44.34766" lon="4.04717">
        <ele>794</ele>
        <time>2014-05-29T14:19:52Z</time>
      </trkpt>
      <trkpt lat="44.34749" lon="4.04721">
        <ele>789</ele>
        <time>2014-05-29T14:20:02Z</time>
      </trkpt>
      <trkpt lat="44.34734" lon="4.04718">
        <ele>789</ele>
        <time>2014-05-29T14:20:11Z</time>
      </trkpt>
      <trkpt lat="44.34718" lon="4.04717">
        <ele>788</ele>
        <time>2014-05-29T14:20:21Z</time>
      </trkpt>
      <trkpt lat="44.34704" lon="4.0472">
        <ele>786</ele>
        <time>2014-05-29T14:20:34Z</time>
      </trkpt>
      <trkpt lat="44.3469" lon="4.04719">
        <ele>785</ele>
        <time>2014-05-29T14:20:44Z</time>
      </trkpt>
      <trkpt lat="44.34674" lon="4.04719">
        <ele>783</ele>
        <time>2014-05-29T14:20:50Z</time>
      </trkpt>
      <trkpt lat="44.3466" lon="4.04719">
        <ele>772</ele>
        <time>2014-05-29T14:20:57Z</time>
      </trkpt>
      <trkpt lat="44.34644" lon="4.04726">
        <ele>771</ele>
        <time>2014-05-29T14:21:02Z</time>
      </trkpt>
      <trkpt lat="44.34629" lon="4.04731">
        <ele>770</ele>
        <time>2014-05-29T14:21:07Z</time>
      </trkpt>
      <trkpt lat="44.34614" lon="4.04735">
        <ele>769</ele>
        <time>2014-05-29T14:21:14Z</time>
      </trkpt>
      <trkpt lat="44.346" lon="4.04749">
        <ele>768</ele>
        <time>2014-05-29T14:21:19Z</time>
      </trkpt>
      <trkpt lat="44.34585" lon="4.04759">
        <ele>768</ele>
        <time>2014-05-29T14:21:25Z</time>
      </trkpt>
      <trkpt lat="44.34588" lon="4.04767">
        <ele>767</ele>
        <time>2014-05-29T14:21:30Z</time>
      </trkpt>
      <trkpt lat="44.34574" lon="4.0479">
        <ele>763</ele>
        <time>2014-05-29T14:21:35Z</time>
      </trkpt>
      <trkpt lat="44.34581" lon="4.04777">
        <ele>764</ele>
        <time>2014-05-29T14:21:38Z</time>
      </trkpt>
      <trkpt lat="44.34583" lon="4.04769">
        <ele>764</ele>
        <time>2014-05-29T14:21:41Z</time>
      </trkpt>
      <trkpt lat="44.34577" lon="4.04773">
        <ele>764</ele>
        <time>2014-05-29T14:21:44Z</time>
      </trkpt>
      <trkpt lat="44.34592" lon="4.04767">
        <ele>767</ele>
        <time>2014-05-29T14:21:47Z</time>
      </trkpt>
      <trkpt lat="44.3458" lon="4.04782">
        <ele>763</ele>
        <time>2014-05-29T14:21:49Z</time>
      </trkpt>
      <trkpt lat="44.34571" lon="4.04799">
        <ele>763</ele>
        <time>2014-05-29T14:21:53Z</time>
      </trkpt>
      <trkpt lat="44.34565" lon="4.04816">
        <ele>763</ele>
        <time>2014-05-29T14:21:56Z</time>
      </trkpt>
      <trkpt lat="44.34558" lon="4.04831">
        <ele>763</ele>
        <time>2014-05-29T14:22:01Z</time>
      </trkpt>
      <trkpt lat="44.34545" lon="4.04863">
        <ele>759</ele>
        <time>2014-05-29T14:22:04Z</time>
      </trkpt>
      <trkpt lat="44.34531" lon="4.04876">
        <ele>759</ele>
        <time>2014-05-29T14:22:08Z</time>
      </trkpt>
      <trkpt lat="44.34525" lon="4.04902">
        <ele>759</ele>
        <time>2014-05-29T14:22:11Z</time>
      </trkpt>
      <trkpt lat="44.34517" lon="4.04913">
        <ele>760</ele>
        <time>2014-05-29T14:22:17Z</time>
      </trkpt>
      <trkpt lat="44.34502" lon="4.04953">
        <ele>752</ele>
        <time>2014-05-29T14:22:23Z</time>
      </trkpt>
      <trkpt lat="44.34488" lon="4.04977">
        <ele>752</ele>
        <time>2014-05-29T14:22:28Z</time>
      </trkpt>
      <trkpt lat="44.34471" lon="4.05018">
        <ele>746</ele>
        <time>2014-05-29T14:22:34Z</time>
      </trkpt>
      <trkpt lat="44.3445" lon="4.05039">
        <ele>745</ele>
        <time>2014-05-29T14:22:39Z</time>
      </trkpt>
      <trkpt lat="44.34434" lon="4.05069">
        <ele>743</ele>
        <time>2014-05-29T14:22:41Z</time>
      </trkpt>
      <trkpt lat="44.34408" lon="4.05095">
        <ele>738</ele>
        <time>2014-05-29T14:22:44Z</time>
      </trkpt>
      <trkpt lat="44.34396" lon="4.05106">
        <ele>735</ele>
        <time>2014-05-29T14:22:46Z</time>
      </trkpt>
      <trkpt lat="44.34391" lon="4.05125">
        <ele>735</ele>
        <time>2014-05-29T14:22:48Z</time>
      </trkpt>
      <trkpt lat="44.34381" lon="4.05127">
        <ele>733</ele>
        <time>2014-05-29T14:22:50Z</time>
      </trkpt>
      <trkpt lat="44.3437" lon="4.05147">
        <ele>732</ele>
        <time>2014-05-29T14:22:52Z</time>
      </trkpt>
      <trkpt lat="44.34364" lon="4.05157">
        <ele>731</ele>
        <time>2014-05-29T14:23:39Z</time>
      </trkpt>
      <trkpt lat="44.34365" lon="4.05166">
        <ele>732</ele>
        <time>2014-05-29T14:23:40Z</time>
      </trkpt>
      <trkpt lat="44.34355" lon="4.05181">
        <ele>736</ele>
        <time>2014-05-29T14:23:43Z</time>
      </trkpt>
      <trkpt lat="44.34344" lon="4.05188">
        <ele>735</ele>
        <time>2014-05-29T14:23:50Z</time>
      </trkpt>
      <trkpt lat="44.34335" lon="4.05198">
        <ele>736</ele>
        <time>2014-05-29T14:24:06Z</time>
      </trkpt>
      <trkpt lat="44.34316" lon="4.05218">
        <ele>717</ele>
        <time>2014-05-29T14:24:11Z</time>
      </trkpt>
      <trkpt lat="44.34303" lon="4.05237">
        <ele>716</ele>
        <time>2014-05-29T14:24:16Z</time>
      </trkpt>
      <trkpt lat="44.34287" lon="4.0528">
        <ele>721</ele>
        <time>2014-05-29T14:24:22Z</time>
      </trkpt>
      <trkpt lat="44.34267" lon="4.05299">
        <ele>718</ele>
        <time>2014-05-29T14:24:30Z</time>
      </trkpt>
      <trkpt lat="44.34247" lon="4.05319">
        <ele>703</ele>
        <time>2014-05-29T14:24:37Z</time>
      </trkpt>
      <trkpt lat="44.34238" lon="4.05338">
        <ele>706</ele>
        <time>2014-05-29T14:24:42Z</time>
      </trkpt>
      <trkpt lat="44.34229" lon="4.05344">
        <ele>702</ele>
        <time>2014-05-29T14:24:46Z</time>
      </trkpt>
      <trkpt lat="44.3422" lon="4.05349">
        <ele>700</ele>
        <time>2014-05-29T14:24:55Z</time>
      </trkpt>
      <trkpt lat="44.34211" lon="4.05368">
        <ele>697</ele>
        <time>2014-05-29T14:26:36Z</time>
      </trkpt>
      <trkpt lat="44.34201" lon="4.05379">
        <ele>696</ele>
        <time>2014-05-29T14:26:41Z</time>
      </trkpt>
      <trkpt lat="44.34188" lon="4.05387">
        <ele>693</ele>
        <time>2014-05-29T14:26:48Z</time>
      </trkpt>
      <trkpt lat="44.34163" lon="4.05405">
        <ele>676</ele>
        <time>2014-05-29T14:26:54Z</time>
      </trkpt>
      <trkpt lat="44.34139" lon="4.05413">
        <ele>671</ele>
        <time>2014-05-29T14:27:44Z</time>
      </trkpt>
      <trkpt lat="44.34113" lon="4.05443">
        <ele>662</ele>
        <time>2014-05-29T14:29:14Z</time>
      </trkpt>
      <trkpt lat="44.34107" lon="4.05453">
        <ele>661</ele>
        <time>2014-05-29T14:29:22Z</time>
      </trkpt>
      <trkpt lat="44.34077" lon="4.05507">
        <ele>640</ele>
        <time>2014-05-29T14:29:41Z</time>
      </trkpt>
      <trkpt lat="44.34068" lon="4.0552">
        <ele>633</ele>
        <time>2014-05-29T14:29:45Z</time>
      </trkpt>
      <trkpt lat="44.34061" lon="4.05535">
        <ele>629</ele>
        <time>2014-05-29T14:29:49Z</time>
      </trkpt>
      <trkpt lat="44.34056" lon="4.05551">
        <ele>627</ele>
        <time>2014-05-29T14:29:52Z</time>
      </trkpt>
      <trkpt lat="44.3405" lon="4.05564">
        <ele>626</ele>
        <time>2014-05-29T14:29:55Z</time>
      </trkpt>
      <trkpt lat="44.34041" lon="4.05577">
        <ele>624</ele>
        <time>2014-05-29T14:29:59Z</time>
      </trkpt>
      <trkpt lat="44.34033" lon="4.05591">
        <ele>618</ele>
        <time>2014-05-29T14:30:05Z</time>
      </trkpt>
      <trkpt lat="44.34033" lon="4.05607">
        <ele>618</ele>
        <time>2014-05-29T14:30:10Z</time>
      </trkpt>
      <trkpt lat="44.34026" lon="4.05615">
        <ele>617</ele>
        <time>2014-05-29T14:30:28Z</time>
      </trkpt>
      <trkpt lat="44.34012" lon="4.05626">
        <ele>616</ele>
        <time>2014-05-29T14:30:35Z</time>
      </trkpt>
      <trkpt lat="44.34006" lon="4.05632">
        <ele>615</ele>
        <time>2014-05-29T14:30:39Z</time>
      </trkpt>
      <trkpt lat="44.34006" lon="4.05653">
        <ele>613</ele>
        <time>2014-05-29T14:30:49Z</time>
      </trkpt>
      <trkpt lat="44.34025" lon="4.05645">
        <ele>616</ele>
        <time>2014-05-29T14:30:53Z</time>
      </trkpt>
      <trkpt lat="44.34016" lon="4.05626">
        <ele>616</ele>
        <time>2014-05-29T14:30:58Z</time>
      </trkpt>
      <trkpt lat="44.34017" lon="4.05628">
        <ele>616</ele>
        <time>2014-05-29T14:31:02Z</time>
      </trkpt>
      <trkpt lat="44.34022" lon="4.05662">
        <ele>615</ele>
        <time>2014-05-29T14:31:06Z</time>
      </trkpt>
      <trkpt lat="44.34031" lon="4.05686">
        <ele>613</ele>
        <time>2014-05-29T14:31:17Z</time>
      </trkpt>
      <trkpt lat="44.34033" lon="4.05681">
        <ele>613</ele>
        <time>2014-05-29T14:31:27Z</time>
      </trkpt>
      <trkpt lat="44.34065" lon="4.05671">
        <ele>617</ele>
        <time>2014-05-29T14:32:45Z</time>
      </trkpt>
      <trkpt lat="44.34073" lon="4.05773">
        <ele>613</ele>
        <time>2014-05-29T14:43:09Z</time>
      </trkpt>
      <trkpt lat="44.3408" lon="4.05779">
        <ele>613</ele>
        <time>2014-05-29T14:47:12Z</time>
      </trkpt>
      <trkpt lat="44.34086" lon="4.05797">
        <ele>611</ele>
        <time>2014-05-29T14:47:15Z</time>
      </trkpt>
      <trkpt lat="44.3409" lon="4.05815">
        <ele>610</ele>
        <time>2014-05-29T14:47:18Z</time>
      </trkpt>
      <trkpt lat="44.34096" lon="4.05831">
        <ele>610</ele>
        <time>2014-05-29T14:47:21Z</time>
      </trkpt>
      <trkpt lat="44.34105" lon="4.05844">
        <ele>604</ele>
        <time>2014-05-29T14:47:24Z</time>
      </trkpt>
      <trkpt lat="44.34111" lon="4.05862">
        <ele>602</ele>
        <time>2014-05-29T14:47:27Z</time>
      </trkpt>
      <trkpt lat="44.34117" lon="4.05878">
        <ele>601</ele>
        <time>2014-05-29T14:47:30Z</time>
      </trkpt>
      <trkpt lat="44.34119" lon="4.05896">
        <ele>600</ele>
        <time>2014-05-29T14:47:31Z</time>
      </trkpt>
      <trkpt lat="44.34123" lon="4.05912">
        <ele>598</ele>
        <time>2014-05-29T14:47:34Z</time>
      </trkpt>
      <trkpt lat="44.34128" lon="4.0593">
        <ele>593</ele>
        <time>2014-05-29T14:47:36Z</time>
      </trkpt>
      <trkpt lat="44.34133" lon="4.05951">
        <ele>593</ele>
        <time>2014-05-29T14:47:37Z</time>
      </trkpt>
      <trkpt lat="44.34141" lon="4.05973">
        <ele>590</ele>
        <time>2014-05-29T14:47:39Z</time>
      </trkpt>
      <trkpt lat="44.3415" lon="4.05992">
        <ele>585</ele>
        <time>2014-05-29T14:47:42Z</time>
      </trkpt>
      <trkpt lat="44.3416" lon="4.06009">
        <ele>583</ele>
        <time>2014-05-29T14:47:43Z</time>
      </trkpt>
      <trkpt lat="44.34168" lon="4.06025">
        <ele>572</ele>
        <time>2014-05-29T14:47:45Z</time>
      </trkpt>
      <trkpt lat="44.34173" lon="4.06038">
        <ele>572</ele>
        <time>2014-05-29T14:47:48Z</time>
      </trkpt>
      <trkpt lat="44.34178" lon="4.06054">
        <ele>574</ele>
        <time>2014-05-29T14:47:50Z</time>
      </trkpt>
      <trkpt lat="44.34181" lon="4.06072">
        <ele>576</ele>
        <time>2014-05-29T14:47:53Z</time>
      </trkpt>
      <trkpt lat="44.34188" lon="4.06087">
        <ele>577</ele>
        <time>2014-05-29T14:47:56Z</time>
      </trkpt>
      <trkpt lat="44.34192" lon="4.06101">
        <ele>575</ele>
        <time>2014-05-29T14:47:59Z</time>
      </trkpt>
      <trkpt lat="44.34198" lon="4.06115">
        <ele>574</ele>
        <time>2014-05-29T14:48:02Z</time>
      </trkpt>
      <trkpt lat="44.34201" lon="4.0613">
        <ele>574</ele>
        <time>2014-05-29T14:48:05Z</time>
      </trkpt>
      <trkpt lat="44.342" lon="4.0615">
        <ele>575</ele>
        <time>2014-05-29T14:48:08Z</time>
      </trkpt>
      <trkpt lat="44.34193" lon="4.06176">
        <ele>582</ele>
        <time>2014-05-29T14:48:10Z</time>
      </trkpt>
      <trkpt lat="44.34193" lon="4.06192">
        <ele>581</ele>
        <time>2014-05-29T14:48:13Z</time>
      </trkpt>
      <trkpt lat="44.34195" lon="4.06208">
        <ele>580</ele>
        <time>2014-05-29T14:48:15Z</time>
      </trkpt>
      <trkpt lat="44.34202" lon="4.06221">
        <ele>579</ele>
        <time>2014-05-29T14:48:17Z</time>
      </trkpt>
      <trkpt lat="44.34189" lon="4.06242">
        <ele>584</ele>
        <time>2014-05-29T14:48:19Z</time>
      </trkpt>
      <trkpt lat="44.34173" lon="4.06262">
        <ele>588</ele>
        <time>2014-05-29T14:48:20Z</time>
      </trkpt>
      <trkpt lat="44.34154" lon="4.06281">
        <ele>595</ele>
        <time>2014-05-29T14:48:21Z</time>
      </trkpt>
      <trkpt lat="44.34138" lon="4.06293">
        <ele>595</ele>
        <time>2014-05-29T14:48:24Z</time>
      </trkpt>
      <trkpt lat="44.34122" lon="4.06299">
        <ele>595</ele>
        <time>2014-05-29T14:48:27Z</time>
      </trkpt>
      <trkpt lat="44.34102" lon="4.06305">
        <ele>595</ele>
        <time>2014-05-29T14:48:30Z</time>
      </trkpt>
      <trkpt lat="44.34087" lon="4.06307">
        <ele>594</ele>
        <time>2014-05-29T14:48:34Z</time>
      </trkpt>
      <trkpt lat="44.34072" lon="4.06305">
        <ele>604</ele>
        <time>2014-05-29T14:48:38Z</time>
      </trkpt>
      <trkpt lat="44.34062" lon="4.06308">
        <ele>605</ele>
        <time>2014-05-29T14:48:46Z</time>
      </trkpt>
      <trkpt lat="44.34045" lon="4.06321">
        <ele>606</ele>
        <time>2014-05-29T14:48:53Z</time>
      </trkpt>
      <trkpt lat="44.34028" lon="4.06329">
        <ele>609</ele>
        <time>2014-05-29T14:48:57Z</time>
      </trkpt>
      <trkpt lat="44.34016" lon="4.06342">
        <ele>602</ele>
        <time>2014-05-29T14:49:00Z</time>
      </trkpt>
      <trkpt lat="44.34015" lon="4.06358">
        <ele>598</ele>
        <time>2014-05-29T14:49:02Z</time>
      </trkpt>
      <trkpt lat="44.34014" lon="4.06372">
        <ele>596</ele>
        <time>2014-05-29T14:49:05Z</time>
      </trkpt>
      <trkpt lat="44.34013" lon="4.0639">
        <ele>594</ele>
        <time>2014-05-29T14:49:07Z</time>
      </trkpt>
      <trkpt lat="44.34018" lon="4.06407">
        <ele>594</ele>
        <time>2014-05-29T14:49:10Z</time>
      </trkpt>
      <trkpt lat="44.34019" lon="4.06428">
        <ele>588</ele>
        <time>2014-05-29T14:49:13Z</time>
      </trkpt>
      <trkpt lat="44.3402" lon="4.06446">
        <ele>586</ele>
        <time>2014-05-29T14:49:16Z</time>
      </trkpt>
      <trkpt lat="44.3402" lon="4.06461">
        <ele>585</ele>
        <time>2014-05-29T14:49:18Z</time>
      </trkpt>
      <trkpt lat="44.34018" lon="4.06476">
        <ele>585</ele>
        <time>2014-05-29T14:49:19Z</time>
      </trkpt>
      <trkpt lat="44.3401" lon="4.06494">
        <ele>588</ele>
        <time>2014-05-29T14:49:21Z</time>
      </trkpt>
      <trkpt lat="44.34003" lon="4.06509">
        <ele>588</ele>
        <time>2014-05-29T14:49:24Z</time>
      </trkpt>
      <trkpt lat="44.33997" lon="4.06525">
        <ele>596</ele>
        <time>2014-05-29T14:49:25Z</time>
      </trkpt>
      <trkpt lat="44.33993" lon="4.06542">
        <ele>596</ele>
        <time>2014-05-29T14:49:27Z</time>
      </trkpt>
      <trkpt lat="44.33993" lon="4.06563">
        <ele>594</ele>
        <time>2014-05-29T14:49:30Z</time>
      </trkpt>
      <trkpt lat="44.33999" lon="4.0658">
        <ele>590</ele>
        <time>2014-05-29T14:49:31Z</time>
      </trkpt>
      <trkpt lat="44.34006" lon="4.06593">
        <ele>584</ele>
        <time>2014-05-29T14:49:33Z</time>
      </trkpt>
      <trkpt lat="44.34015" lon="4.06609">
        <ele>581</ele>
        <time>2014-05-29T14:49:36Z</time>
      </trkpt>
      <trkpt lat="44.34021" lon="4.06627">
        <ele>579</ele>
        <time>2014-05-29T14:49:41Z</time>
      </trkpt>
      <trkpt lat="44.34014" lon="4.06639">
        <ele>579</ele>
        <time>2014-05-29T14:49:45Z</time>
      </trkpt>
      <trkpt lat="44.34003" lon="4.06652">
        <ele>578</ele>
        <time>2014-05-29T14:50:25Z</time>
      </trkpt>
      <trkpt lat="44.33988" lon="4.06659">
        <ele>582</ele>
        <time>2014-05-29T14:50:30Z</time>
      </trkpt>
      <trkpt lat="44.33972" lon="4.06667">
        <ele>574</ele>
        <time>2014-05-29T14:50:35Z</time>
      </trkpt>
      <trkpt lat="44.33957" lon="4.06675">
        <ele>574</ele>
        <time>2014-05-29T14:50:38Z</time>
      </trkpt>
      <trkpt lat="44.33943" lon="4.06681">
        <ele>574</ele>
        <time>2014-05-29T14:50:41Z</time>
      </trkpt>
      <trkpt lat="44.33928" lon="4.06686">
        <ele>575</ele>
        <time>2014-05-29T14:50:44Z</time>
      </trkpt>
      <trkpt lat="44.33912" lon="4.06692">
        <ele>575</ele>
        <time>2014-05-29T14:50:47Z</time>
      </trkpt>
      <trkpt lat="44.33896" lon="4.06696">
        <ele>574</ele>
        <time>2014-05-29T14:50:50Z</time>
      </trkpt>
      <trkpt lat="44.33877" lon="4.06698">
        <ele>574</ele>
        <time>2014-05-29T14:50:53Z</time>
      </trkpt>
      <trkpt lat="44.33862" lon="4.06698">
        <ele>574</ele>
        <time>2014-05-29T14:50:56Z</time>
      </trkpt>
      <trkpt lat="44.33841" lon="4.067">
        <ele>575</ele>
        <time>2014-05-29T14:50:59Z</time>
      </trkpt>
      <trkpt lat="44.33827" lon="4.06704">
        <ele>574</ele>
        <time>2014-05-29T14:51:01Z</time>
      </trkpt>
      <trkpt lat="44.33831" lon="4.06725">
        <ele>568</ele>
        <time>2014-05-29T14:51:04Z</time>
      </trkpt>
      <trkpt lat="44.338" lon="4.06732">
        <ele>568</ele>
        <time>2014-05-29T14:51:08Z</time>
      </trkpt>
      <trkpt lat="44.33809" lon="4.06736">
        <ele>567</ele>
        <time>2014-05-29T14:51:11Z</time>
      </trkpt>
      <trkpt lat="44.33799" lon="4.06743">
        <ele>567</ele>
        <time>2014-05-29T14:51:25Z</time>
      </trkpt>
      <trkpt lat="44.33788" lon="4.06753">
        <ele>551</ele>
        <time>2014-05-29T14:51:39Z</time>
      </trkpt>
      <trkpt lat="44.3379" lon="4.06748">
        <ele>567</ele>
        <time>2014-05-29T14:51:45Z</time>
      </trkpt>
      <trkpt lat="44.33776" lon="4.06771">
        <ele>550</ele>
        <time>2014-05-29T14:51:53Z</time>
      </trkpt>
      <trkpt lat="44.338" lon="4.06773">
        <ele>549</ele>
        <time>2014-05-29T14:52:00Z</time>
      </trkpt>
      <trkpt lat="44.33789" lon="4.06782">
        <ele>548</ele>
        <time>2014-05-29T14:52:07Z</time>
      </trkpt>
      <trkpt lat="44.33789" lon="4.06793">
        <ele>547</ele>
        <time>2014-05-29T14:52:18Z</time>
      </trkpt>
      <trkpt lat="44.33802" lon="4.06796">
        <ele>546</ele>
        <time>2014-05-29T14:52:31Z</time>
      </trkpt>
      <trkpt lat="44.33817" lon="4.06788">
        <ele>548</ele>
        <time>2014-05-29T14:52:44Z</time>
      </trkpt>
      <trkpt lat="44.33822" lon="4.06805">
        <ele>544</ele>
        <time>2014-05-29T14:52:54Z</time>
      </trkpt>
      <trkpt lat="44.33837" lon="4.06796">
        <ele>545</ele>
        <time>2014-05-29T14:53:03Z</time>
      </trkpt>
      <trkpt lat="44.33846" lon="4.06782">
        <ele>548</ele>
        <time>2014-05-29T14:53:09Z</time>
      </trkpt>
      <trkpt lat="44.33858" lon="4.06792">
        <ele>546</ele>
        <time>2014-05-29T14:53:13Z</time>
      </trkpt>
      <trkpt lat="44.33866" lon="4.06809">
        <ele>544</ele>
        <time>2014-05-29T14:53:16Z</time>
      </trkpt>
      <trkpt lat="44.33875" lon="4.06825">
        <ele>542</ele>
        <time>2014-05-29T14:53:20Z</time>
      </trkpt>
      <trkpt lat="44.33885" lon="4.0684">
        <ele>527</ele>
        <time>2014-05-29T14:53:24Z</time>
      </trkpt>
      <trkpt lat="44.339" lon="4.06846">
        <ele>527</ele>
        <time>2014-05-29T14:53:31Z</time>
      </trkpt>
      <trkpt lat="44.3391" lon="4.06847">
        <ele>528</ele>
        <time>2014-05-29T14:53:35Z</time>
      </trkpt>
      <trkpt lat="44.3396" lon="4.0684">
        <ele>528</ele>
        <time>2014-05-29T14:54:25Z</time>
      </trkpt>
      <trkpt lat="44.33955" lon="4.06856">
        <ele>526</ele>
        <time>2014-05-29T14:54:30Z</time>
      </trkpt>
      <trkpt lat="44.33963" lon="4.06868">
        <ele>525</ele>
        <time>2014-05-29T14:54:37Z</time>
      </trkpt>
      <trkpt lat="44.33974" lon="4.06883">
        <ele>523</ele>
        <time>2014-05-29T14:54:43Z</time>
      </trkpt>
      <trkpt lat="44.33981" lon="4.06896">
        <ele>521</ele>
        <time>2014-05-29T14:54:48Z</time>
      </trkpt>
      <trkpt lat="44.33988" lon="4.06905">
        <ele>520</ele>
        <time>2014-05-29T14:54:53Z</time>
      </trkpt>
      <trkpt lat="44.33995" lon="4.06925">
        <ele>511</ele>
        <time>2014-05-29T14:54:58Z</time>
      </trkpt>
      <trkpt lat="44.34005" lon="4.06944">
        <ele>510</ele>
        <time>2014-05-29T14:55:02Z</time>
      </trkpt>
      <trkpt lat="44.34019" lon="4.06948">
        <ele>510</ele>
        <time>2014-05-29T14:55:08Z</time>
      </trkpt>
      <trkpt lat="44.34034" lon="4.0695">
        <ele>510</ele>
        <time>2014-05-29T14:55:14Z</time>
      </trkpt>
      <trkpt lat="44.3405" lon="4.06955">
        <ele>511</ele>
        <time>2014-05-29T14:55:19Z</time>
      </trkpt>
      <trkpt lat="44.34064" lon="4.06962">
        <ele>510</ele>
        <time>2014-05-29T14:55:24Z</time>
      </trkpt>
      <trkpt lat="44.34074" lon="4.06974">
        <ele>509</ele>
        <time>2014-05-29T14:55:28Z</time>
      </trkpt>
      <trkpt lat="44.34086" lon="4.06984">
        <ele>512</ele>
        <time>2014-05-29T14:55:33Z</time>
      </trkpt>
      <trkpt lat="44.34098" lon="4.06995">
        <ele>512</ele>
        <time>2014-05-29T14:55:38Z</time>
      </trkpt>
      <trkpt lat="44.34109" lon="4.07007">
        <ele>501</ele>
        <time>2014-05-29T14:55:43Z</time>
      </trkpt>
      <trkpt lat="44.34114" lon="4.0702">
        <ele>500</ele>
        <time>2014-05-29T14:55:49Z</time>
      </trkpt>
      <trkpt lat="44.34124" lon="4.07025">
        <ele>499</ele>
        <time>2014-05-29T14:55:54Z</time>
      </trkpt>
      <trkpt lat="44.3414" lon="4.07021">
        <ele>501</ele>
        <time>2014-05-29T14:55:59Z</time>
      </trkpt>
      <trkpt lat="44.34156" lon="4.07023">
        <ele>502</ele>
        <time>2014-05-29T14:56:08Z</time>
      </trkpt>
      <trkpt lat="44.34172" lon="4.0702">
        <ele>505</ele>
        <time>2014-05-29T14:56:14Z</time>
      </trkpt>
      <trkpt lat="44.34188" lon="4.07035">
        <ele>501</ele>
        <time>2014-05-29T14:56:19Z</time>
      </trkpt>
      <trkpt lat="44.342" lon="4.07029">
        <ele>502</ele>
        <time>2014-05-29T14:56:23Z</time>
      </trkpt>
      <trkpt lat="44.34209" lon="4.07047">
        <ele>499</ele>
        <time>2014-05-29T14:56:25Z</time>
      </trkpt>
      <trkpt lat="44.34215" lon="4.07062">
        <ele>497</ele>
        <time>2014-05-29T14:56:29Z</time>
      </trkpt>
      <trkpt lat="44.3423" lon="4.07076">
        <ele>495</ele>
        <time>2014-05-29T14:56:32Z</time>
      </trkpt>
      <trkpt lat="44.34243" lon="4.07086">
        <ele>486</ele>
        <time>2014-05-29T14:56:37Z</time>
      </trkpt>
      <trkpt lat="44.34252" lon="4.07096">
        <ele>490</ele>
        <time>2014-05-29T14:56:41Z</time>
      </trkpt>
      <trkpt lat="44.34263" lon="4.07108">
        <ele>490</ele>
        <time>2014-05-29T14:56:46Z</time>
      </trkpt>
      <trkpt lat="44.34277" lon="4.07115">
        <ele>491</ele>
        <time>2014-05-29T14:56:52Z</time>
      </trkpt>
      <trkpt lat="44.34287" lon="4.07128">
        <ele>490</ele>
        <time>2014-05-29T14:56:59Z</time>
      </trkpt>
      <trkpt lat="44.34296" lon="4.07133">
        <ele>491</ele>
        <time>2014-05-29T14:57:05Z</time>
      </trkpt>
      <trkpt lat="44.34308" lon="4.07148">
        <ele>491</ele>
        <time>2014-05-29T14:57:10Z</time>
      </trkpt>
      <trkpt lat="44.34319" lon="4.07157">
        <ele>492</ele>
        <time>2014-05-29T14:57:15Z</time>
      </trkpt>
      <trkpt lat="44.34333" lon="4.07166">
        <ele>492</ele>
        <time>2014-05-29T14:57:20Z</time>
      </trkpt>
      <trkpt lat="44.34347" lon="4.07173">
        <ele>491</ele>
        <time>2014-05-29T14:57:25Z</time>
      </trkpt>
      <trkpt lat="44.3436" lon="4.07181">
        <ele>490</ele>
        <time>2014-05-29T14:57:30Z</time>
      </trkpt>
      <trkpt lat="44.34374" lon="4.0719">
        <ele>490</ele>
        <time>2014-05-29T14:57:35Z</time>
      </trkpt>
      <trkpt lat="44.34389" lon="4.07195">
        <ele>491</ele>
        <time>2014-05-29T14:57:40Z</time>
      </trkpt>
      <trkpt lat="44.34405" lon="4.07201">
        <ele>491</ele>
        <time>2014-05-29T14:57:45Z</time>
      </trkpt>
      <trkpt lat="44.34421" lon="4.07206">
        <ele>493</ele>
        <time>2014-05-29T14:57:50Z</time>
      </trkpt>
      <trkpt lat="44.34437" lon="4.07209">
        <ele>493</ele>
        <time>2014-05-29T14:57:54Z</time>
      </trkpt>
      <trkpt lat="44.34453" lon="4.07212">
        <ele>492</ele>
        <time>2014-05-29T14:57:59Z</time>
      </trkpt>
      <trkpt lat="44.34471" lon="4.07219">
        <ele>491</ele>
        <time>2014-05-29T14:58:02Z</time>
      </trkpt>
      <trkpt lat="44.34484" lon="4.07225">
        <ele>490</ele>
        <time>2014-05-29T14:58:05Z</time>
      </trkpt>
      <trkpt lat="44.34497" lon="4.07237">
        <ele>487</ele>
        <time>2014-05-29T14:58:08Z</time>
      </trkpt>
      <trkpt lat="44.34508" lon="4.07251">
        <ele>478</ele>
        <time>2014-05-29T14:58:13Z</time>
      </trkpt>
      <trkpt lat="44.34522" lon="4.07261">
        <ele>474</ele>
        <time>2014-05-29T14:58:17Z</time>
      </trkpt>
      <trkpt lat="44.34535" lon="4.07269">
        <ele>472</ele>
        <time>2014-05-29T14:58:20Z</time>
      </trkpt>
      <trkpt lat="44.34543" lon="4.07275">
        <ele>471</ele>
        <time>2014-05-29T14:58:24Z</time>
      </trkpt>
      <trkpt lat="44.34561" lon="4.07291">
        <ele>469</ele>
        <time>2014-05-29T14:58:25Z</time>
      </trkpt>
      <trkpt lat="44.34579" lon="4.07296">
        <ele>469</ele>
        <time>2014-05-29T14:58:29Z</time>
      </trkpt>
      <trkpt lat="44.34597" lon="4.07296">
        <ele>467</ele>
        <time>2014-05-29T14:58:32Z</time>
      </trkpt>
      <trkpt lat="44.34614" lon="4.073">
        <ele>466</ele>
        <time>2014-05-29T14:58:34Z</time>
      </trkpt>
      <trkpt lat="44.34629" lon="4.07306">
        <ele>466</ele>
        <time>2014-05-29T14:58:37Z</time>
      </trkpt>
      <trkpt lat="44.34636" lon="4.07308">
        <ele>466</ele>
        <time>2014-05-29T14:58:40Z</time>
      </trkpt>
      <trkpt lat="44.34635" lon="4.07327">
        <ele>466</ele>
        <time>2014-05-29T14:58:43Z</time>
      </trkpt>
      <trkpt lat="44.34651" lon="4.07339">
        <ele>464</ele>
        <time>2014-05-29T14:58:49Z</time>
      </trkpt>
      <trkpt lat="44.34641" lon="4.07336">
        <ele>463</ele>
        <time>2014-05-29T14:58:56Z</time>
      </trkpt>
      <trkpt lat="44.34634" lon="4.07407">
        <ele>461</ele>
        <time>2014-05-29T15:02:51Z</time>
      </trkpt>
      <trkpt lat="44.34623" lon="4.07426">
        <ele>453</ele>
        <time>2014-05-29T15:02:54Z</time>
      </trkpt>
      <trkpt lat="44.3462" lon="4.07438">
        <ele>452</ele>
        <time>2014-05-29T15:02:59Z</time>
      </trkpt>
      <trkpt lat="44.34612" lon="4.07453">
        <ele>450</ele>
        <time>2014-05-29T15:03:08Z</time>
      </trkpt>
      <trkpt lat="44.34599" lon="4.0746">
        <ele>447</ele>
        <time>2014-05-29T15:03:17Z</time>
      </trkpt>
      <trkpt lat="44.34603" lon="4.07477">
        <ele>445</ele>
        <time>2014-05-29T15:04:37Z</time>
      </trkpt>
      <trkpt lat="44.34602" lon="4.07492">
        <ele>442</ele>
        <time>2014-05-29T15:04:42Z</time>
      </trkpt>
      <trkpt lat="44.34603" lon="4.075">
        <ele>442</ele>
        <time>2014-05-29T15:04:49Z</time>
      </trkpt>
      <trkpt lat="44.34618" lon="4.07561">
        <ele>434</ele>
        <time>2014-05-29T15:04:52Z</time>
      </trkpt>
      <trkpt lat="44.34624" lon="4.07576">
        <ele>434</ele>
        <time>2014-05-29T15:04:56Z</time>
      </trkpt>
      <trkpt lat="44.34633" lon="4.0759">
        <ele>426</ele>
        <time>2014-05-29T15:05:01Z</time>
      </trkpt>
      <trkpt lat="44.3464" lon="4.07604">
        <ele>426</ele>
        <time>2014-05-29T15:05:06Z</time>
      </trkpt>
      <trkpt lat="44.34647" lon="4.07618">
        <ele>425</ele>
        <time>2014-05-29T15:05:11Z</time>
      </trkpt>
      <trkpt lat="44.34654" lon="4.07632">
        <ele>424</ele>
        <time>2014-05-29T15:05:16Z</time>
      </trkpt>
      <trkpt lat="44.34661" lon="4.07646">
        <ele>423</ele>
        <time>2014-05-29T15:05:20Z</time>
      </trkpt>
      <trkpt lat="44.34669" lon="4.07662">
        <ele>423</ele>
        <time>2014-05-29T15:05:26Z</time>
      </trkpt>
      <trkpt lat="44.34677" lon="4.07673">
        <ele>417</ele>
        <time>2014-05-29T15:05:30Z</time>
      </trkpt>
      <trkpt lat="44.34726" lon="4.07646">
        <ele>428</ele>
        <time>2014-05-29T15:05:34Z</time>
      </trkpt>
      <trkpt lat="44.34729" lon="4.07651">
        <ele>427</ele>
        <time>2014-05-29T15:05:39Z</time>
      </trkpt>
      <trkpt lat="44.34696" lon="4.07676">
        <ele>414</ele>
        <time>2014-05-29T15:05:47Z</time>
      </trkpt>
      <trkpt lat="44.34675" lon="4.07689">
        <ele>414</ele>
        <time>2014-05-29T15:05:53Z</time>
      </trkpt>
      <trkpt lat="44.34657" lon="4.07711">
        <ele>409</ele>
        <time>2014-05-29T15:06:03Z</time>
      </trkpt>
      <trkpt lat="44.34647" lon="4.07709">
        <ele>409</ele>
        <time>2014-05-29T15:06:11Z</time>
      </trkpt>
      <trkpt lat="44.34657" lon="4.07707">
        <ele>410</ele>
        <time>2014-05-29T15:06:16Z</time>
      </trkpt>
      <trkpt lat="44.34643" lon="4.07715">
        <ele>408</ele>
        <time>2014-05-29T15:06:20Z</time>
      </trkpt>
      <trkpt lat="44.34634" lon="4.07723">
        <ele>407</ele>
        <time>2014-05-29T15:06:36Z</time>
      </trkpt>
      <trkpt lat="44.3461" lon="4.07733">
        <ele>405</ele>
        <time>2014-05-29T15:06:38Z</time>
      </trkpt>
      <trkpt lat="44.34598" lon="4.07729">
        <ele>404</ele>
        <time>2014-05-29T15:06:42Z</time>
      </trkpt>
      <trkpt lat="44.34596" lon="4.07714">
        <ele>406</ele>
        <time>2014-05-29T15:06:44Z</time>
      </trkpt>
      <trkpt lat="44.3461" lon="4.07708">
        <ele>408</ele>
        <time>2014-05-29T15:06:47Z</time>
      </trkpt>
      <trkpt lat="44.34623" lon="4.07696">
        <ele>409</ele>
        <time>2014-05-29T15:07:48Z</time>
      </trkpt>
      <trkpt lat="44.34628" lon="4.0769">
        <ele>410</ele>
        <time>2014-05-29T15:10:01Z</time>
      </trkpt>
      <trkpt lat="44.3471" lon="4.07689">
        <ele>412</ele>
      </trkpt>
      <trkpt lat="44.34746" lon="4.07683">
        <ele>415</ele>
      </trkpt>
      <trkpt lat="44.34767" lon="4.07713">
        <ele>407</ele>
      </trkpt>
      <trkpt lat="44.34796" lon="4.07742">
        <ele>403</ele>
      </trkpt>
      <trkpt lat="44.34839" lon="4.07775">
        <ele>387</ele>
      </trkpt>
      <trkpt lat="44.34865" lon="4.07794">
        <ele>383</ele>
      </trkpt>
      <trkpt lat="44.34897" lon="4.07789">
        <ele>385</ele>
      </trkpt>
      <trkpt lat="44.34925" lon="4.07824">
        <ele>379</ele>
      </trkpt>
      <trkpt lat="44.34954" lon="4.07834">
        <ele>369</ele>
      </trkpt>
      <trkpt lat="44.35009" lon="4.07849">
        <ele>365</ele>
      </trkpt>
      <trkpt lat="44.35032" lon="4.07853">
        <ele>361</ele>
      </trkpt>
      <trkpt lat="44.3506" lon="4.07854">
        <ele>358</ele>
      </trkpt>
      <trkpt lat="44.35092" lon="4.07849">
        <ele>348</ele>
      </trkpt>
      <trkpt lat="44.35117" lon="4.07834">
        <ele>342</ele>
      </trkpt>
      <trkpt lat="44.35149" lon="4.0778">
        <ele>337</ele>
      </trkpt>
      <trkpt lat="44.35157" lon="4.0781">
        <ele>336</ele>
      </trkpt>
      <trkpt lat="44.35141" lon="4.07838">
        <ele>335</ele>
      </trkpt>
      <trkpt lat="44.35131" lon="4.079">
        <ele>333</ele>
      </trkpt>
      <trkpt lat="44.35124" lon="4.07945">
        <ele>320</ele>
      </trkpt>
      <trkpt lat="44.35143" lon="4.07934">
        <ele>319</ele>
      </trkpt>
      <trkpt lat="44.35172" lon="4.07919">
        <ele>312</ele>
      </trkpt>
      <trkpt lat="44.35187" lon="4.079">
        <ele>309</ele>
      </trkpt>
      <trkpt lat="44.35212" lon="4.07906">
        <ele>303</ele>
      </trkpt>
      <trkpt lat="44.35204" lon="4.07926">
        <ele>298</ele>
      </trkpt>
      <trkpt lat="44.35195" lon="4.07945">
        <ele>298</ele>
      </trkpt>
      <trkpt lat="44.35184" lon="4.07962">
        <ele>298</ele>
      </trkpt>
      <trkpt lat="44.35184" lon="4.07997">
        <ele>296</ele>
      </trkpt>
      <trkpt lat="44.35194" lon="4.08005">
        <ele>289</ele>
      </trkpt>
      <trkpt lat="44.35229" lon="4.07986">
        <ele>289</ele>
      </trkpt>
      <trkpt lat="44.35247" lon="4.08007">
        <ele>281</ele>
      </trkpt>
      <trkpt lat="44.35247" lon="4.08043">
        <ele>284</ele>
      </trkpt>
      <trkpt lat="44.35241" lon="4.08067">
        <ele>284</ele>
      </trkpt>
      <trkpt lat="44.35229" lon="4.08099">
        <ele>282</ele>
      </trkpt>
      <trkpt lat="44.35246" lon="4.08082">
        <ele>283</ele>
      </trkpt>
      <trkpt lat="44.3525" lon="4.0805">
        <ele>288</ele>
      </trkpt>
      <trkpt lat="44.35247" lon="4.08028">
        <ele>283</ele>
      </trkpt>
      <trkpt lat="44.35232" lon="4.07994">
        <ele>287</ele>
      </trkpt>
      <trkpt lat="44.35218" lon="4.08005">
        <ele>285</ele>
      </trkpt>
      <trkpt lat="44.35203" lon="4.08031">
        <ele>286</ele>
      </trkpt>
      <trkpt lat="44.35187" lon="4.08048">
        <ele>286</ele>
      </trkpt>
      <trkpt lat="44.35163" lon="4.08067">
        <ele>290</ele>
      </trkpt>
      <trkpt lat="44.35112" lon="4.08108">
        <ele>287</ele>
      </trkpt>
      <trkpt lat="44.35082" lon="4.08151">
        <ele>289</ele>
      </trkpt>
      <trkpt lat="44.35059" lon="4.08177">
        <ele>283</ele>
      </trkpt>
      <trkpt lat="44.35037" lon="4.08226">
        <ele>283</ele>
      </trkpt>
      <trkpt lat="44.35017" lon="4.08269">
        <ele>280</ele>
      </trkpt>
      <trkpt lat="44.35022" lon="4.08286">
        <ele>279</ele>
      </trkpt>
      <trkpt lat="44.35023" lon="4.0834">
        <ele>275</ele>
      </trkpt>
      <trkpt lat="44.3502" lon="4.08389">
        <ele>272</ele>
      </trkpt>
      <trkpt lat="44.34997" lon="4.08423">
        <ele>273</ele>
      </trkpt>
      <trkpt lat="44.34987" lon="4.0846">
        <ele>275</ele>
      </trkpt>
      <trkpt lat="44.34987" lon="4.08537">
        <ele>272</ele>
      </trkpt>
      <trkpt lat="44.34977" lon="4.08554">
        <ele>271</ele>
      </trkpt>
      <trkpt lat="44.34953" lon="4.08612">
        <ele>271</ele>
      </trkpt>
      <trkpt lat="44.34958" lon="4.08644">
        <ele>271</ele>
      </trkpt>
      <trkpt lat="44.34988" lon="4.08743">
        <ele>265</ele>
      </trkpt>
      <trkpt lat="44.34974" lon="4.08811">
        <ele>267</ele>
      </trkpt>
      <trkpt lat="44.3497" lon="4.08861">
        <ele>267</ele>
      </trkpt>
      <trkpt lat="44.34975" lon="4.0894">
        <ele>266</ele>
      </trkpt>
      <trkpt lat="44.34993" lon="4.09034">
        <ele>266</ele>
      </trkpt>
      <trkpt lat="44.35016" lon="4.09116">
        <ele>259</ele>
      </trkpt>
      <trkpt lat="44.35045" lon="4.09167">
        <ele>259</ele>
      </trkpt>
      <trkpt lat="44.35054" lon="4.09231">
        <ele>259</ele>
      </trkpt>
      <trkpt lat="44.35067" lon="4.09283">
        <ele>261</ele>
      </trkpt>
      <trkpt lat="44.35097" lon="4.09353">
        <ele>256</ele>
      </trkpt>
      <trkpt lat="44.3512" lon="4.09411">
        <ele>256</ele>
        <time>2014-05-29T15:33:28Z</time>
      </trkpt>
      <trkpt lat="44.35124" lon="4.0943">
        <ele>255</ele>
        <time>2014-05-29T15:33:49Z</time>
      </trkpt>
      <trkpt lat="44.35115" lon="4.09462">
        <ele>256</ele>
        <time>2014-05-29T15:33:53Z</time>
      </trkpt>
      <trkpt lat="44.35115" lon="4.09482">
        <ele>256</ele>
        <time>2014-05-29T15:33:57Z</time>
      </trkpt>
      <trkpt lat="44.35115" lon="4.09499">
        <ele>256</ele>
        <time>2014-05-29T15:34:00Z</time>
      </trkpt>
      <trkpt lat="44.35119" lon="4.09517">
        <ele>255</ele>
        <time>2014-05-29T15:34:03Z</time>
      </trkpt>
      <trkpt lat="44.35121" lon="4.09534">
        <ele>255</ele>
        <time>2014-05-29T15:34:06Z</time>
      </trkpt>
      <trkpt lat="44.35121" lon="4.09551">
        <ele>255</ele>
        <time>2014-05-29T15:34:08Z</time>
      </trkpt>
      <trkpt lat="44.35122" lon="4.09571">
        <ele>255</ele>
        <time>2014-05-29T15:34:11Z</time>
      </trkpt>
      <trkpt lat="44.35125" lon="4.09591">
        <ele>255</ele>
        <time>2014-05-29T15:34:14Z</time>
      </trkpt>
      <trkpt lat="44.35129" lon="4.09611">
        <ele>255</ele>
        <time>2014-05-29T15:34:17Z</time>
      </trkpt>
      <trkpt lat="44.35133" lon="4.09628">
        <ele>255</ele>
        <time>2014-05-29T15:34:19Z</time>
      </trkpt>
      <trkpt lat="44.3514" lon="4.09644">
        <ele>254</ele>
        <time>2014-05-29T15:34:22Z</time>
      </trkpt>
      <trkpt lat="44.35146" lon="4.09662">
        <ele>252</ele>
        <time>2014-05-29T15:34:25Z</time>
      </trkpt>
      <trkpt lat="44.35148" lon="4.09681">
        <ele>253</ele>
        <time>2014-05-29T15:34:28Z</time>
      </trkpt>
      <trkpt lat="44.3515" lon="4.09698">
        <ele>254</ele>
        <time>2014-05-29T15:34:31Z</time>
      </trkpt>
      <trkpt lat="44.35151" lon="4.09713">
        <ele>254</ele>
        <time>2014-05-29T15:34:34Z</time>
      </trkpt>
      <trkpt lat="44.35151" lon="4.0973">
        <ele>253</ele>
        <time>2014-05-29T15:34:37Z</time>
      </trkpt>
      <trkpt lat="44.35153" lon="4.09747">
        <ele>251</ele>
        <time>2014-05-29T15:34:40Z</time>
      </trkpt>
      <trkpt lat="44.35159" lon="4.09764">
        <ele>252</ele>
        <time>2014-05-29T15:34:44Z</time>
      </trkpt>
      <trkpt lat="44.35172" lon="4.09758">
        <ele>247</ele>
        <time>2014-05-29T15:34:48Z</time>
      </trkpt>
      <trkpt lat="44.35188" lon="4.09749">
        <ele>247</ele>
        <time>2014-05-29T15:34:52Z</time>
      </trkpt>
      <trkpt lat="44.352" lon="4.09738">
        <ele>246</ele>
        <time>2014-05-29T15:34:57Z</time>
      </trkpt>
      <trkpt lat="44.35199" lon="4.0972">
        <ele>246</ele>
        <time>2014-05-29T15:35:00Z</time>
      </trkpt>
      <trkpt lat="44.352" lon="4.09706">
        <ele>247</ele>
        <time>2014-05-29T15:35:03Z</time>
      </trkpt>
      <trkpt lat="44.35207" lon="4.09691">
        <ele>247</ele>
        <time>2014-05-29T15:35:07Z</time>
      </trkpt>
      <trkpt lat="44.35222" lon="4.09683">
        <ele>247</ele>
        <time>2014-05-29T15:35:11Z</time>
      </trkpt>
      <trkpt lat="44.35236" lon="4.09676">
        <ele>247</ele>
        <time>2014-05-29T15:35:15Z</time>
      </trkpt>
      <trkpt lat="44.3525" lon="4.09672">
        <ele>248</ele>
        <time>2014-05-29T15:35:21Z</time>
      </trkpt>
      <trkpt lat="44.35263" lon="4.09683">
        <ele>248</ele>
        <time>2014-05-29T15:35:26Z</time>
      </trkpt>
      <trkpt lat="44.35271" lon="4.09695">
        <ele>248</ele>
        <time>2014-05-29T15:35:31Z</time>
      </trkpt>
      <trkpt lat="44.35282" lon="4.09702">
        <ele>248</ele>
        <time>2014-05-29T15:35:38Z</time>
      </trkpt>
      <trkpt lat="44.35296" lon="4.09695">
        <ele>249</ele>
        <time>2014-05-29T15:35:46Z</time>
      </trkpt>
      <trkpt lat="44.353" lon="4.09682">
        <ele>249</ele>
        <time>2014-05-29T15:35:53Z</time>
      </trkpt>
      <trkpt lat="44.35322" lon="4.09678">
        <ele>251</ele>
        <time>2014-05-29T15:35:59Z</time>
      </trkpt>
      <trkpt lat="44.35335" lon="4.0967">
        <ele>253</ele>
        <time>2014-05-29T15:36:03Z</time>
      </trkpt>
      <trkpt lat="44.35347" lon="4.09657">
        <ele>255</ele>
        <time>2014-05-29T15:36:07Z</time>
      </trkpt>
      <trkpt lat="44.35353" lon="4.09642">
        <ele>255</ele>
        <time>2014-05-29T15:36:11Z</time>
      </trkpt>
      <trkpt lat="44.35365" lon="4.09628">
        <ele>256</ele>
        <time>2014-05-29T15:36:14Z</time>
      </trkpt>
      <trkpt lat="44.3537" lon="4.09613">
        <ele>256</ele>
        <time>2014-05-29T15:36:19Z</time>
      </trkpt>
      <trkpt lat="44.35372" lon="4.09598">
        <ele>256</ele>
        <time>2014-05-29T15:36:23Z</time>
      </trkpt>
      <trkpt lat="44.35377" lon="4.09583">
        <ele>258</ele>
        <time>2014-05-29T15:36:26Z</time>
      </trkpt>
      <trkpt lat="44.35382" lon="4.09568">
        <ele>258</ele>
        <time>2014-05-29T15:36:30Z</time>
      </trkpt>
      <trkpt lat="44.35385" lon="4.09553">
        <ele>259</ele>
        <time>2014-05-29T15:36:35Z</time>
      </trkpt>
      <trkpt lat="44.35389" lon="4.09534">
        <ele>259</ele>
        <time>2014-05-29T15:36:40Z</time>
      </trkpt>
      <trkpt lat="44.35393" lon="4.09521">
        <ele>260</ele>
        <time>2014-05-29T15:36:44Z</time>
      </trkpt>
      <trkpt lat="44.35396" lon="4.09504">
        <ele>260</ele>
        <time>2014-05-29T15:36:48Z</time>
      </trkpt>
      <trkpt lat="44.35402" lon="4.09488">
        <ele>263</ele>
        <time>2014-05-29T15:36:52Z</time>
      </trkpt>
      <trkpt lat="44.35409" lon="4.0947">
        <ele>264</ele>
        <time>2014-05-29T15:36:56Z</time>
      </trkpt>
      <trkpt lat="44.35415" lon="4.09453">
        <ele>265</ele>
        <time>2014-05-29T15:37:01Z</time>
      </trkpt>
      <trkpt lat="44.35421" lon="4.09435">
        <ele>267</ele>
        <time>2014-05-29T15:37:04Z</time>
      </trkpt>
      <trkpt lat="44.35426" lon="4.09419">
        <ele>268</ele>
        <time>2014-05-29T15:37:08Z</time>
      </trkpt>
      <trkpt lat="44.35433" lon="4.09401">
        <ele>271</ele>
        <time>2014-05-29T15:37:12Z</time>
      </trkpt>
      <trkpt lat="44.35441" lon="4.09387">
        <ele>272</ele>
        <time>2014-05-29T15:37:16Z</time>
      </trkpt>
      <trkpt lat="44.35452" lon="4.09377">
        <ele>272</ele>
        <time>2014-05-29T15:37:21Z</time>
      </trkpt>
      <trkpt lat="44.35463" lon="4.09366">
        <ele>272</ele>
        <time>2014-05-29T15:37:26Z</time>
      </trkpt>
      <trkpt lat="44.35475" lon="4.09356">
        <ele>273</ele>
        <time>2014-05-29T15:37:31Z</time>
      </trkpt>
      <trkpt lat="44.35495" lon="4.09346">
        <ele>274</ele>
        <time>2014-05-29T15:37:36Z</time>
      </trkpt>
      <trkpt lat="44.3551" lon="4.09338">
        <ele>274</ele>
        <time>2014-05-29T15:37:40Z</time>
      </trkpt>
      <trkpt lat="44.35525" lon="4.09334">
        <ele>273</ele>
        <time>2014-05-29T15:37:43Z</time>
      </trkpt>
      <trkpt lat="44.35539" lon="4.09329">
        <ele>279</ele>
        <time>2014-05-29T15:37:48Z</time>
      </trkpt>
      <trkpt lat="44.3555" lon="4.09328">
        <ele>278</ele>
        <time>2014-05-29T15:37:53Z</time>
      </trkpt>
      <trkpt lat="44.35559" lon="4.09346">
        <ele>273</ele>
        <time>2014-05-29T15:37:57Z</time>
      </trkpt>
      <trkpt lat="44.35571" lon="4.09362">
        <ele>272</ele>
        <time>2014-05-29T15:38:01Z</time>
      </trkpt>
      <trkpt lat="44.35589" lon="4.09377">
        <ele>270</ele>
        <time>2014-05-29T15:38:03Z</time>
      </trkpt>
      <trkpt lat="44.35602" lon="4.09387">
        <ele>269</ele>
        <time>2014-05-29T15:38:06Z</time>
      </trkpt>
      <trkpt lat="44.35614" lon="4.09404">
        <ele>269</ele>
        <time>2014-05-29T15:38:09Z</time>
      </trkpt>
      <trkpt lat="44.35624" lon="4.09418">
        <ele>270</ele>
        <time>2014-05-29T15:38:12Z</time>
      </trkpt>
      <trkpt lat="44.35636" lon="4.09426">
        <ele>270</ele>
        <time>2014-05-29T15:38:16Z</time>
      </trkpt>
      <trkpt lat="44.35645" lon="4.09422">
        <ele>269</ele>
        <time>2014-05-29T15:38:21Z</time>
      </trkpt>
      <trkpt lat="44.35646" lon="4.09406">
        <ele>269</ele>
        <time>2014-05-29T15:38:26Z</time>
      </trkpt>
      <trkpt lat="44.35657" lon="4.09396">
        <ele>269</ele>
        <time>2014-05-29T15:38:32Z</time>
      </trkpt>
      <trkpt lat="44.35652" lon="4.09378">
        <ele>269</ele>
        <time>2014-05-29T15:38:39Z</time>
      </trkpt>
      <trkpt lat="44.3566" lon="4.09364">
        <ele>270</ele>
        <time>2014-05-29T15:38:44Z</time>
      </trkpt>
      <trkpt lat="44.35668" lon="4.09353">
        <ele>271</ele>
        <time>2014-05-29T15:38:49Z</time>
      </trkpt>
      <trkpt lat="44.35681" lon="4.09344">
        <ele>271</ele>
        <time>2014-05-29T15:38:57Z</time>
      </trkpt>
      <trkpt lat="44.357" lon="4.09348">
        <ele>271</ele>
        <time>2014-05-29T15:39:04Z</time>
      </trkpt>
      <trkpt lat="44.3571" lon="4.09354">
        <ele>272</ele>
        <time>2014-05-29T15:39:08Z</time>
      </trkpt>
      <trkpt lat="44.35753" lon="4.09375">
        <ele>277</ele>
        <time>2014-05-29T15:39:11Z</time>
      </trkpt>
      <trkpt lat="44.35762" lon="4.09387">
        <ele>277</ele>
        <time>2014-05-29T15:39:14Z</time>
      </trkpt>
      <trkpt lat="44.35771" lon="4.094">
        <ele>277</ele>
        <time>2014-05-29T15:39:18Z</time>
      </trkpt>
      <trkpt lat="44.35792" lon="4.09417">
        <ele>280</ele>
        <time>2014-05-29T15:39:21Z</time>
      </trkpt>
      <trkpt lat="44.35799" lon="4.09424">
        <ele>280</ele>
        <time>2014-05-29T15:39:27Z</time>
      </trkpt>
      <trkpt lat="44.35807" lon="4.09406">
        <ele>278</ele>
        <time>2014-05-29T15:39:32Z</time>
      </trkpt>
      <trkpt lat="44.35817" lon="4.09393">
        <ele>279</ele>
        <time>2014-05-29T15:39:37Z</time>
      </trkpt>
      <trkpt lat="44.35824" lon="4.09378">
        <ele>279</ele>
        <time>2014-05-29T15:39:42Z</time>
      </trkpt>
      <trkpt lat="44.35829" lon="4.09362">
        <ele>280</ele>
        <time>2014-05-29T15:39:47Z</time>
      </trkpt>
      <trkpt lat="44.35838" lon="4.09352">
        <ele>283</ele>
        <time>2014-05-29T15:39:54Z</time>
      </trkpt>
      <trkpt lat="44.35846" lon="4.09356">
        <ele>283</ele>
        <time>2014-05-29T15:40:06Z</time>
      </trkpt>
      <trkpt lat="44.35871" lon="4.09357">
        <ele>284</ele>
        <time>2014-05-29T15:40:15Z</time>
      </trkpt>
      <trkpt lat="44.3588" lon="4.09356">
        <ele>284</ele>
        <time>2014-05-29T15:40:17Z</time>
      </trkpt>
      <trkpt lat="44.35904" lon="4.09361">
        <ele>284</ele>
        <time>2014-05-29T15:40:21Z</time>
      </trkpt>
      <trkpt lat="44.35915" lon="4.09367">
        <ele>285</ele>
        <time>2014-05-29T15:40:25Z</time>
      </trkpt>
      <trkpt lat="44.3593" lon="4.09371">
        <ele>288</ele>
        <time>2014-05-29T15:40:31Z</time>
      </trkpt>
      <trkpt lat="44.35941" lon="4.09375">
        <ele>288</ele>
        <time>2014-05-29T15:40:38Z</time>
      </trkpt>
      <trkpt lat="44.35957" lon="4.09387">
        <ele>289</ele>
        <time>2014-05-29T15:40:42Z</time>
      </trkpt>
      <trkpt lat="44.35969" lon="4.094">
        <ele>289</ele>
        <time>2014-05-29T15:40:47Z</time>
      </trkpt>
      <trkpt lat="44.35971" lon="4.09414">
        <ele>290</ele>
        <time>2014-05-29T15:40:51Z</time>
      </trkpt>
      <trkpt lat="44.35976" lon="4.0943">
        <ele>293</ele>
        <time>2014-05-29T15:41:02Z</time>
      </trkpt>
      <trkpt lat="44.35992" lon="4.09414">
        <ele>290</ele>
        <time>2014-05-29T15:41:12Z</time>
      </trkpt>
      <trkpt lat="44.36006" lon="4.09411">
        <ele>292</ele>
        <time>2014-05-29T15:41:17Z</time>
      </trkpt>
      <trkpt lat="44.36023" lon="4.09408">
        <ele>294</ele>
        <time>2014-05-29T15:41:24Z</time>
      </trkpt>
      <trkpt lat="44.36039" lon="4.09408">
        <ele>295</ele>
        <time>2014-05-29T15:41:31Z</time>
      </trkpt>
      <trkpt lat="44.36052" lon="4.0941">
        <ele>296</ele>
        <time>2014-05-29T15:41:35Z</time>
      </trkpt>
      <trkpt lat="44.36063" lon="4.09412">
        <ele>297</ele>
        <time>2014-05-29T15:41:39Z</time>
      </trkpt>
      <trkpt lat="44.36079" lon="4.09413">
        <ele>298</ele>
        <time>2014-05-29T15:41:44Z</time>
      </trkpt>
      <trkpt lat="44.36093" lon="4.09414">
        <ele>301</ele>
        <time>2014-05-29T15:41:51Z</time>
      </trkpt>
      <trkpt lat="44.36118" lon="4.09418">
        <ele>301</ele>
        <time>2014-05-29T15:41:55Z</time>
      </trkpt>
      <trkpt lat="44.36123" lon="4.09415">
        <ele>304</ele>
        <time>2014-05-29T15:41:58Z</time>
      </trkpt>
      <trkpt lat="44.36146" lon="4.09418">
        <ele>303</ele>
        <time>2014-05-29T15:42:03Z</time>
      </trkpt>
      <trkpt lat="44.36163" lon="4.09415">
        <ele>305</ele>
        <time>2014-05-29T15:42:07Z</time>
      </trkpt>
      <trkpt lat="44.36176" lon="4.09407">
        <ele>308</ele>
        <time>2014-05-29T15:42:11Z</time>
      </trkpt>
      <trkpt lat="44.36184" lon="4.094">
        <ele>309</ele>
        <time>2014-05-29T15:42:24Z</time>
      </trkpt>
      <trkpt lat="44.36177" lon="4.09425">
        <ele>304</ele>
        <time>2014-05-29T15:42:38Z</time>
      </trkpt>
      <trkpt lat="44.36182" lon="4.0944">
        <ele>303</ele>
        <time>2014-05-29T15:42:43Z</time>
      </trkpt>
      <trkpt lat="44.36194" lon="4.09449">
        <ele>303</ele>
        <time>2014-05-29T15:42:50Z</time>
      </trkpt>
      <trkpt lat="44.36205" lon="4.09441">
        <ele>303</ele>
        <time>2014-05-29T15:42:56Z</time>
      </trkpt>
      <trkpt lat="44.36213" lon="4.09427">
        <ele>303</ele>
        <time>2014-05-29T15:43:03Z</time>
      </trkpt>
      <trkpt lat="44.36226" lon="4.09416">
        <ele>309</ele>
        <time>2014-05-29T15:43:08Z</time>
      </trkpt>
      <trkpt lat="44.36236" lon="4.09407">
        <ele>309</ele>
        <time>2014-05-29T15:43:14Z</time>
      </trkpt>
      <trkpt lat="44.36249" lon="4.09393">
        <ele>310</ele>
        <time>2014-05-29T15:43:27Z</time>
      </trkpt>
      <trkpt lat="44.36254" lon="4.09397">
        <ele>310</ele>
        <time>2014-05-29T15:43:39Z</time>
      </trkpt>
      <trkpt lat="44.36244" lon="4.09416">
        <ele>308</ele>
        <time>2014-05-29T15:44:14Z</time>
      </trkpt>
      <trkpt lat="44.36235" lon="4.09423">
        <ele>305</ele>
        <time>2014-05-29T15:44:27Z</time>
      </trkpt>
      <trkpt lat="44.36224" lon="4.09437">
        <ele>303</ele>
        <time>2014-05-29T15:44:30Z</time>
      </trkpt>
      <trkpt lat="44.36217" lon="4.09449">
        <ele>302</ele>
        <time>2014-05-29T15:44:35Z</time>
      </trkpt>
      <trkpt lat="44.36209" lon="4.09454">
        <ele>302</ele>
        <time>2014-05-29T15:44:37Z</time>
      </trkpt>
      <trkpt lat="44.36193" lon="4.09411">
        <ele>309</ele>
        <time>2014-05-29T15:45:45Z</time>
      </trkpt>
      <trkpt lat="44.36177" lon="4.09427">
        <ele>304</ele>
        <time>2014-05-29T15:45:51Z</time>
      </trkpt>
      <trkpt lat="44.36172" lon="4.09445">
        <ele>303</ele>
        <time>2014-05-29T15:45:54Z</time>
      </trkpt>
      <trkpt lat="44.36178" lon="4.0946">
        <ele>302</ele>
        <time>2014-05-29T15:46:15Z</time>
      </trkpt>
      <trkpt lat="44.36185" lon="4.09475">
        <ele>301</ele>
        <time>2014-05-29T15:46:20Z</time>
      </trkpt>
      <trkpt lat="44.36192" lon="4.09492">
        <ele>301</ele>
        <time>2014-05-29T15:46:24Z</time>
      </trkpt>
      <trkpt lat="44.36204" lon="4.09501">
        <ele>297</ele>
        <time>2014-05-29T15:46:31Z</time>
      </trkpt>
      <trkpt lat="44.36218" lon="4.09498">
        <ele>300</ele>
        <time>2014-05-29T15:46:40Z</time>
      </trkpt>
      <trkpt lat="44.36234" lon="4.09488">
        <ele>299</ele>
        <time>2014-05-29T15:46:46Z</time>
      </trkpt>
      <trkpt lat="44.36248" lon="4.09486">
        <ele>299</ele>
        <time>2014-05-29T15:46:52Z</time>
      </trkpt>
      <trkpt lat="44.36265" lon="4.09485">
        <ele>298</ele>
        <time>2014-05-29T15:46:58Z</time>
      </trkpt>
      <trkpt lat="44.36277" lon="4.09472">
        <ele>298</ele>
        <time>2014-05-29T15:47:03Z</time>
      </trkpt>
      <trkpt lat="44.36288" lon="4.09455">
        <ele>299</ele>
        <time>2014-05-29T15:47:06Z</time>
      </trkpt>
      <trkpt lat="44.36297" lon="4.09439">
        <ele>300</ele>
        <time>2014-05-29T15:47:09Z</time>
      </trkpt>
      <trkpt lat="44.36313" lon="4.09429">
        <ele>301</ele>
        <time>2014-05-29T15:47:10Z</time>
      </trkpt>
      <trkpt lat="44.36335" lon="4.09432">
        <ele>299</ele>
        <time>2014-05-29T15:47:14Z</time>
      </trkpt>
      <trkpt lat="44.3635" lon="4.09446">
        <ele>297</ele>
        <time>2014-05-29T15:47:16Z</time>
      </trkpt>
      <trkpt lat="44.36365" lon="4.09457">
        <ele>295</ele>
        <time>2014-05-29T15:47:17Z</time>
      </trkpt>
      <trkpt lat="44.36383" lon="4.09459">
        <ele>295</ele>
        <time>2014-05-29T15:47:20Z</time>
      </trkpt>
      <trkpt lat="44.36398" lon="4.09452">
        <ele>295</ele>
        <time>2014-05-29T15:47:23Z</time>
      </trkpt>
      <trkpt lat="44.36414" lon="4.09443">
        <ele>296</ele>
        <time>2014-05-29T15:47:26Z</time>
      </trkpt>
      <trkpt lat="44.3643" lon="4.09442">
        <ele>293</ele>
        <time>2014-05-29T15:47:29Z</time>
      </trkpt>
      <trkpt lat="44.36445" lon="4.09448">
        <ele>291</ele>
        <time>2014-05-29T15:47:32Z</time>
      </trkpt>
      <trkpt lat="44.36458" lon="4.09454">
        <ele>290</ele>
        <time>2014-05-29T15:47:34Z</time>
      </trkpt>
      <trkpt lat="44.36475" lon="4.09454">
        <ele>289</ele>
        <time>2014-05-29T15:47:36Z</time>
      </trkpt>
      <trkpt lat="44.36492" lon="4.09446">
        <ele>290</ele>
        <time>2014-05-29T15:47:39Z</time>
      </trkpt>
      <trkpt lat="44.3651" lon="4.09435">
        <ele>288</ele>
        <time>2014-05-29T15:47:42Z</time>
      </trkpt>
      <trkpt lat="44.36527" lon="4.09424">
        <ele>287</ele>
        <time>2014-05-29T15:47:45Z</time>
      </trkpt>
      <trkpt lat="44.36543" lon="4.09415">
        <ele>298</ele>
        <time>2014-05-29T15:47:48Z</time>
      </trkpt>
      <trkpt lat="44.36564" lon="4.09415">
        <ele>294</ele>
        <time>2014-05-29T15:47:51Z</time>
      </trkpt>
      <trkpt lat="44.36578" lon="4.09424">
        <ele>284</ele>
        <time>2014-05-29T15:47:53Z</time>
      </trkpt>
      <trkpt lat="44.36585" lon="4.09438">
        <ele>284</ele>
        <time>2014-05-29T15:47:55Z</time>
      </trkpt>
      <trkpt lat="44.36584" lon="4.09453">
        <ele>284</ele>
        <time>2014-05-29T15:47:58Z</time>
      </trkpt>
      <trkpt lat="44.36582" lon="4.09468">
        <ele>281</ele>
        <time>2014-05-29T15:48:00Z</time>
      </trkpt>
      <trkpt lat="44.36579" lon="4.09485">
        <ele>279</ele>
        <time>2014-05-29T15:48:02Z</time>
      </trkpt>
      <trkpt lat="44.36576" lon="4.09505">
        <ele>277</ele>
        <time>2014-05-29T15:48:05Z</time>
      </trkpt>
      <trkpt lat="44.36569" lon="4.09518">
        <ele>278</ele>
        <time>2014-05-29T15:48:08Z</time>
      </trkpt>
      <trkpt lat="44.36561" lon="4.09531">
        <ele>279</ele>
        <time>2014-05-29T15:48:11Z</time>
      </trkpt>
      <trkpt lat="44.36556" lon="4.09544">
        <ele>279</ele>
        <time>2014-05-29T15:48:14Z</time>
      </trkpt>
      <trkpt lat="44.36553" lon="4.0956">
        <ele>280</ele>
        <time>2014-05-29T15:48:17Z</time>
      </trkpt>
      <trkpt lat="44.3655" lon="4.09575">
        <ele>280</ele>
        <time>2014-05-29T15:48:20Z</time>
      </trkpt>
      <trkpt lat="44.36548" lon="4.09591">
        <ele>284</ele>
        <time>2014-05-29T15:48:24Z</time>
      </trkpt>
      <trkpt lat="44.36547" lon="4.09604">
        <ele>284</ele>
        <time>2014-05-29T15:48:27Z</time>
      </trkpt>
      <trkpt lat="44.36543" lon="4.09621">
        <ele>284</ele>
        <time>2014-05-29T15:48:30Z</time>
      </trkpt>
      <trkpt lat="44.36539" lon="4.09637">
        <ele>284</ele>
        <time>2014-05-29T15:48:33Z</time>
      </trkpt>
      <trkpt lat="44.36535" lon="4.09652">
        <ele>284</ele>
        <time>2014-05-29T15:48:36Z</time>
      </trkpt>
      <trkpt lat="44.36532" lon="4.09669">
        <ele>285</ele>
        <time>2014-05-29T15:48:39Z</time>
      </trkpt>
      <trkpt lat="44.36529" lon="4.09687">
        <ele>284</ele>
        <time>2014-05-29T15:48:42Z</time>
      </trkpt>
      <trkpt lat="44.36531" lon="4.09704">
        <ele>285</ele>
        <time>2014-05-29T15:48:45Z</time>
      </trkpt>
      <trkpt lat="44.36544" lon="4.09712">
        <ele>286</ele>
        <time>2014-05-29T15:48:50Z</time>
      </trkpt>
      <trkpt lat="44.3656" lon="4.0971">
        <ele>288</ele>
        <time>2014-05-29T15:48:54Z</time>
      </trkpt>
      <trkpt lat="44.36577" lon="4.09704">
        <ele>289</ele>
        <time>2014-05-29T15:48:58Z</time>
      </trkpt>
      <trkpt lat="44.36591" lon="4.09709">
        <ele>299</ele>
        <time>2014-05-29T15:49:02Z</time>
      </trkpt>
      <trkpt lat="44.366" lon="4.09722">
        <ele>299</ele>
        <time>2014-05-29T15:49:04Z</time>
      </trkpt>
      <trkpt lat="44.36596" lon="4.0974">
        <ele>296</ele>
        <time>2014-05-29T15:49:07Z</time>
      </trkpt>
      <trkpt lat="44.3659" lon="4.0976">
        <ele>294</ele>
        <time>2014-05-29T15:49:10Z</time>
      </trkpt>
      <trkpt lat="44.36582" lon="4.09778">
        <ele>290</ele>
        <time>2014-05-29T15:49:13Z</time>
      </trkpt>
      <trkpt lat="44.36572" lon="4.0979">
        <ele>290</ele>
        <time>2014-05-29T15:49:16Z</time>
      </trkpt>
      <trkpt lat="44.36562" lon="4.09802">
        <ele>290</ele>
        <time>2014-05-29T15:49:19Z</time>
      </trkpt>
      <trkpt lat="44.36553" lon="4.09813">
        <ele>290</ele>
        <time>2014-05-29T15:49:22Z</time>
      </trkpt>
      <trkpt lat="44.36544" lon="4.09825">
        <ele>290</ele>
        <time>2014-05-29T15:49:25Z</time>
      </trkpt>
      <trkpt lat="44.36538" lon="4.09841">
        <ele>291</ele>
        <time>2014-05-29T15:49:28Z</time>
      </trkpt>
      <trkpt lat="44.36536" lon="4.09857">
        <ele>291</ele>
        <time>2014-05-29T15:49:31Z</time>
      </trkpt>
      <trkpt lat="44.36539" lon="4.09872">
        <ele>292</ele>
        <time>2014-05-29T15:49:34Z</time>
      </trkpt>
      <trkpt lat="44.36547" lon="4.09887">
        <ele>292</ele>
        <time>2014-05-29T15:49:39Z</time>
      </trkpt>
      <trkpt lat="44.3655" lon="4.09898">
        <ele>292</ele>
        <time>2014-05-29T15:49:42Z</time>
      </trkpt>
      <trkpt lat="44.3654" lon="4.0991">
        <ele>292</ele>
        <time>2014-05-29T15:50:03Z</time>
      </trkpt>
      <trkpt lat="44.36528" lon="4.09916">
        <ele>292</ele>
        <time>2014-05-29T15:50:30Z</time>
      </trkpt>
      <trkpt lat="44.36511" lon="4.09921">
        <ele>292</ele>
        <time>2014-05-29T15:50:37Z</time>
      </trkpt>
      <trkpt lat="44.36504" lon="4.0993">
        <ele>291</ele>
        <time>2014-05-29T15:50:45Z</time>
      </trkpt>
      <trkpt lat="44.36527" lon="4.09925">
        <ele>290</ele>
        <time>2014-05-29T15:50:53Z</time>
      </trkpt>
      <trkpt lat="44.36539" lon="4.09922">
        <ele>289</ele>
        <time>2014-05-29T15:50:57Z</time>
      </trkpt>
      <trkpt lat="44.36556" lon="4.09914">
        <ele>291</ele>
        <time>2014-05-29T15:51:00Z</time>
      </trkpt>
      <trkpt lat="44.36573" lon="4.09907">
        <ele>291</ele>
        <time>2014-05-29T15:51:04Z</time>
      </trkpt>
      <trkpt lat="44.36588" lon="4.09918">
        <ele>289</ele>
        <time>2014-05-29T15:51:08Z</time>
      </trkpt>
      <trkpt lat="44.36596" lon="4.09932">
        <ele>287</ele>
        <time>2014-05-29T15:51:11Z</time>
      </trkpt>
      <trkpt lat="44.36591" lon="4.09963">
        <ele>285</ele>
        <time>2014-05-29T15:52:02Z</time>
      </trkpt>
      <trkpt lat="44.3659" lon="4.09981">
        <ele>284</ele>
        <time>2014-05-29T15:52:06Z</time>
      </trkpt>
      <trkpt lat="44.36591" lon="4.10001">
        <ele>282</ele>
        <time>2014-05-29T15:52:09Z</time>
      </trkpt>
      <trkpt lat="44.3659" lon="4.10019">
        <ele>281</ele>
        <time>2014-05-29T15:52:12Z</time>
      </trkpt>
      <trkpt lat="44.36581" lon="4.10037">
        <ele>281</ele>
        <time>2014-05-29T15:52:15Z</time>
      </trkpt>
      <trkpt lat="44.36573" lon="4.10051">
        <ele>281</ele>
        <time>2014-05-29T15:52:18Z</time>
      </trkpt>
      <trkpt lat="44.36571" lon="4.10067">
        <ele>280</ele>
        <time>2014-05-29T15:52:22Z</time>
      </trkpt>
      <trkpt lat="44.36574" lon="4.10081">
        <ele>279</ele>
        <time>2014-05-29T15:52:25Z</time>
      </trkpt>
      <trkpt lat="44.36577" lon="4.10097">
        <ele>277</ele>
        <time>2014-05-29T15:52:28Z</time>
      </trkpt>
      <trkpt lat="44.36579" lon="4.10113">
        <ele>276</ele>
        <time>2014-05-29T15:52:32Z</time>
      </trkpt>
      <trkpt lat="44.36577" lon="4.10131">
        <ele>275</ele>
        <time>2014-05-29T15:52:36Z</time>
      </trkpt>
      <trkpt lat="44.36578" lon="4.10149">
        <ele>274</ele>
        <time>2014-05-29T15:52:40Z</time>
      </trkpt>
      <trkpt lat="44.36585" lon="4.10164">
        <ele>273</ele>
        <time>2014-05-29T15:52:44Z</time>
      </trkpt>
      <trkpt lat="44.36597" lon="4.10175">
        <ele>272</ele>
        <time>2014-05-29T15:52:47Z</time>
      </trkpt>
      <trkpt lat="44.36608" lon="4.10185">
        <ele>271</ele>
        <time>2014-05-29T15:52:51Z</time>
      </trkpt>
      <trkpt lat="44.36623" lon="4.10192">
        <ele>270</ele>
        <time>2014-05-29T15:52:56Z</time>
      </trkpt>
      <trkpt lat="44.3664" lon="4.10194">
        <ele>270</ele>
        <time>2014-05-29T15:53:00Z</time>
      </trkpt>
      <trkpt lat="44.36656" lon="4.10196">
        <ele>270</ele>
        <time>2014-05-29T15:53:04Z</time>
      </trkpt>
      <trkpt lat="44.36674" lon="4.10193">
        <ele>271</ele>
        <time>2014-05-29T15:53:07Z</time>
      </trkpt>
      <trkpt lat="44.36687" lon="4.10201">
        <ele>270</ele>
        <time>2014-05-29T15:53:12Z</time>
      </trkpt>
      <trkpt lat="44.367" lon="4.10211">
        <ele>270</ele>
        <time>2014-05-29T15:53:18Z</time>
      </trkpt>
      <trkpt lat="44.36715" lon="4.10219">
        <ele>270</ele>
        <time>2014-05-29T15:53:23Z</time>
      </trkpt>
      <trkpt lat="44.36729" lon="4.10228">
        <ele>270</ele>
        <time>2014-05-29T15:53:29Z</time>
      </trkpt>
      <trkpt lat="44.3674" lon="4.10238">
        <ele>270</ele>
        <time>2014-05-29T15:53:33Z</time>
      </trkpt>
      <trkpt lat="44.36752" lon="4.10249">
        <ele>269</ele>
        <time>2014-05-29T15:53:38Z</time>
      </trkpt>
      <trkpt lat="44.36762" lon="4.1026">
        <ele>271</ele>
        <time>2014-05-29T15:53:44Z</time>
      </trkpt>
      <trkpt lat="44.36767" lon="4.10274">
        <ele>272</ele>
        <time>2014-05-29T15:53:48Z</time>
      </trkpt>
      <trkpt lat="44.36763" lon="4.1029">
        <ele>273</ele>
        <time>2014-05-29T15:53:53Z</time>
      </trkpt>
      <trkpt lat="44.36756" lon="4.10302">
        <ele>274</ele>
        <time>2014-05-29T15:53:59Z</time>
      </trkpt>
      <trkpt lat="44.36743" lon="4.10309">
        <ele>274</ele>
        <time>2014-05-29T15:54:05Z</time>
      </trkpt>
      <trkpt lat="44.36728" lon="4.10315">
        <ele>274</ele>
        <time>2014-05-29T15:54:11Z</time>
      </trkpt>
      <trkpt lat="44.36714" lon="4.10316">
        <ele>273</ele>
        <time>2014-05-29T15:54:16Z</time>
      </trkpt>
      <trkpt lat="44.36698" lon="4.10321">
        <ele>273</ele>
        <time>2014-05-29T15:54:21Z</time>
      </trkpt>
      <trkpt lat="44.36684" lon="4.10327">
        <ele>274</ele>
        <time>2014-05-29T15:54:28Z</time>
      </trkpt>
      <trkpt lat="44.36677" lon="4.1033">
        <ele>274</ele>
        <time>2014-05-29T15:54:33Z</time>
      </trkpt>
      <trkpt lat="44.3671" lon="4.10318">
        <ele>273</ele>
        <time>2014-05-29T15:55:06Z</time>
      </trkpt>
      <trkpt lat="44.36727" lon="4.10317">
        <ele>274</ele>
        <time>2014-05-29T15:55:10Z</time>
      </trkpt>
      <trkpt lat="44.36744" lon="4.10311">
        <ele>274</ele>
        <time>2014-05-29T15:55:14Z</time>
      </trkpt>
      <trkpt lat="44.36759" lon="4.10306">
        <ele>274</ele>
        <time>2014-05-29T15:55:17Z</time>
      </trkpt>
      <trkpt lat="44.36767" lon="4.10294">
        <ele>274</ele>
        <time>2014-05-29T15:55:21Z</time>
      </trkpt>
      <trkpt lat="44.36768" lon="4.10275">
        <ele>272</ele>
        <time>2014-05-29T15:55:25Z</time>
      </trkpt>
      <trkpt lat="44.36759" lon="4.10263">
        <ele>271</ele>
        <time>2014-05-29T15:55:29Z</time>
      </trkpt>
      <trkpt lat="44.36745" lon="4.10253">
        <ele>270</ele>
        <time>2014-05-29T15:55:33Z</time>
      </trkpt>
      <trkpt lat="44.36731" lon="4.10241">
        <ele>270</ele>
        <time>2014-05-29T15:55:38Z</time>
      </trkpt>
      <trkpt lat="44.36719" lon="4.10233">
        <ele>270</ele>
        <time>2014-05-29T15:55:43Z</time>
      </trkpt>
      <trkpt lat="44.36704" lon="4.10227">
        <ele>270</ele>
        <time>2014-05-29T15:55:48Z</time>
      </trkpt>
      <trkpt lat="44.36689" lon="4.10219">
        <ele>270</ele>
        <time>2014-05-29T15:55:54Z</time>
      </trkpt>
      <trkpt lat="44.3668" lon="4.10209">
        <ele>270</ele>
        <time>2014-05-29T15:55:59Z</time>
      </trkpt>
      <trkpt lat="44.36665" lon="4.10202">
        <ele>270</ele>
        <time>2014-05-29T15:56:04Z</time>
      </trkpt>
      <trkpt lat="44.36651" lon="4.10204">
        <ele>270</ele>
        <time>2014-05-29T15:56:09Z</time>
      </trkpt>
      <trkpt lat="44.36636" lon="4.10202">
        <ele>270</ele>
        <time>2014-05-29T15:56:15Z</time>
      </trkpt>
      <trkpt lat="44.36621" lon="4.10199">
        <ele>270</ele>
        <time>2014-05-29T15:56:22Z</time>
      </trkpt>
      <trkpt lat="44.36607" lon="4.10193">
        <ele>271</ele>
        <time>2014-05-29T15:56:28Z</time>
      </trkpt>
      <trkpt lat="44.36593" lon="4.10183">
        <ele>271</ele>
        <time>2014-05-29T15:56:35Z</time>
      </trkpt>
      <trkpt lat="44.36581" lon="4.10172">
        <ele>272</ele>
        <time>2014-05-29T15:56:41Z</time>
      </trkpt>
      <trkpt lat="44.36573" lon="4.10159">
        <ele>274</ele>
        <time>2014-05-29T15:56:48Z</time>
      </trkpt>
      <trkpt lat="44.36571" lon="4.10143">
        <ele>275</ele>
        <time>2014-05-29T15:56:53Z</time>
      </trkpt>
      <trkpt lat="44.36573" lon="4.10126">
        <ele>275</ele>
        <time>2014-05-29T15:56:58Z</time>
      </trkpt>
      <trkpt lat="44.3657" lon="4.10108">
        <ele>276</ele>
        <time>2014-05-29T15:57:03Z</time>
      </trkpt>
      <trkpt lat="44.36563" lon="4.10096">
        <ele>277</ele>
        <time>2014-05-29T15:57:09Z</time>
      </trkpt>
      <trkpt lat="44.36559" lon="4.10082">
        <ele>280</ele>
        <time>2014-05-29T15:57:14Z</time>
      </trkpt>
      <trkpt lat="44.36561" lon="4.10065">
        <ele>280</ele>
        <time>2014-05-29T15:57:18Z</time>
      </trkpt>
      <trkpt lat="44.36567" lon="4.10052">
        <ele>280</ele>
        <time>2014-05-29T15:57:22Z</time>
      </trkpt>
      <trkpt lat="44.36575" lon="4.10037">
        <ele>281</ele>
        <time>2014-05-29T15:57:27Z</time>
      </trkpt>
      <trkpt lat="44.36579" lon="4.10022">
        <ele>282</ele>
        <time>2014-05-29T15:57:32Z</time>
      </trkpt>
      <trkpt lat="44.36579" lon="4.10007">
        <ele>282</ele>
        <time>2014-05-29T15:57:37Z</time>
      </trkpt>
      <trkpt lat="44.36578" lon="4.0999">
        <ele>285</ele>
        <time>2014-05-29T15:57:43Z</time>
      </trkpt>
      <trkpt lat="44.36581" lon="4.09975">
        <ele>286</ele>
        <time>2014-05-29T15:57:49Z</time>
      </trkpt>
      <trkpt lat="44.36587" lon="4.09959">
        <ele>285</ele>
        <time>2014-05-29T15:57:54Z</time>
      </trkpt>
      <trkpt lat="44.36596" lon="4.09947">
        <ele>286</ele>
        <time>2014-05-29T15:58:06Z</time>
      </trkpt>
      <trkpt lat="44.36609" lon="4.09957">
        <ele>285</ele>
        <time>2014-05-29T15:58:20Z</time>
      </trkpt>
      <trkpt lat="44.36623" lon="4.0996">
        <ele>284</ele>
        <time>2014-05-29T15:58:29Z</time>
      </trkpt>
      <trkpt lat="44.36637" lon="4.0997">
        <ele>283</ele>
        <time>2014-05-29T15:58:41Z</time>
      </trkpt>
      <trkpt lat="44.36647" lon="4.09979">
        <ele>283</ele>
        <time>2014-05-29T15:58:51Z</time>
      </trkpt>
      <trkpt lat="44.36658" lon="4.0999">
        <ele>281</ele>
        <time>2014-05-29T15:58:57Z</time>
      </trkpt>
      <trkpt lat="44.36671" lon="4.09999">
        <ele>280</ele>
        <time>2014-05-29T15:59:02Z</time>
      </trkpt>
      <trkpt lat="44.36678" lon="4.10011">
        <ele>279</ele>
        <time>2014-05-29T15:59:08Z</time>
      </trkpt>
      <trkpt lat="44.36686" lon="4.10025">
        <ele>278</ele>
        <time>2014-05-29T15:59:13Z</time>
      </trkpt>
      <trkpt lat="44.36696" lon="4.10039">
        <ele>278</ele>
        <time>2014-05-29T15:59:18Z</time>
      </trkpt>
      <trkpt lat="44.367" lon="4.10055">
        <ele>277</ele>
        <time>2014-05-29T15:59:24Z</time>
      </trkpt>
      <trkpt lat="44.36695" lon="4.1007">
        <ele>277</ele>
        <time>2014-05-29T15:59:28Z</time>
      </trkpt>
      <trkpt lat="44.367" lon="4.10085">
        <ele>274</ele>
        <time>2014-05-29T15:59:33Z</time>
      </trkpt>
      <trkpt lat="44.36707" lon="4.101">
        <ele>274</ele>
        <time>2014-05-29T15:59:38Z</time>
      </trkpt>
      <trkpt lat="44.36716" lon="4.10113">
        <ele>274</ele>
        <time>2014-05-29T15:59:44Z</time>
      </trkpt>
      <trkpt lat="44.36726" lon="4.10124">
        <ele>274</ele>
        <time>2014-05-29T15:59:50Z</time>
      </trkpt>
      <trkpt lat="44.36738" lon="4.10135">
        <ele>274</ele>
        <time>2014-05-29T15:59:56Z</time>
      </trkpt>
      <trkpt lat="44.36748" lon="4.10146">
        <ele>274</ele>
        <time>2014-05-29T16:00:01Z</time>
      </trkpt>
      <trkpt lat="44.3676" lon="4.10157">
        <ele>275</ele>
        <time>2014-05-29T16:00:05Z</time>
      </trkpt>
      <trkpt lat="44.36773" lon="4.10167">
        <ele>275</ele>
        <time>2014-05-29T16:00:08Z</time>
      </trkpt>
      <trkpt lat="44.36787" lon="4.10173">
        <ele>273</ele>
        <time>2014-05-29T16:00:12Z</time>
      </trkpt>
      <trkpt lat="44.36806" lon="4.10178">
        <ele>274</ele>
        <time>2014-05-29T16:00:14Z</time>
      </trkpt>
      <trkpt lat="44.36824" lon="4.10184">
        <ele>274</ele>
        <time>2014-05-29T16:00:17Z</time>
      </trkpt>
      <trkpt lat="44.3684" lon="4.10191">
        <ele>276</ele>
        <time>2014-05-29T16:00:19Z</time>
      </trkpt>
      <trkpt lat="44.36849" lon="4.10194">
        <ele>276</ele>
        <time>2014-05-29T16:00:23Z</time>
      </trkpt>
      <trkpt lat="44.3687" lon="4.10196">
        <ele>277</ele>
        <time>2014-05-29T16:00:28Z</time>
      </trkpt>
      <trkpt lat="44.36888" lon="4.10199">
        <ele>278</ele>
        <time>2014-05-29T16:00:31Z</time>
      </trkpt>
      <trkpt lat="44.36905" lon="4.10202">
        <ele>278</ele>
        <time>2014-05-29T16:00:33Z</time>
      </trkpt>
      <trkpt lat="44.36915" lon="4.10199">
        <ele>278</ele>
        <time>2014-05-29T16:00:42Z</time>
      </trkpt>
      <trkpt lat="44.36926" lon="4.10206">
        <ele>281</ele>
        <time>2014-05-29T16:01:15Z</time>
      </trkpt>
      <trkpt lat="44.36917" lon="4.10221">
        <ele>277</ele>
        <time>2014-05-29T16:01:42Z</time>
      </trkpt>
      <trkpt lat="44.36915" lon="4.10226">
        <ele>277</ele>
        <time>2014-05-29T16:03:30Z</time>
      </trkpt>
      <trkpt lat="44.3696" lon="4.10237">
        <ele>281</ele>
        <time>2014-05-29T16:05:36Z</time>
      </trkpt>
      <trkpt lat="44.3697" lon="4.10249">
        <ele>281</ele>
        <time>2014-05-29T16:05:44Z</time>
      </trkpt>
      <trkpt lat="44.3698" lon="4.1026">
        <ele>279</ele>
        <time>2014-05-29T16:05:53Z</time>
      </trkpt>
      <trkpt lat="44.36991" lon="4.1027">
        <ele>279</ele>
        <time>2014-05-29T16:06:01Z</time>
      </trkpt>
      <trkpt lat="44.37002" lon="4.10283">
        <ele>282</ele>
        <time>2014-05-29T16:06:07Z</time>
      </trkpt>
      <trkpt lat="44.37012" lon="4.10292">
        <ele>282</ele>
        <time>2014-05-29T16:06:13Z</time>
      </trkpt>
      <trkpt lat="44.37027" lon="4.10305">
        <ele>282</ele>
        <time>2014-05-29T16:06:21Z</time>
      </trkpt>
      <trkpt lat="44.37031" lon="4.10319">
        <ele>281</ele>
        <time>2014-05-29T16:06:24Z</time>
      </trkpt>
      <trkpt lat="44.37026" lon="4.10333">
        <ele>281</ele>
        <time>2014-05-29T16:07:07Z</time>
      </trkpt>
      <trkpt lat="44.3704" lon="4.10362">
        <ele>281</ele>
        <time>2014-05-29T16:13:51Z</time>
      </trkpt>
      <trkpt lat="44.3705" lon="4.10375">
        <ele>281</ele>
        <time>2014-05-29T16:13:57Z</time>
      </trkpt>
      <trkpt lat="44.37057" lon="4.10387">
        <ele>281</ele>
        <time>2014-05-29T16:14:04Z</time>
      </trkpt>
      <trkpt lat="44.37064" lon="4.10401">
        <ele>281</ele>
        <time>2014-05-29T16:14:09Z</time>
      </trkpt>
      <trkpt lat="44.37072" lon="4.10417">
        <ele>280</ele>
        <time>2014-05-29T16:14:16Z</time>
      </trkpt>
      <trkpt lat="44.3708" lon="4.10427">
        <ele>281</ele>
        <time>2014-05-29T16:14:28Z</time>
      </trkpt>
      <trkpt lat="44.37089" lon="4.1044">
        <ele>282</ele>
        <time>2014-05-29T16:14:38Z</time>
      </trkpt>
      <trkpt lat="44.37096" lon="4.10454">
        <ele>283</ele>
        <time>2014-05-29T16:14:45Z</time>
      </trkpt>
      <trkpt lat="44.37104" lon="4.10467">
        <ele>284</ele>
        <time>2014-05-29T16:14:52Z</time>
      </trkpt>
      <trkpt lat="44.3711" lon="4.10481">
        <ele>284</ele>
        <time>2014-05-29T16:15:02Z</time>
      </trkpt>
      <trkpt lat="44.37122" lon="4.10491">
        <ele>284</ele>
        <time>2014-05-29T16:15:12Z</time>
      </trkpt>
      <trkpt lat="44.37133" lon="4.105">
        <ele>285</ele>
        <time>2014-05-29T16:15:22Z</time>
      </trkpt>
      <trkpt lat="44.37148" lon="4.10508">
        <ele>285</ele>
        <time>2014-05-29T16:15:29Z</time>
      </trkpt>
      <trkpt lat="44.37162" lon="4.10517">
        <ele>285</ele>
        <time>2014-05-29T16:15:36Z</time>
      </trkpt>
      <trkpt lat="44.37175" lon="4.10523">
        <ele>286</ele>
        <time>2014-05-29T16:15:46Z</time>
      </trkpt>
      <trkpt lat="44.37187" lon="4.1052">
        <ele>287</ele>
        <time>2014-05-29T16:15:59Z</time>
      </trkpt>
      <trkpt lat="44.37199" lon="4.10519">
        <ele>287</ele>
        <time>2014-05-29T16:16:10Z</time>
      </trkpt>
      <trkpt lat="44.37221" lon="4.10536">
        <ele>288</ele>
        <time>2014-05-29T16:16:17Z</time>
      </trkpt>
      <trkpt lat="44.37236" lon="4.10545">
        <ele>289</ele>
        <time>2014-05-29T16:16:29Z</time>
      </trkpt>
      <trkpt lat="44.37249" lon="4.10545">
        <ele>289</ele>
        <time>2014-05-29T16:16:39Z</time>
      </trkpt>
      <trkpt lat="44.37263" lon="4.10537">
        <ele>294</ele>
        <time>2014-05-29T16:17:10Z</time>
      </trkpt>
      <trkpt lat="44.3728" lon="4.10534">
        <ele>295</ele>
        <time>2014-05-29T16:17:25Z</time>
      </trkpt>
      <trkpt lat="44.37292" lon="4.10531">
        <ele>296</ele>
        <time>2014-05-29T16:17:40Z</time>
      </trkpt>
      <trkpt lat="44.37308" lon="4.10528">
        <ele>297</ele>
        <time>2014-05-29T16:17:54Z</time>
      </trkpt>
      <trkpt lat="44.37321" lon="4.10527">
        <ele>298</ele>
        <time>2014-05-29T16:18:02Z</time>
      </trkpt>
      <trkpt lat="44.37334" lon="4.10523">
        <ele>303</ele>
        <time>2014-05-29T16:18:32Z</time>
      </trkpt>
      <trkpt lat="44.37348" lon="4.10518">
        <ele>304</ele>
        <time>2014-05-29T16:18:45Z</time>
      </trkpt>
      <trkpt lat="44.37365" lon="4.10519">
        <ele>304</ele>
        <time>2014-05-29T16:18:52Z</time>
      </trkpt>
      <trkpt lat="44.3738" lon="4.10517">
        <ele>306</ele>
        <time>2014-05-29T16:18:58Z</time>
      </trkpt>
      <trkpt lat="44.37398" lon="4.1052">
        <ele>308</ele>
        <time>2014-05-29T16:19:03Z</time>
      </trkpt>
      <trkpt lat="44.37407" lon="4.10526">
        <ele>308</ele>
        <time>2014-05-29T16:19:06Z</time>
      </trkpt>
      <trkpt lat="44.37424" lon="4.10533">
        <ele>313</ele>
        <time>2014-05-29T16:19:23Z</time>
      </trkpt>
      <trkpt lat="44.3744" lon="4.1054">
        <ele>313</ele>
        <time>2014-05-29T16:19:46Z</time>
      </trkpt>
      <trkpt lat="44.3745" lon="4.10551">
        <ele>312</ele>
        <time>2014-05-29T16:19:52Z</time>
      </trkpt>
      <trkpt lat="44.37461" lon="4.10562">
        <ele>312</ele>
        <time>2014-05-29T16:19:58Z</time>
      </trkpt>
      <trkpt lat="44.37475" lon="4.10573">
        <ele>313</ele>
        <time>2014-05-29T16:20:06Z</time>
      </trkpt>
      <trkpt lat="44.37485" lon="4.10578">
        <ele>313</ele>
        <time>2014-05-29T16:20:16Z</time>
      </trkpt>
      <trkpt lat="44.37506" lon="4.1058">
        <ele>314</ele>
        <time>2014-05-29T16:20:23Z</time>
      </trkpt>
      <trkpt lat="44.37519" lon="4.10586">
        <ele>311</ele>
        <time>2014-05-29T16:20:28Z</time>
      </trkpt>
      <trkpt lat="44.37534" lon="4.10596">
        <ele>311</ele>
        <time>2014-05-29T16:20:31Z</time>
      </trkpt>
      <trkpt lat="44.37544" lon="4.10609">
        <ele>310</ele>
        <time>2014-05-29T16:20:35Z</time>
      </trkpt>
      <trkpt lat="44.37556" lon="4.1062">
        <ele>310</ele>
        <time>2014-05-29T16:20:39Z</time>
      </trkpt>
      <trkpt lat="44.37571" lon="4.10623">
        <ele>311</ele>
        <time>2014-05-29T16:20:43Z</time>
      </trkpt>
      <trkpt lat="44.37586" lon="4.10613">
        <ele>315</ele>
        <time>2014-05-29T16:20:48Z</time>
      </trkpt>
      <trkpt lat="44.37597" lon="4.10603">
        <ele>316</ele>
        <time>2014-05-29T16:20:52Z</time>
      </trkpt>
      <trkpt lat="44.3761" lon="4.10599">
        <ele>316</ele>
        <time>2014-05-29T16:20:56Z</time>
      </trkpt>
      <trkpt lat="44.37624" lon="4.10608">
        <ele>315</ele>
        <time>2014-05-29T16:21:00Z</time>
      </trkpt>
      <trkpt lat="44.37632" lon="4.10626">
        <ele>315</ele>
        <time>2014-05-29T16:21:04Z</time>
      </trkpt>
      <trkpt lat="44.37632" lon="4.10643">
        <ele>314</ele>
        <time>2014-05-29T16:21:07Z</time>
      </trkpt>
      <trkpt lat="44.37635" lon="4.10661">
        <ele>313</ele>
        <time>2014-05-29T16:21:10Z</time>
      </trkpt>
      <trkpt lat="44.37644" lon="4.10677">
        <ele>310</ele>
        <time>2014-05-29T16:21:13Z</time>
      </trkpt>
      <trkpt lat="44.37656" lon="4.1069">
        <ele>310</ele>
        <time>2014-05-29T16:21:18Z</time>
      </trkpt>
      <trkpt lat="44.37671" lon="4.10698">
        <ele>314</ele>
        <time>2014-05-29T16:21:22Z</time>
      </trkpt>
      <trkpt lat="44.37687" lon="4.10698">
        <ele>315</ele>
        <time>2014-05-29T16:21:27Z</time>
      </trkpt>
      <trkpt lat="44.37703" lon="4.10694">
        <ele>315</ele>
        <time>2014-05-29T16:21:32Z</time>
      </trkpt>
      <trkpt lat="44.37721" lon="4.10693">
        <ele>316</ele>
        <time>2014-05-29T16:21:36Z</time>
      </trkpt>
      <trkpt lat="44.37736" lon="4.10699">
        <ele>317</ele>
        <time>2014-05-29T16:21:41Z</time>
      </trkpt>
      <trkpt lat="44.3775" lon="4.10709">
        <ele>323</ele>
        <time>2014-05-29T16:21:45Z</time>
      </trkpt>
      <trkpt lat="44.37763" lon="4.1072">
        <ele>322</ele>
        <time>2014-05-29T16:21:48Z</time>
      </trkpt>
      <trkpt lat="44.37778" lon="4.10731">
        <ele>323</ele>
        <time>2014-05-29T16:21:52Z</time>
      </trkpt>
      <trkpt lat="44.37791" lon="4.10742">
        <ele>324</ele>
        <time>2014-05-29T16:21:56Z</time>
      </trkpt>
      <trkpt lat="44.37803" lon="4.10752">
        <ele>321</ele>
        <time>2014-05-29T16:21:59Z</time>
      </trkpt>
      <trkpt lat="44.37812" lon="4.10765">
        <ele>321</ele>
        <time>2014-05-29T16:22:02Z</time>
      </trkpt>
      <trkpt lat="44.37819" lon="4.1078">
        <ele>320</ele>
        <time>2014-05-29T16:22:05Z</time>
      </trkpt>
      <trkpt lat="44.37828" lon="4.10793">
        <ele>319</ele>
        <time>2014-05-29T16:22:09Z</time>
      </trkpt>
      <trkpt lat="44.37843" lon="4.10804">
        <ele>322</ele>
        <time>2014-05-29T16:22:12Z</time>
      </trkpt>
      <trkpt lat="44.37859" lon="4.10804">
        <ele>323</ele>
        <time>2014-05-29T16:22:17Z</time>
      </trkpt>
      <trkpt lat="44.37873" lon="4.10797">
        <ele>324</ele>
        <time>2014-05-29T16:22:21Z</time>
      </trkpt>
      <trkpt lat="44.37888" lon="4.10791">
        <ele>324</ele>
        <time>2014-05-29T16:22:24Z</time>
      </trkpt>
      <trkpt lat="44.37903" lon="4.10788">
        <ele>325</ele>
        <time>2014-05-29T16:22:29Z</time>
      </trkpt>
      <trkpt lat="44.3792" lon="4.10791">
        <ele>327</ele>
        <time>2014-05-29T16:22:33Z</time>
      </trkpt>
      <trkpt lat="44.37936" lon="4.10798">
        <ele>326</ele>
        <time>2014-05-29T16:22:36Z</time>
      </trkpt>
      <trkpt lat="44.37951" lon="4.10804">
        <ele>326</ele>
        <time>2014-05-29T16:22:41Z</time>
      </trkpt>
      <trkpt lat="44.37967" lon="4.10805">
        <ele>327</ele>
        <time>2014-05-29T16:22:45Z</time>
      </trkpt>
      <trkpt lat="44.37982" lon="4.108">
        <ele>327</ele>
        <time>2014-05-29T16:22:51Z</time>
      </trkpt>
      <trkpt lat="44.37996" lon="4.1081">
        <ele>327</ele>
        <time>2014-05-29T16:22:55Z</time>
      </trkpt>
      <trkpt lat="44.37999" lon="4.10828">
        <ele>326</ele>
        <time>2014-05-29T16:22:58Z</time>
      </trkpt>
      <trkpt lat="44.37986" lon="4.1084">
        <ele>325</ele>
        <time>2014-05-29T16:23:01Z</time>
      </trkpt>
      <trkpt lat="44.37974" lon="4.1085">
        <ele>324</ele>
        <time>2014-05-29T16:23:05Z</time>
      </trkpt>
      <trkpt lat="44.37958" lon="4.10858">
        <ele>323</ele>
        <time>2014-05-29T16:23:08Z</time>
      </trkpt>
      <trkpt lat="44.37946" lon="4.1087">
        <ele>323</ele>
        <time>2014-05-29T16:23:12Z</time>
      </trkpt>
      <trkpt lat="44.37949" lon="4.10888">
        <ele>323</ele>
        <time>2014-05-29T16:23:15Z</time>
      </trkpt>
      <trkpt lat="44.37953" lon="4.109">
        <ele>323</ele>
        <time>2014-05-29T16:23:20Z</time>
      </trkpt>
      <trkpt lat="44.37966" lon="4.10909">
        <ele>324</ele>
        <time>2014-05-29T16:23:24Z</time>
      </trkpt>
      <trkpt lat="44.37981" lon="4.10916">
        <ele>325</ele>
        <time>2014-05-29T16:23:27Z</time>
      </trkpt>
      <trkpt lat="44.37997" lon="4.10925">
        <ele>325</ele>
        <time>2014-05-29T16:23:30Z</time>
      </trkpt>
      <trkpt lat="44.38013" lon="4.10933">
        <ele>328</ele>
        <time>2014-05-29T16:23:34Z</time>
      </trkpt>
      <trkpt lat="44.38028" lon="4.10941">
        <ele>329</ele>
        <time>2014-05-29T16:23:39Z</time>
      </trkpt>
      <trkpt lat="44.38041" lon="4.10949">
        <ele>329</ele>
        <time>2014-05-29T16:23:42Z</time>
      </trkpt>
      <trkpt lat="44.38051" lon="4.10963">
        <ele>330</ele>
        <time>2014-05-29T16:23:45Z</time>
      </trkpt>
      <trkpt lat="44.38053" lon="4.10981">
        <ele>330</ele>
        <time>2014-05-29T16:23:47Z</time>
      </trkpt>
      <trkpt lat="44.38046" lon="4.10997">
        <ele>329</ele>
        <time>2014-05-29T16:23:50Z</time>
      </trkpt>
      <trkpt lat="44.38034" lon="4.1101">
        <ele>327</ele>
        <time>2014-05-29T16:23:53Z</time>
      </trkpt>
      <trkpt lat="44.38024" lon="4.11023">
        <ele>327</ele>
        <time>2014-05-29T16:23:56Z</time>
      </trkpt>
      <trkpt lat="44.38015" lon="4.11034">
        <ele>327</ele>
        <time>2014-05-29T16:23:59Z</time>
      </trkpt>
      <trkpt lat="44.38007" lon="4.11048">
        <ele>327</ele>
        <time>2014-05-29T16:24:02Z</time>
      </trkpt>
      <trkpt lat="44.38004" lon="4.11064">
        <ele>326</ele>
        <time>2014-05-29T16:24:05Z</time>
      </trkpt>
      <trkpt lat="44.38001" lon="4.11081">
        <ele>324</ele>
        <time>2014-05-29T16:24:08Z</time>
      </trkpt>
      <trkpt lat="44.38" lon="4.11096">
        <ele>327</ele>
        <time>2014-05-29T16:24:11Z</time>
      </trkpt>
      <trkpt lat="44.38001" lon="4.11111">
        <ele>329</ele>
        <time>2014-05-29T16:24:14Z</time>
      </trkpt>
      <trkpt lat="44.38005" lon="4.11126">
        <ele>330</ele>
        <time>2014-05-29T16:24:18Z</time>
      </trkpt>
      <trkpt lat="44.38014" lon="4.1114">
        <ele>331</ele>
        <time>2014-05-29T16:24:22Z</time>
      </trkpt>
      <trkpt lat="44.3802" lon="4.11156">
        <ele>331</ele>
        <time>2014-05-29T16:24:25Z</time>
      </trkpt>
      <trkpt lat="44.38022" lon="4.11176">
        <ele>331</ele>
        <time>2014-05-29T16:24:29Z</time>
      </trkpt>
      <trkpt lat="44.38023" lon="4.11196">
        <ele>331</ele>
        <time>2014-05-29T16:24:32Z</time>
      </trkpt>
      <trkpt lat="44.38024" lon="4.11213">
        <ele>331</ele>
        <time>2014-05-29T16:24:35Z</time>
      </trkpt>
      <trkpt lat="44.38025" lon="4.11226">
        <ele>330</ele>
        <time>2014-05-29T16:24:36Z</time>
      </trkpt>
      <trkpt lat="44.3802" lon="4.11246">
        <ele>330</ele>
        <time>2014-05-29T16:24:39Z</time>
      </trkpt>
      <trkpt lat="44.38008" lon="4.11262">
        <ele>329</ele>
        <time>2014-05-29T16:24:42Z</time>
      </trkpt>
      <trkpt lat="44.38007" lon="4.11284">
        <ele>328</ele>
        <time>2014-05-29T16:24:44Z</time>
      </trkpt>
      <trkpt lat="44.38019" lon="4.11299">
        <ele>328</ele>
        <time>2014-05-29T16:24:47Z</time>
      </trkpt>
      <trkpt lat="44.38034" lon="4.11314">
        <ele>327</ele>
        <time>2014-05-29T16:24:50Z</time>
      </trkpt>
      <trkpt lat="44.38049" lon="4.11325">
        <ele>325</ele>
        <time>2014-05-29T16:24:52Z</time>
      </trkpt>
      <trkpt lat="44.38062" lon="4.11335">
        <ele>322</ele>
        <time>2014-05-29T16:24:55Z</time>
      </trkpt>
      <trkpt lat="44.38073" lon="4.1135">
        <ele>321</ele>
        <time>2014-05-29T16:24:56Z</time>
      </trkpt>
      <trkpt lat="44.38076" lon="4.11374">
        <ele>323</ele>
        <time>2014-05-29T16:24:58Z</time>
      </trkpt>
      <trkpt lat="44.38074" lon="4.114">
        <ele>321</ele>
        <time>2014-05-29T16:25:01Z</time>
      </trkpt>
      <trkpt lat="44.38069" lon="4.11424">
        <ele>322</ele>
        <time>2014-05-29T16:25:03Z</time>
      </trkpt>
      <trkpt lat="44.38063" lon="4.11447">
        <ele>326</ele>
        <time>2014-05-29T16:25:04Z</time>
      </trkpt>
      <trkpt lat="44.38061" lon="4.11469">
        <ele>327</ele>
        <time>2014-05-29T16:25:07Z</time>
      </trkpt>
      <trkpt lat="44.38068" lon="4.11473">
        <ele>326</ele>
        <time>2014-05-29T16:25:10Z</time>
      </trkpt>
      <trkpt lat="44.3809" lon="4.11479">
        <ele>317</ele>
        <time>2014-05-29T16:25:14Z</time>
      </trkpt>
      <trkpt lat="44.38119" lon="4.11492">
        <ele>315</ele>
        <time>2014-05-29T16:25:15Z</time>
      </trkpt>
      <trkpt lat="44.38131" lon="4.11515">
        <ele>317</ele>
        <time>2014-05-29T16:25:17Z</time>
      </trkpt>
      <trkpt lat="44.38142" lon="4.11537">
        <ele>317</ele>
        <time>2014-05-29T16:25:20Z</time>
      </trkpt>
      <trkpt lat="44.3815" lon="4.1156">
        <ele>316</ele>
        <time>2014-05-29T16:25:22Z</time>
      </trkpt>
      <trkpt lat="44.38156" lon="4.11585">
        <ele>315</ele>
        <time>2014-05-29T16:25:23Z</time>
      </trkpt>
      <trkpt lat="44.38162" lon="4.1161">
        <ele>317</ele>
        <time>2014-05-29T16:25:26Z</time>
      </trkpt>
      <trkpt lat="44.38165" lon="4.11637">
        <ele>318</ele>
        <time>2014-05-29T16:25:28Z</time>
      </trkpt>
      <trkpt lat="44.3817" lon="4.11664">
        <ele>310</ele>
        <time>2014-05-29T16:25:29Z</time>
      </trkpt>
      <trkpt lat="44.38181" lon="4.11686">
        <ele>310</ele>
        <time>2014-05-29T16:25:32Z</time>
      </trkpt>
      <trkpt lat="44.38195" lon="4.11707">
        <ele>310</ele>
        <time>2014-05-29T16:25:34Z</time>
      </trkpt>
      <trkpt lat="44.38209" lon="4.11725">
        <ele>310</ele>
        <time>2014-05-29T16:25:35Z</time>
      </trkpt>
      <trkpt lat="44.38223" lon="4.11743">
        <ele>309</ele>
        <time>2014-05-29T16:25:38Z</time>
      </trkpt>
      <trkpt lat="44.38236" lon="4.11762">
        <ele>310</ele>
        <time>2014-05-29T16:25:40Z</time>
      </trkpt>
      <trkpt lat="44.38249" lon="4.11782">
        <ele>312</ele>
        <time>2014-05-29T16:25:41Z</time>
      </trkpt>
      <trkpt lat="44.38269" lon="4.11812">
        <ele>311</ele>
        <time>2014-05-29T16:25:45Z</time>
      </trkpt>
      <trkpt lat="44.38279" lon="4.11833">
        <ele>312</ele>
        <time>2014-05-29T16:25:47Z</time>
      </trkpt>
      <trkpt lat="44.38284" lon="4.11857">
        <ele>311</ele>
        <time>2014-05-29T16:25:48Z</time>
      </trkpt>
      <trkpt lat="44.38288" lon="4.11881">
        <ele>311</ele>
        <time>2014-05-29T16:25:51Z</time>
      </trkpt>
      <trkpt lat="44.38292" lon="4.11905">
        <ele>311</ele>
        <time>2014-05-29T16:25:53Z</time>
      </trkpt>
      <trkpt lat="44.38297" lon="4.11929">
        <ele>307</ele>
        <time>2014-05-29T16:25:54Z</time>
      </trkpt>
      <trkpt lat="44.38299" lon="4.11949">
        <ele>306</ele>
        <time>2014-05-29T16:25:56Z</time>
      </trkpt>
      <trkpt lat="44.38299" lon="4.11978">
        <ele>305</ele>
        <time>2014-05-29T16:25:59Z</time>
      </trkpt>
      <trkpt lat="44.38296" lon="4.12001">
        <ele>303</ele>
        <time>2014-05-29T16:26:00Z</time>
      </trkpt>
      <trkpt lat="44.38282" lon="4.12017">
        <ele>304</ele>
        <time>2014-05-29T16:26:02Z</time>
      </trkpt>
      <trkpt lat="44.38273" lon="4.12036">
        <ele>304</ele>
        <time>2014-05-29T16:26:05Z</time>
      </trkpt>
      <trkpt lat="44.38265" lon="4.12055">
        <ele>304</ele>
        <time>2014-05-29T16:26:06Z</time>
      </trkpt>
      <trkpt lat="44.38255" lon="4.12074">
        <ele>303</ele>
        <time>2014-05-29T16:26:08Z</time>
      </trkpt>
      <trkpt lat="44.38247" lon="4.12094">
        <ele>304</ele>
        <time>2014-05-29T16:26:11Z</time>
      </trkpt>
      <trkpt lat="44.38237" lon="4.12114">
        <ele>306</ele>
        <time>2014-05-29T16:26:13Z</time>
      </trkpt>
      <trkpt lat="44.38223" lon="4.12133">
        <ele>307</ele>
        <time>2014-05-29T16:26:14Z</time>
      </trkpt>
      <trkpt lat="44.38207" lon="4.12149">
        <ele>306</ele>
        <time>2014-05-29T16:26:17Z</time>
      </trkpt>
      <trkpt lat="44.38194" lon="4.12167">
        <ele>305</ele>
        <time>2014-05-29T16:26:19Z</time>
      </trkpt>
      <trkpt lat="44.38181" lon="4.12184">
        <ele>304</ele>
        <time>2014-05-29T16:26:20Z</time>
      </trkpt>
      <trkpt lat="44.38171" lon="4.12204">
        <ele>304</ele>
        <time>2014-05-29T16:26:23Z</time>
      </trkpt>
      <trkpt lat="44.38165" lon="4.12219">
        <ele>300</ele>
        <time>2014-05-29T16:26:24Z</time>
      </trkpt>
      <trkpt lat="44.38159" lon="4.12243">
        <ele>297</ele>
        <time>2014-05-29T16:26:26Z</time>
      </trkpt>
      <trkpt lat="44.38154" lon="4.12266">
        <ele>296</ele>
        <time>2014-05-29T16:26:28Z</time>
      </trkpt>
      <trkpt lat="44.38153" lon="4.12296">
        <ele>296</ele>
        <time>2014-05-29T16:26:31Z</time>
      </trkpt>
      <trkpt lat="44.3815" lon="4.12307">
        <ele>297</ele>
        <time>2014-05-29T16:26:32Z</time>
      </trkpt>
      <trkpt lat="44.38119" lon="4.12314">
        <ele>295</ele>
        <time>2014-05-29T16:26:33Z</time>
      </trkpt>
      <trkpt lat="44.38099" lon="4.12319">
        <ele>293</ele>
        <time>2014-05-29T16:26:36Z</time>
      </trkpt>
      <trkpt lat="44.38076" lon="4.12324">
        <ele>290</ele>
        <time>2014-05-29T16:26:38Z</time>
      </trkpt>
      <trkpt lat="44.3806" lon="4.12329">
        <ele>291</ele>
        <time>2014-05-29T16:26:40Z</time>
      </trkpt>
      <trkpt lat="44.38044" lon="4.12339">
        <ele>287</ele>
        <time>2014-05-29T16:26:43Z</time>
      </trkpt>
      <trkpt lat="44.38027" lon="4.1235">
        <ele>287</ele>
        <time>2014-05-29T16:26:45Z</time>
      </trkpt>
      <trkpt lat="44.38012" lon="4.12363">
        <ele>287</ele>
        <time>2014-05-29T16:26:46Z</time>
      </trkpt>
      <trkpt lat="44.38001" lon="4.12381">
        <ele>286</ele>
        <time>2014-05-29T16:26:49Z</time>
      </trkpt>
      <trkpt lat="44.38" lon="4.12401">
        <ele>284</ele>
        <time>2014-05-29T16:26:51Z</time>
      </trkpt>
      <trkpt lat="44.37982" lon="4.1241">
        <ele>279</ele>
        <time>2014-05-29T16:26:53Z</time>
      </trkpt>
      <trkpt lat="44.37966" lon="4.12417">
        <ele>277</ele>
        <time>2014-05-29T16:26:56Z</time>
      </trkpt>
      <trkpt lat="44.37953" lon="4.12428">
        <ele>279</ele>
        <time>2014-05-29T16:26:57Z</time>
      </trkpt>
      <trkpt lat="44.3794" lon="4.12442">
        <ele>279</ele>
        <time>2014-05-29T16:26:59Z</time>
      </trkpt>
      <trkpt lat="44.37929" lon="4.12456">
        <ele>279</ele>
        <time>2014-05-29T16:27:02Z</time>
      </trkpt>
      <trkpt lat="44.37919" lon="4.12471">
        <ele>280</ele>
        <time>2014-05-29T16:27:04Z</time>
      </trkpt>
      <trkpt lat="44.37909" lon="4.12486">
        <ele>275</ele>
        <time>2014-05-29T16:27:05Z</time>
      </trkpt>
      <trkpt lat="44.37902" lon="4.12502">
        <ele>278</ele>
        <time>2014-05-29T16:27:08Z</time>
      </trkpt>
      <trkpt lat="44.37895" lon="4.12517">
        <ele>278</ele>
        <time>2014-05-29T16:27:10Z</time>
      </trkpt>
      <trkpt lat="44.37889" lon="4.12531">
        <ele>278</ele>
        <time>2014-05-29T16:27:11Z</time>
      </trkpt>
      <trkpt lat="44.37883" lon="4.12546">
        <ele>279</ele>
        <time>2014-05-29T16:27:14Z</time>
      </trkpt>
      <trkpt lat="44.37877" lon="4.12562">
        <ele>279</ele>
        <time>2014-05-29T16:27:16Z</time>
      </trkpt>
      <trkpt lat="44.37872" lon="4.12577">
        <ele>279</ele>
        <time>2014-05-29T16:27:17Z</time>
      </trkpt>
      <trkpt lat="44.37868" lon="4.12591">
        <ele>281</ele>
        <time>2014-05-29T16:27:20Z</time>
      </trkpt>
      <trkpt lat="44.37866" lon="4.12607">
        <ele>282</ele>
        <time>2014-05-29T16:27:22Z</time>
      </trkpt>
      <trkpt lat="44.37865" lon="4.12623">
        <ele>282</ele>
        <time>2014-05-29T16:27:23Z</time>
      </trkpt>
      <trkpt lat="44.37865" lon="4.12639">
        <ele>282</ele>
        <time>2014-05-29T16:27:25Z</time>
      </trkpt>
      <trkpt lat="44.37866" lon="4.12655">
        <ele>282</ele>
        <time>2014-05-29T16:27:28Z</time>
      </trkpt>
      <trkpt lat="44.37867" lon="4.12671">
        <ele>284</ele>
        <time>2014-05-29T16:27:29Z</time>
      </trkpt>
      <trkpt lat="44.37867" lon="4.12685">
        <ele>285</ele>
        <time>2014-05-29T16:27:31Z</time>
      </trkpt>
      <trkpt lat="44.37869" lon="4.127">
        <ele>285</ele>
        <time>2014-05-29T16:27:34Z</time>
      </trkpt>
      <trkpt lat="44.37872" lon="4.12715">
        <ele>286</ele>
        <time>2014-05-29T16:27:35Z</time>
      </trkpt>
      <trkpt lat="44.37877" lon="4.12731">
        <ele>287</ele>
        <time>2014-05-29T16:27:37Z</time>
      </trkpt>
      <trkpt lat="44.37884" lon="4.12747">
        <ele>288</ele>
        <time>2014-05-29T16:27:40Z</time>
      </trkpt>
      <trkpt lat="44.3789" lon="4.12762">
        <ele>287</ele>
        <time>2014-05-29T16:27:42Z</time>
      </trkpt>
      <trkpt lat="44.37897" lon="4.12777">
        <ele>287</ele>
        <time>2014-05-29T16:27:43Z</time>
      </trkpt>
      <trkpt lat="44.37903" lon="4.12792">
        <ele>286</ele>
        <time>2014-05-29T16:27:46Z</time>
      </trkpt>
      <trkpt lat="44.37909" lon="4.12808">
        <ele>284</ele>
        <time>2014-05-29T16:27:48Z</time>
      </trkpt>
      <trkpt lat="44.37915" lon="4.12823">
        <ele>282</ele>
        <time>2014-05-29T16:27:49Z</time>
      </trkpt>
      <trkpt lat="44.3792" lon="4.12839">
        <ele>281</ele>
        <time>2014-05-29T16:27:52Z</time>
      </trkpt>
      <trkpt lat="44.37925" lon="4.12855">
        <ele>285</ele>
        <time>2014-05-29T16:27:54Z</time>
      </trkpt>
      <trkpt lat="44.3793" lon="4.1287">
        <ele>285</ele>
        <time>2014-05-29T16:27:55Z</time>
      </trkpt>
      <trkpt lat="44.37936" lon="4.12884">
        <ele>285</ele>
        <time>2014-05-29T16:27:58Z</time>
      </trkpt>
      <trkpt lat="44.37945" lon="4.12899">
        <ele>285</ele>
        <time>2014-05-29T16:28:00Z</time>
      </trkpt>
      <trkpt lat="44.37951" lon="4.12912">
        <ele>285</ele>
        <time>2014-05-29T16:28:01Z</time>
      </trkpt>
      <trkpt lat="44.3796" lon="4.12927">
        <ele>278</ele>
        <time>2014-05-29T16:28:04Z</time>
      </trkpt>
      <trkpt lat="44.37973" lon="4.12942">
        <ele>278</ele>
        <time>2014-05-29T16:28:07Z</time>
      </trkpt>
      <trkpt lat="44.37986" lon="4.12956">
        <ele>277</ele>
        <time>2014-05-29T16:28:10Z</time>
      </trkpt>
      <trkpt lat="44.38001" lon="4.1297">
        <ele>282</ele>
        <time>2014-05-29T16:28:13Z</time>
      </trkpt>
      <trkpt lat="44.38015" lon="4.12984">
        <ele>280</ele>
        <time>2014-05-29T16:28:16Z</time>
      </trkpt>
      <trkpt lat="44.3803" lon="4.12999">
        <ele>282</ele>
        <time>2014-05-29T16:28:19Z</time>
      </trkpt>
      <trkpt lat="44.38044" lon="4.13013">
        <ele>275</ele>
        <time>2014-05-29T16:28:22Z</time>
      </trkpt>
      <trkpt lat="44.38057" lon="4.13028">
        <ele>276</ele>
        <time>2014-05-29T16:28:25Z</time>
      </trkpt>
      <trkpt lat="44.38068" lon="4.13045">
        <ele>275</ele>
        <time>2014-05-29T16:28:28Z</time>
      </trkpt>
      <trkpt lat="44.38076" lon="4.13062">
        <ele>275</ele>
        <time>2014-05-29T16:28:31Z</time>
      </trkpt>
      <trkpt lat="44.38082" lon="4.13075">
        <ele>275</ele>
        <time>2014-05-29T16:28:33Z</time>
      </trkpt>
      <trkpt lat="44.38087" lon="4.1309">
        <ele>274</ele>
        <time>2014-05-29T16:28:34Z</time>
      </trkpt>
      <trkpt lat="44.38094" lon="4.13104">
        <ele>272</ele>
        <time>2014-05-29T16:28:37Z</time>
      </trkpt>
      <trkpt lat="44.38103" lon="4.1312">
        <ele>271</ele>
        <time>2014-05-29T16:28:39Z</time>
      </trkpt>
      <trkpt lat="44.38117" lon="4.13133">
        <ele>270</ele>
        <time>2014-05-29T16:28:42Z</time>
      </trkpt>
      <trkpt lat="44.38133" lon="4.13137">
        <ele>270</ele>
        <time>2014-05-29T16:28:45Z</time>
      </trkpt>
      <trkpt lat="44.38148" lon="4.13136">
        <ele>271</ele>
        <time>2014-05-29T16:28:48Z</time>
      </trkpt>
      <trkpt lat="44.38165" lon="4.13135">
        <ele>271</ele>
        <time>2014-05-29T16:28:51Z</time>
      </trkpt>
      <trkpt lat="44.3818" lon="4.1313">
        <ele>272</ele>
        <time>2014-05-29T16:28:54Z</time>
      </trkpt>
      <trkpt lat="44.38194" lon="4.13117">
        <ele>273</ele>
        <time>2014-05-29T16:28:57Z</time>
      </trkpt>
      <trkpt lat="44.38201" lon="4.13099">
        <ele>274</ele>
        <time>2014-05-29T16:28:59Z</time>
      </trkpt>
      <trkpt lat="44.38204" lon="4.13083">
        <ele>280</ele>
        <time>2014-05-29T16:29:02Z</time>
      </trkpt>
      <trkpt lat="44.38208" lon="4.13066">
        <ele>280</ele>
        <time>2014-05-29T16:29:04Z</time>
      </trkpt>
      <trkpt lat="44.38213" lon="4.13049">
        <ele>281</ele>
        <time>2014-05-29T16:29:05Z</time>
      </trkpt>
      <trkpt lat="44.38219" lon="4.13034">
        <ele>281</ele>
        <time>2014-05-29T16:29:08Z</time>
      </trkpt>
      <trkpt lat="44.38228" lon="4.13023">
        <ele>281</ele>
        <time>2014-05-29T16:29:10Z</time>
      </trkpt>
      <trkpt lat="44.38239" lon="4.13013">
        <ele>281</ele>
        <time>2014-05-29T16:29:11Z</time>
      </trkpt>
      <trkpt lat="44.38248" lon="4.13001">
        <ele>281</ele>
        <time>2014-05-29T16:29:13Z</time>
      </trkpt>
      <trkpt lat="44.38255" lon="4.12986">
        <ele>279</ele>
        <time>2014-05-29T16:29:16Z</time>
      </trkpt>
      <trkpt lat="44.38259" lon="4.12971">
        <ele>279</ele>
        <time>2014-05-29T16:29:17Z</time>
      </trkpt>
      <trkpt lat="44.38262" lon="4.12955">
        <ele>279</ele>
        <time>2014-05-29T16:29:19Z</time>
      </trkpt>
      <trkpt lat="44.38265" lon="4.12939">
        <ele>280</ele>
        <time>2014-05-29T16:29:22Z</time>
      </trkpt>
      <trkpt lat="44.38267" lon="4.12922">
        <ele>281</ele>
        <time>2014-05-29T16:29:24Z</time>
      </trkpt>
      <trkpt lat="44.3827" lon="4.12906">
        <ele>286</ele>
        <time>2014-05-29T16:29:25Z</time>
      </trkpt>
      <trkpt lat="44.38279" lon="4.12894">
        <ele>286</ele>
        <time>2014-05-29T16:29:28Z</time>
      </trkpt>
      <trkpt lat="44.38297" lon="4.129">
        <ele>284</ele>
        <time>2014-05-29T16:29:31Z</time>
      </trkpt>
      <trkpt lat="44.38313" lon="4.12907">
        <ele>281</ele>
        <time>2014-05-29T16:29:34Z</time>
      </trkpt>
      <trkpt lat="44.38329" lon="4.12899">
        <ele>280</ele>
        <time>2014-05-29T16:29:37Z</time>
      </trkpt>
      <trkpt lat="44.38343" lon="4.12883">
        <ele>280</ele>
        <time>2014-05-29T16:29:40Z</time>
      </trkpt>
      <trkpt lat="44.38355" lon="4.12867">
        <ele>281</ele>
        <time>2014-05-29T16:29:43Z</time>
      </trkpt>
      <trkpt lat="44.38367" lon="4.1285">
        <ele>282</ele>
        <time>2014-05-29T16:29:46Z</time>
      </trkpt>
      <trkpt lat="44.38378" lon="4.12836">
        <ele>282</ele>
        <time>2014-05-29T16:29:49Z</time>
      </trkpt>
      <trkpt lat="44.38389" lon="4.12822">
        <ele>287</ele>
        <time>2014-05-29T16:29:51Z</time>
      </trkpt>
      <trkpt lat="44.38402" lon="4.12811">
        <ele>287</ele>
        <time>2014-05-29T16:29:54Z</time>
      </trkpt>
      <trkpt lat="44.38419" lon="4.12817">
        <ele>285</ele>
        <time>2014-05-29T16:29:57Z</time>
      </trkpt>
      <trkpt lat="44.38424" lon="4.12838">
        <ele>282</ele>
        <time>2014-05-29T16:30:00Z</time>
      </trkpt>
      <trkpt lat="44.38424" lon="4.12856">
        <ele>285</ele>
        <time>2014-05-29T16:30:02Z</time>
      </trkpt>
      <trkpt lat="44.38416" lon="4.12871">
        <ele>281</ele>
        <time>2014-05-29T16:30:03Z</time>
      </trkpt>
      <trkpt lat="44.38411" lon="4.12884">
        <ele>280</ele>
        <time>2014-05-29T16:30:05Z</time>
      </trkpt>
      <trkpt lat="44.38404" lon="4.12903">
        <ele>280</ele>
        <time>2014-05-29T16:30:08Z</time>
      </trkpt>
      <trkpt lat="44.38398" lon="4.1292">
        <ele>278</ele>
        <time>2014-05-29T16:30:09Z</time>
      </trkpt>
      <trkpt lat="44.38393" lon="4.12939">
        <ele>277</ele>
        <time>2014-05-29T16:30:12Z</time>
      </trkpt>
      <trkpt lat="44.38387" lon="4.12957">
        <ele>277</ele>
        <time>2014-05-29T16:30:14Z</time>
      </trkpt>
      <trkpt lat="44.38384" lon="4.12977">
        <ele>277</ele>
        <time>2014-05-29T16:30:15Z</time>
      </trkpt>
      <trkpt lat="44.38382" lon="4.12996">
        <ele>276</ele>
        <time>2014-05-29T16:30:17Z</time>
      </trkpt>
      <trkpt lat="44.38382" lon="4.13016">
        <ele>274</ele>
        <time>2014-05-29T16:30:20Z</time>
      </trkpt>
      <trkpt lat="44.38386" lon="4.13034">
        <ele>273</ele>
        <time>2014-05-29T16:30:21Z</time>
      </trkpt>
      <trkpt lat="44.38393" lon="4.13052">
        <ele>273</ele>
        <time>2014-05-29T16:30:23Z</time>
      </trkpt>
      <trkpt lat="44.38401" lon="4.13069">
        <ele>274</ele>
        <time>2014-05-29T16:30:26Z</time>
      </trkpt>
      <trkpt lat="44.38411" lon="4.13081">
        <ele>276</ele>
        <time>2014-05-29T16:30:27Z</time>
      </trkpt>
      <trkpt lat="44.38427" lon="4.13087">
        <ele>276</ele>
        <time>2014-05-29T16:30:30Z</time>
      </trkpt>
      <trkpt lat="44.38448" lon="4.1309">
        <ele>276</ele>
        <time>2014-05-29T16:30:33Z</time>
      </trkpt>
      <trkpt lat="44.38469" lon="4.1309">
        <ele>276</ele>
        <time>2014-05-29T16:30:36Z</time>
      </trkpt>
      <trkpt lat="44.38489" lon="4.13093">
        <ele>278</ele>
        <time>2014-05-29T16:30:39Z</time>
      </trkpt>
      <trkpt lat="44.38506" lon="4.131">
        <ele>281</ele>
        <time>2014-05-29T16:30:41Z</time>
      </trkpt>
      <trkpt lat="44.38519" lon="4.1311">
        <ele>280</ele>
        <time>2014-05-29T16:30:44Z</time>
      </trkpt>
      <trkpt lat="44.38531" lon="4.1312">
        <ele>280</ele>
        <time>2014-05-29T16:30:46Z</time>
      </trkpt>
      <trkpt lat="44.38543" lon="4.13132">
        <ele>279</ele>
        <time>2014-05-29T16:30:47Z</time>
      </trkpt>
      <trkpt lat="44.38554" lon="4.13144">
        <ele>279</ele>
        <time>2014-05-29T16:30:50Z</time>
      </trkpt>
      <trkpt lat="44.38566" lon="4.13156">
        <ele>279</ele>
        <time>2014-05-29T16:30:52Z</time>
      </trkpt>
      <trkpt lat="44.38577" lon="4.13167">
        <ele>276</ele>
        <time>2014-05-29T16:30:53Z</time>
      </trkpt>
      <trkpt lat="44.38589" lon="4.13179">
        <ele>277</ele>
        <time>2014-05-29T16:30:55Z</time>
      </trkpt>
      <trkpt lat="44.38601" lon="4.13191">
        <ele>276</ele>
        <time>2014-05-29T16:30:58Z</time>
      </trkpt>
      <trkpt lat="44.38613" lon="4.13204">
        <ele>276</ele>
        <time>2014-05-29T16:30:59Z</time>
      </trkpt>
      <trkpt lat="44.38625" lon="4.13216">
        <ele>275</ele>
        <time>2014-05-29T16:31:01Z</time>
      </trkpt>
      <trkpt lat="44.38638" lon="4.13227">
        <ele>275</ele>
        <time>2014-05-29T16:31:04Z</time>
      </trkpt>
      <trkpt lat="44.38655" lon="4.13233">
        <ele>275</ele>
        <time>2014-05-29T16:31:06Z</time>
      </trkpt>
      <trkpt lat="44.38671" lon="4.13225">
        <ele>275</ele>
        <time>2014-05-29T16:31:09Z</time>
      </trkpt>
      <trkpt lat="44.38681" lon="4.13215">
        <ele>275</ele>
        <time>2014-05-29T16:31:10Z</time>
      </trkpt>
      <trkpt lat="44.38696" lon="4.132">
        <ele>276</ele>
        <time>2014-05-29T16:31:12Z</time>
      </trkpt>
      <trkpt lat="44.38708" lon="4.13187">
        <ele>276</ele>
        <time>2014-05-29T16:31:14Z</time>
      </trkpt>
      <trkpt lat="44.3872" lon="4.13175">
        <ele>276</ele>
        <time>2014-05-29T16:31:17Z</time>
      </trkpt>
      <trkpt lat="44.38733" lon="4.13162">
        <ele>279</ele>
        <time>2014-05-29T16:31:18Z</time>
      </trkpt>
      <trkpt lat="44.38745" lon="4.13148">
        <ele>279</ele>
        <time>2014-05-29T16:31:20Z</time>
      </trkpt>
      <trkpt lat="44.38757" lon="4.13135">
        <ele>281</ele>
        <time>2014-05-29T16:31:23Z</time>
      </trkpt>
      <trkpt lat="44.3877" lon="4.13125">
        <ele>282</ele>
        <time>2014-05-29T16:31:25Z</time>
      </trkpt>
      <trkpt lat="44.38785" lon="4.13124">
        <ele>283</ele>
        <time>2014-05-29T16:31:26Z</time>
      </trkpt>
      <trkpt lat="44.38792" lon="4.13144">
        <ele>282</ele>
        <time>2014-05-29T16:31:29Z</time>
      </trkpt>
      <trkpt lat="44.38793" lon="4.13166">
        <ele>282</ele>
        <time>2014-05-29T16:31:31Z</time>
      </trkpt>
      <trkpt lat="44.38792" lon="4.13188">
        <ele>278</ele>
        <time>2014-05-29T16:31:32Z</time>
      </trkpt>
      <trkpt lat="44.38793" lon="4.13211">
        <ele>277</ele>
        <time>2014-05-29T16:31:35Z</time>
      </trkpt>
      <trkpt lat="44.38798" lon="4.13233">
        <ele>277</ele>
        <time>2014-05-29T16:31:37Z</time>
      </trkpt>
      <trkpt lat="44.38809" lon="4.13248">
        <ele>278</ele>
        <time>2014-05-29T16:31:38Z</time>
      </trkpt>
      <trkpt lat="44.38822" lon="4.13258">
        <ele>277</ele>
        <time>2014-05-29T16:31:41Z</time>
      </trkpt>
      <trkpt lat="44.38837" lon="4.13263">
        <ele>279</ele>
        <time>2014-05-29T16:31:43Z</time>
      </trkpt>
      <trkpt lat="44.38851" lon="4.13267">
        <ele>278</ele>
        <time>2014-05-29T16:31:44Z</time>
      </trkpt>
      <trkpt lat="44.38866" lon="4.1327">
        <ele>278</ele>
        <time>2014-05-29T16:31:46Z</time>
      </trkpt>
      <trkpt lat="44.38884" lon="4.13274">
        <ele>278</ele>
        <time>2014-05-29T16:31:49Z</time>
      </trkpt>
      <trkpt lat="44.38903" lon="4.13278">
        <ele>278</ele>
        <time>2014-05-29T16:31:52Z</time>
      </trkpt>
      <trkpt lat="44.38925" lon="4.13276">
        <ele>278</ele>
        <time>2014-05-29T16:31:55Z</time>
      </trkpt>
      <trkpt lat="44.38942" lon="4.13269">
        <ele>278</ele>
        <time>2014-05-29T16:31:57Z</time>
      </trkpt>
      <trkpt lat="44.38954" lon="4.13259">
        <ele>278</ele>
        <time>2014-05-29T16:32:00Z</time>
      </trkpt>
      <trkpt lat="44.38965" lon="4.13248">
        <ele>282</ele>
        <time>2014-05-29T16:32:02Z</time>
      </trkpt>
      <trkpt lat="44.38978" lon="4.13235">
        <ele>282</ele>
        <time>2014-05-29T16:32:04Z</time>
      </trkpt>
      <trkpt lat="44.38993" lon="4.1322">
        <ele>282</ele>
        <time>2014-05-29T16:32:07Z</time>
      </trkpt>
      <trkpt lat="44.39002" lon="4.13205">
        <ele>282</ele>
        <time>2014-05-29T16:32:09Z</time>
      </trkpt>
      <trkpt lat="44.39009" lon="4.13189">
        <ele>283</ele>
        <time>2014-05-29T16:32:12Z</time>
      </trkpt>
      <trkpt lat="44.39017" lon="4.1317">
        <ele>283</ele>
        <time>2014-05-29T16:32:15Z</time>
      </trkpt>
      <trkpt lat="44.39024" lon="4.13151">
        <ele>285</ele>
        <time>2014-05-29T16:32:18Z</time>
      </trkpt>
      <trkpt lat="44.39033" lon="4.13133">
        <ele>286</ele>
        <time>2014-05-29T16:32:21Z</time>
      </trkpt>
      <trkpt lat="44.39044" lon="4.13122">
        <ele>286</ele>
        <time>2014-05-29T16:32:24Z</time>
      </trkpt>
      <trkpt lat="44.39059" lon="4.13125">
        <ele>286</ele>
        <time>2014-05-29T16:32:27Z</time>
      </trkpt>
      <trkpt lat="44.3907" lon="4.13139">
        <ele>285</ele>
        <time>2014-05-29T16:32:30Z</time>
      </trkpt>
      <trkpt lat="44.39077" lon="4.13156">
        <ele>285</ele>
        <time>2014-05-29T16:32:33Z</time>
      </trkpt>
      <trkpt lat="44.39083" lon="4.13169">
        <ele>284</ele>
        <time>2014-05-29T16:32:35Z</time>
      </trkpt>
      <trkpt lat="44.39088" lon="4.13183">
        <ele>284</ele>
        <time>2014-05-29T16:32:36Z</time>
      </trkpt>
      <trkpt lat="44.39094" lon="4.13199">
        <ele>284</ele>
        <time>2014-05-29T16:32:39Z</time>
      </trkpt>
      <trkpt lat="44.39102" lon="4.13218">
        <ele>284</ele>
        <time>2014-05-29T16:32:42Z</time>
      </trkpt>
      <trkpt lat="44.3911" lon="4.13236">
        <ele>284</ele>
        <time>2014-05-29T16:32:45Z</time>
      </trkpt>
      <trkpt lat="44.39119" lon="4.1325">
        <ele>284</ele>
        <time>2014-05-29T16:32:47Z</time>
      </trkpt>
      <trkpt lat="44.3913" lon="4.13259">
        <ele>284</ele>
        <time>2014-05-29T16:32:51Z</time>
      </trkpt>
      <trkpt lat="44.39145" lon="4.13261">
        <ele>285</ele>
        <time>2014-05-29T16:32:54Z</time>
      </trkpt>
      <trkpt lat="44.3916" lon="4.1326">
        <ele>285</ele>
        <time>2014-05-29T16:32:57Z</time>
      </trkpt>
      <trkpt lat="44.39186" lon="4.13262">
        <ele>286</ele>
        <time>2014-05-29T16:33:01Z</time>
      </trkpt>
      <trkpt lat="44.39205" lon="4.13268">
        <ele>287</ele>
        <time>2014-05-29T16:33:04Z</time>
      </trkpt>
      <trkpt lat="44.39223" lon="4.13277">
        <ele>287</ele>
        <time>2014-05-29T16:33:07Z</time>
      </trkpt>
      <trkpt lat="44.39239" lon="4.13289">
        <ele>287</ele>
        <time>2014-05-29T16:33:10Z</time>
      </trkpt>
      <trkpt lat="44.39253" lon="4.13302">
        <ele>287</ele>
        <time>2014-05-29T16:33:13Z</time>
      </trkpt>
      <trkpt lat="44.39265" lon="4.13314">
        <ele>287</ele>
        <time>2014-05-29T16:33:16Z</time>
      </trkpt>
      <trkpt lat="44.39279" lon="4.13326">
        <ele>287</ele>
        <time>2014-05-29T16:33:19Z</time>
      </trkpt>
      <trkpt lat="44.39295" lon="4.13337">
        <ele>287</ele>
        <time>2014-05-29T16:33:22Z</time>
      </trkpt>
      <trkpt lat="44.39312" lon="4.13348">
        <ele>287</ele>
        <time>2014-05-29T16:33:25Z</time>
      </trkpt>
      <trkpt lat="44.3933" lon="4.13356">
        <ele>286</ele>
        <time>2014-05-29T16:33:28Z</time>
      </trkpt>
      <trkpt lat="44.39349" lon="4.13359">
        <ele>287</ele>
        <time>2014-05-29T16:33:31Z</time>
      </trkpt>
      <trkpt lat="44.39366" lon="4.13361">
        <ele>287</ele>
        <time>2014-05-29T16:33:34Z</time>
      </trkpt>
      <trkpt lat="44.39384" lon="4.13368">
        <ele>287</ele>
        <time>2014-05-29T16:33:36Z</time>
      </trkpt>
      <trkpt lat="44.39395" lon="4.13374">
        <ele>287</ele>
        <time>2014-05-29T16:33:38Z</time>
      </trkpt>
      <trkpt lat="44.39412" lon="4.13383">
        <ele>287</ele>
        <time>2014-05-29T16:33:40Z</time>
      </trkpt>
      <trkpt lat="44.39427" lon="4.13387">
        <ele>287</ele>
        <time>2014-05-29T16:33:43Z</time>
      </trkpt>
      <trkpt lat="44.39443" lon="4.13387">
        <ele>287</ele>
        <time>2014-05-29T16:33:45Z</time>
      </trkpt>
      <trkpt lat="44.39459" lon="4.13387">
        <ele>287</ele>
        <time>2014-05-29T16:33:46Z</time>
      </trkpt>
      <trkpt lat="44.39475" lon="4.13387">
        <ele>287</ele>
        <time>2014-05-29T16:33:49Z</time>
      </trkpt>
      <trkpt lat="44.39491" lon="4.13387">
        <ele>287</ele>
        <time>2014-05-29T16:33:51Z</time>
      </trkpt>
      <trkpt lat="44.39506" lon="4.13386">
        <ele>286</ele>
        <time>2014-05-29T16:33:52Z</time>
      </trkpt>
      <trkpt lat="44.3952" lon="4.13385">
        <ele>286</ele>
        <time>2014-05-29T16:33:55Z</time>
      </trkpt>
      <trkpt lat="44.39535" lon="4.13385">
        <ele>286</ele>
        <time>2014-05-29T16:33:57Z</time>
      </trkpt>
      <trkpt lat="44.3955" lon="4.13387">
        <ele>286</ele>
        <time>2014-05-29T16:33:58Z</time>
      </trkpt>
      <trkpt lat="44.39568" lon="4.1339">
        <ele>285</ele>
        <time>2014-05-29T16:34:01Z</time>
      </trkpt>
      <trkpt lat="44.39586" lon="4.13395">
        <ele>283</ele>
        <time>2014-05-29T16:34:03Z</time>
      </trkpt>
      <trkpt lat="44.39604" lon="4.13401">
        <ele>283</ele>
        <time>2014-05-29T16:34:04Z</time>
      </trkpt>
      <trkpt lat="44.39621" lon="4.1341">
        <ele>282</ele>
        <time>2014-05-29T16:34:06Z</time>
      </trkpt>
      <trkpt lat="44.39639" lon="4.1342">
        <ele>282</ele>
        <time>2014-05-29T16:34:09Z</time>
      </trkpt>
      <trkpt lat="44.39657" lon="4.13428">
        <ele>281</ele>
        <time>2014-05-29T16:34:10Z</time>
      </trkpt>
      <trkpt lat="44.39677" lon="4.13433">
        <ele>282</ele>
        <time>2014-05-29T16:34:12Z</time>
      </trkpt>
      <trkpt lat="44.39694" lon="4.13432">
        <ele>283</ele>
        <time>2014-05-29T16:34:15Z</time>
      </trkpt>
      <trkpt lat="44.3971" lon="4.1343">
        <ele>283</ele>
        <time>2014-05-29T16:34:17Z</time>
      </trkpt>
      <trkpt lat="44.39727" lon="4.13428">
        <ele>284</ele>
        <time>2014-05-29T16:34:18Z</time>
      </trkpt>
      <trkpt lat="44.39743" lon="4.13425">
        <ele>284</ele>
        <time>2014-05-29T16:34:21Z</time>
      </trkpt>
      <trkpt lat="44.3976" lon="4.13423">
        <ele>286</ele>
        <time>2014-05-29T16:34:23Z</time>
      </trkpt>
      <trkpt lat="44.39776" lon="4.13421">
        <ele>287</ele>
        <time>2014-05-29T16:34:24Z</time>
      </trkpt>
      <trkpt lat="44.39793" lon="4.1342">
        <ele>288</ele>
        <time>2014-05-29T16:34:27Z</time>
      </trkpt>
      <trkpt lat="44.39812" lon="4.13418">
        <ele>288</ele>
        <time>2014-05-29T16:34:29Z</time>
      </trkpt>
      <trkpt lat="44.39832" lon="4.13415">
        <ele>287</ele>
        <time>2014-05-29T16:34:32Z</time>
      </trkpt>
      <trkpt lat="44.39853" lon="4.13414">
        <ele>287</ele>
        <time>2014-05-29T16:34:35Z</time>
      </trkpt>
      <trkpt lat="44.39874" lon="4.13412">
        <ele>287</ele>
        <time>2014-05-29T16:34:38Z</time>
      </trkpt>
      <trkpt lat="44.39892" lon="4.13409">
        <ele>287</ele>
        <time>2014-05-29T16:34:41Z</time>
      </trkpt>
      <trkpt lat="44.39909" lon="4.134">
        <ele>287</ele>
        <time>2014-05-29T16:34:45Z</time>
      </trkpt>
      <trkpt lat="44.39922" lon="4.13389">
        <ele>280</ele>
        <time>2014-05-29T16:34:48Z</time>
      </trkpt>
      <trkpt lat="44.39932" lon="4.13377">
        <ele>278</ele>
        <time>2014-05-29T16:34:52Z</time>
      </trkpt>
      <trkpt lat="44.39938" lon="4.1336">
        <ele>277</ele>
        <time>2014-05-29T16:34:55Z</time>
      </trkpt>
      <trkpt lat="44.3994" lon="4.13339">
        <ele>277</ele>
        <time>2014-05-29T16:34:58Z</time>
      </trkpt>
      <trkpt lat="44.39938" lon="4.1332">
        <ele>274</ele>
        <time>2014-05-29T16:35:01Z</time>
      </trkpt>
      <trkpt lat="44.39936" lon="4.13303">
        <ele>273</ele>
        <time>2014-05-29T16:35:02Z</time>
      </trkpt>
      <trkpt lat="44.39936" lon="4.13289">
        <ele>273</ele>
        <time>2014-05-29T16:35:04Z</time>
      </trkpt>
      <trkpt lat="44.39937" lon="4.13267">
        <ele>275</ele>
        <time>2014-05-29T16:35:07Z</time>
      </trkpt>
      <trkpt lat="44.39939" lon="4.13247">
        <ele>279</ele>
        <time>2014-05-29T16:35:08Z</time>
      </trkpt>
      <trkpt lat="44.3994" lon="4.13228">
        <ele>278</ele>
        <time>2014-05-29T16:35:11Z</time>
      </trkpt>
      <trkpt lat="44.39942" lon="4.13208">
        <ele>277</ele>
        <time>2014-05-29T16:35:13Z</time>
      </trkpt>
      <trkpt lat="44.39945" lon="4.13188">
        <ele>278</ele>
        <time>2014-05-29T16:35:14Z</time>
      </trkpt>
      <trkpt lat="44.39951" lon="4.13169">
        <ele>278</ele>
        <time>2014-05-29T16:35:16Z</time>
      </trkpt>
      <trkpt lat="44.39958" lon="4.13149">
        <ele>285</ele>
        <time>2014-05-29T16:35:19Z</time>
      </trkpt>
      <trkpt lat="44.39966" lon="4.13131">
        <ele>285</ele>
        <time>2014-05-29T16:35:20Z</time>
      </trkpt>
      <trkpt lat="44.39977" lon="4.13114">
        <ele>286</ele>
        <time>2014-05-29T16:35:22Z</time>
      </trkpt>
      <trkpt lat="44.3999" lon="4.13101">
        <ele>287</ele>
        <time>2014-05-29T16:35:25Z</time>
      </trkpt>
      <trkpt lat="44.40005" lon="4.13091">
        <ele>283</ele>
        <time>2014-05-29T16:35:27Z</time>
      </trkpt>
      <trkpt lat="44.40022" lon="4.13082">
        <ele>291</ele>
        <time>2014-05-29T16:35:28Z</time>
      </trkpt>
      <trkpt lat="44.4004" lon="4.13076">
        <ele>291</ele>
        <time>2014-05-29T16:35:31Z</time>
      </trkpt>
      <trkpt lat="44.40057" lon="4.13073">
        <ele>289</ele>
        <time>2014-05-29T16:35:33Z</time>
      </trkpt>
      <trkpt lat="44.40074" lon="4.13072">
        <ele>284</ele>
        <time>2014-05-29T16:35:34Z</time>
      </trkpt>
      <trkpt lat="44.40094" lon="4.13074">
        <ele>279</ele>
        <time>2014-05-29T16:35:37Z</time>
      </trkpt>
      <trkpt lat="44.40115" lon="4.13077">
        <ele>280</ele>
        <time>2014-05-29T16:35:39Z</time>
      </trkpt>
      <trkpt lat="44.40135" lon="4.1308">
        <ele>278</ele>
        <time>2014-05-29T16:35:40Z</time>
      </trkpt>
      <trkpt lat="44.40155" lon="4.13081">
        <ele>273</ele>
        <time>2014-05-29T16:35:43Z</time>
      </trkpt>
      <trkpt lat="44.40176" lon="4.1308">
        <ele>265</ele>
        <time>2014-05-29T16:35:45Z</time>
      </trkpt>
      <trkpt lat="44.40195" lon="4.13073">
        <ele>261</ele>
        <time>2014-05-29T16:35:46Z</time>
      </trkpt>
      <trkpt lat="44.40202" lon="4.13062">
        <ele>259</ele>
        <time>2014-05-29T16:35:47Z</time>
      </trkpt>
      <trkpt lat="44.40215" lon="4.13038">
        <ele>258</ele>
        <time>2014-05-29T16:35:49Z</time>
      </trkpt>
      <trkpt lat="44.40214" lon="4.13014">
        <ele>258</ele>
        <time>2014-05-29T16:35:51Z</time>
      </trkpt>
      <trkpt lat="44.40209" lon="4.12981">
        <ele>259</ele>
        <time>2014-05-29T16:35:53Z</time>
      </trkpt>
      <trkpt lat="44.40206" lon="4.12967">
        <ele>259</ele>
        <time>2014-05-29T16:35:54Z</time>
      </trkpt>
      <trkpt lat="44.40202" lon="4.12952">
        <ele>260</ele>
        <time>2014-05-29T16:35:56Z</time>
      </trkpt>
      <trkpt lat="44.40197" lon="4.12937">
        <ele>261</ele>
        <time>2014-05-29T16:35:57Z</time>
      </trkpt>
      <trkpt lat="44.40192" lon="4.12923">
        <ele>263</ele>
        <time>2014-05-29T16:35:58Z</time>
      </trkpt>
      <trkpt lat="44.40186" lon="4.12909">
        <ele>260</ele>
        <time>2014-05-29T16:35:59Z</time>
      </trkpt>
      <trkpt lat="44.40175" lon="4.12879">
        <ele>256</ele>
        <time>2014-05-29T16:36:00Z</time>
      </trkpt>
      <trkpt lat="44.4017" lon="4.12864">
        <ele>255</ele>
        <time>2014-05-29T16:36:02Z</time>
      </trkpt>
      <trkpt lat="44.40165" lon="4.12849">
        <ele>273</ele>
        <time>2014-05-29T16:36:03Z</time>
      </trkpt>
      <trkpt lat="44.4016" lon="4.12834">
        <ele>268</ele>
        <time>2014-05-29T16:36:04Z</time>
      </trkpt>
      <trkpt lat="44.40157" lon="4.12818">
        <ele>272</ele>
        <time>2014-05-29T16:36:05Z</time>
      </trkpt>
      <trkpt lat="44.40165" lon="4.1278">
        <ele>274</ele>
        <time>2014-05-29T16:36:07Z</time>
      </trkpt>
      <trkpt lat="44.40185" lon="4.1276">
        <ele>253</ele>
        <time>2014-05-29T16:36:10Z</time>
      </trkpt>
      <trkpt lat="44.40197" lon="4.12736">
        <ele>247</ele>
        <time>2014-05-29T16:36:11Z</time>
      </trkpt>
      <trkpt lat="44.40201" lon="4.12722">
        <ele>245</ele>
        <time>2014-05-29T16:36:12Z</time>
      </trkpt>
      <trkpt lat="44.40203" lon="4.12707">
        <ele>244</ele>
        <time>2014-05-29T16:36:13Z</time>
      </trkpt>
      <trkpt lat="44.40203" lon="4.12692">
        <ele>244</ele>
        <time>2014-05-29T16:36:15Z</time>
      </trkpt>
      <trkpt lat="44.40203" lon="4.12676">
        <ele>244</ele>
        <time>2014-05-29T16:36:16Z</time>
      </trkpt>
      <trkpt lat="44.402" lon="4.12661">
        <ele>239</ele>
        <time>2014-05-29T16:36:17Z</time>
      </trkpt>
      <trkpt lat="44.40197" lon="4.12646">
        <ele>239</ele>
        <time>2014-05-29T16:36:18Z</time>
      </trkpt>
      <trkpt lat="44.40186" lon="4.12619">
        <ele>237</ele>
        <time>2014-05-29T16:36:19Z</time>
      </trkpt>
      <trkpt lat="44.4018" lon="4.12606">
        <ele>238</ele>
        <time>2014-05-29T16:36:20Z</time>
      </trkpt>
      <trkpt lat="44.40168" lon="4.12585">
        <ele>242</ele>
        <time>2014-05-29T16:36:22Z</time>
      </trkpt>
      <trkpt lat="44.40147" lon="4.12559">
        <ele>243</ele>
        <time>2014-05-29T16:36:24Z</time>
      </trkpt>
      <trkpt lat="44.40126" lon="4.12543">
        <ele>243</ele>
        <time>2014-05-29T16:36:26Z</time>
      </trkpt>
      <trkpt lat="44.40107" lon="4.12533">
        <ele>245</ele>
        <time>2014-05-29T16:36:29Z</time>
      </trkpt>
      <trkpt lat="44.40099" lon="4.12519">
        <ele>242</ele>
        <time>2014-05-29T16:36:31Z</time>
      </trkpt>
      <trkpt lat="44.40112" lon="4.12518">
        <ele>241</ele>
        <time>2014-05-29T16:36:34Z</time>
      </trkpt>
      <trkpt lat="44.40127" lon="4.1253">
        <ele>241</ele>
        <time>2014-05-29T16:36:36Z</time>
      </trkpt>
      <trkpt lat="44.4014" lon="4.12541">
        <ele>241</ele>
        <time>2014-05-29T16:36:37Z</time>
      </trkpt>
      <trkpt lat="44.40161" lon="4.12557">
        <ele>241</ele>
        <time>2014-05-29T16:36:39Z</time>
      </trkpt>
      <trkpt lat="44.4018" lon="4.12573">
        <ele>230</ele>
        <time>2014-05-29T16:36:42Z</time>
      </trkpt>
      <trkpt lat="44.40199" lon="4.1259">
        <ele>233</ele>
        <time>2014-05-29T16:36:43Z</time>
      </trkpt>
      <trkpt lat="44.40218" lon="4.12609">
        <ele>230</ele>
        <time>2014-05-29T16:36:45Z</time>
      </trkpt>
      <trkpt lat="44.40236" lon="4.1263">
        <ele>228</ele>
        <time>2014-05-29T16:36:48Z</time>
      </trkpt>
      <trkpt lat="44.40244" lon="4.12642">
        <ele>227</ele>
        <time>2014-05-29T16:36:49Z</time>
      </trkpt>
      <trkpt lat="44.40253" lon="4.12673">
        <ele>217</ele>
        <time>2014-05-29T16:36:50Z</time>
      </trkpt>
      <trkpt lat="44.40256" lon="4.12688">
        <ele>214</ele>
        <time>2014-05-29T16:36:51Z</time>
      </trkpt>
      <trkpt lat="44.40259" lon="4.12704">
        <ele>213</ele>
        <time>2014-05-29T16:36:53Z</time>
      </trkpt>
      <trkpt lat="44.40262" lon="4.1272">
        <ele>214</ele>
        <time>2014-05-29T16:36:54Z</time>
      </trkpt>
      <trkpt lat="44.40263" lon="4.12735">
        <ele>216</ele>
        <time>2014-05-29T16:36:55Z</time>
      </trkpt>
      <trkpt lat="44.40263" lon="4.12752">
        <ele>219</ele>
        <time>2014-05-29T16:36:56Z</time>
      </trkpt>
      <trkpt lat="44.40261" lon="4.12785">
        <ele>215</ele>
        <time>2014-05-29T16:36:57Z</time>
      </trkpt>
      <trkpt lat="44.40257" lon="4.128">
        <ele>215</ele>
        <time>2014-05-29T16:36:58Z</time>
      </trkpt>
      <trkpt lat="44.40254" lon="4.12816">
        <ele>217</ele>
        <time>2014-05-29T16:37:00Z</time>
      </trkpt>
      <trkpt lat="44.40253" lon="4.12832">
        <ele>221</ele>
        <time>2014-05-29T16:37:01Z</time>
      </trkpt>
      <trkpt lat="44.40259" lon="4.12854">
        <ele>218</ele>
        <time>2014-05-29T16:37:02Z</time>
      </trkpt>
      <trkpt lat="44.40276" lon="4.1288">
        <ele>216</ele>
        <time>2014-05-29T16:37:04Z</time>
      </trkpt>
      <trkpt lat="44.40284" lon="4.12891">
        <ele>216</ele>
        <time>2014-05-29T16:37:06Z</time>
      </trkpt>
      <trkpt lat="44.40291" lon="4.12904">
        <ele>215</ele>
        <time>2014-05-29T16:37:07Z</time>
      </trkpt>
      <trkpt lat="44.40298" lon="4.12917">
        <ele>217</ele>
        <time>2014-05-29T16:37:08Z</time>
      </trkpt>
      <trkpt lat="44.40305" lon="4.12931">
        <ele>216</ele>
        <time>2014-05-29T16:37:09Z</time>
      </trkpt>
      <trkpt lat="44.40318" lon="4.12958">
        <ele>216</ele>
        <time>2014-05-29T16:37:10Z</time>
      </trkpt>
      <trkpt lat="44.40324" lon="4.12971">
        <ele>215</ele>
        <time>2014-05-29T16:37:12Z</time>
      </trkpt>
      <trkpt lat="44.40331" lon="4.12984">
        <ele>212</ele>
        <time>2014-05-29T16:37:13Z</time>
      </trkpt>
      <trkpt lat="44.40337" lon="4.12998">
        <ele>204</ele>
        <time>2014-05-29T16:37:14Z</time>
      </trkpt>
      <trkpt lat="44.4034" lon="4.13014">
        <ele>202</ele>
        <time>2014-05-29T16:37:15Z</time>
      </trkpt>
      <trkpt lat="44.40345" lon="4.13047">
        <ele>201</ele>
        <time>2014-05-29T16:37:16Z</time>
      </trkpt>
      <trkpt lat="44.40347" lon="4.13063">
        <ele>202</ele>
        <time>2014-05-29T16:37:17Z</time>
      </trkpt>
      <trkpt lat="44.40351" lon="4.13079">
        <ele>202</ele>
        <time>2014-05-29T16:37:19Z</time>
      </trkpt>
      <trkpt lat="44.40354" lon="4.13096">
        <ele>200</ele>
        <time>2014-05-29T16:37:20Z</time>
      </trkpt>
      <trkpt lat="44.40356" lon="4.13112">
        <ele>198</ele>
        <time>2014-05-29T16:37:21Z</time>
      </trkpt>
      <trkpt lat="44.40353" lon="4.13148">
        <ele>197</ele>
        <time>2014-05-29T16:37:22Z</time>
      </trkpt>
      <trkpt lat="44.40348" lon="4.13166">
        <ele>197</ele>
        <time>2014-05-29T16:37:23Z</time>
      </trkpt>
      <trkpt lat="44.40342" lon="4.13182">
        <ele>195</ele>
        <time>2014-05-29T16:37:25Z</time>
      </trkpt>
      <trkpt lat="44.40334" lon="4.13194">
        <ele>193</ele>
        <time>2014-05-29T16:37:26Z</time>
      </trkpt>
      <trkpt lat="44.40326" lon="4.13208">
        <ele>201</ele>
        <time>2014-05-29T16:37:27Z</time>
      </trkpt>
      <trkpt lat="44.40318" lon="4.13222">
        <ele>200</ele>
        <time>2014-05-29T16:37:28Z</time>
      </trkpt>
      <trkpt lat="44.40303" lon="4.13249">
        <ele>200</ele>
        <time>2014-05-29T16:37:29Z</time>
      </trkpt>
      <trkpt lat="44.40296" lon="4.13263">
        <ele>193</ele>
        <time>2014-05-29T16:37:30Z</time>
      </trkpt>
      <trkpt lat="44.40288" lon="4.13277">
        <ele>193</ele>
        <time>2014-05-29T16:37:32Z</time>
      </trkpt>
      <trkpt lat="44.40275" lon="4.13303">
        <ele>192</ele>
        <time>2014-05-29T16:37:33Z</time>
      </trkpt>
      <trkpt lat="44.40273" lon="4.13322">
        <ele>191</ele>
        <time>2014-05-29T16:37:35Z</time>
      </trkpt>
      <trkpt lat="44.40288" lon="4.13341">
        <ele>186</ele>
        <time>2014-05-29T16:37:38Z</time>
      </trkpt>
      <trkpt lat="44.40304" lon="4.13344">
        <ele>186</ele>
        <time>2014-05-29T16:37:40Z</time>
      </trkpt>
      <trkpt lat="44.40323" lon="4.13335">
        <ele>186</ele>
        <time>2014-05-29T16:37:41Z</time>
      </trkpt>
      <trkpt lat="44.4034" lon="4.13326">
        <ele>186</ele>
        <time>2014-05-29T16:37:44Z</time>
      </trkpt>
      <trkpt lat="44.40357" lon="4.13318">
        <ele>186</ele>
        <time>2014-05-29T16:37:46Z</time>
      </trkpt>
      <trkpt lat="44.40374" lon="4.13311">
        <ele>186</ele>
        <time>2014-05-29T16:37:47Z</time>
      </trkpt>
      <trkpt lat="44.40391" lon="4.13304">
        <ele>186</ele>
        <time>2014-05-29T16:37:49Z</time>
      </trkpt>
      <trkpt lat="44.40406" lon="4.13303">
        <ele>186</ele>
        <time>2014-05-29T16:37:53Z</time>
      </trkpt>
      <trkpt lat="44.40403" lon="4.13325">
        <ele>185</ele>
        <time>2014-05-29T16:37:57Z</time>
      </trkpt>
      <trkpt lat="44.40394" lon="4.1334">
        <ele>184</ele>
        <time>2014-05-29T16:38:00Z</time>
      </trkpt>
      <trkpt lat="44.40387" lon="4.13354">
        <ele>184</ele>
        <time>2014-05-29T16:38:03Z</time>
      </trkpt>
      <trkpt lat="44.40373" lon="4.13359">
        <ele>184</ele>
        <time>2014-05-29T16:38:08Z</time>
      </trkpt>
      <trkpt lat="44.40375" lon="4.13345">
        <ele>184</ele>
        <time>2014-05-29T16:38:12Z</time>
      </trkpt>
      <trkpt lat="44.40384" lon="4.13332">
        <ele>186</ele>
        <time>2014-05-29T16:38:16Z</time>
      </trkpt>
      <trkpt lat="44.40393" lon="4.13318">
        <ele>186</ele>
        <time>2014-05-29T16:38:19Z</time>
      </trkpt>
      <trkpt lat="44.40403" lon="4.13303">
        <ele>186</ele>
        <time>2014-05-29T16:38:23Z</time>
      </trkpt>
      <trkpt lat="44.40414" lon="4.13288">
        <ele>186</ele>
        <time>2014-05-29T16:38:27Z</time>
      </trkpt>
      <trkpt lat="44.40426" lon="4.13277">
        <ele>183</ele>
        <time>2014-05-29T16:38:31Z</time>
      </trkpt>
      <trkpt lat="44.4044" lon="4.1327">
        <ele>183</ele>
        <time>2014-05-29T16:38:35Z</time>
      </trkpt>
      <trkpt lat="44.40439" lon="4.13249">
        <ele>184</ele>
        <time>2014-05-29T16:38:38Z</time>
      </trkpt>
      <trkpt lat="44.40443" lon="4.13232">
        <ele>184</ele>
        <time>2014-05-29T16:38:43Z</time>
      </trkpt>
      <trkpt lat="44.40446" lon="4.13215">
        <ele>183</ele>
        <time>2014-05-29T16:38:47Z</time>
      </trkpt>
      <trkpt lat="44.40449" lon="4.13199">
        <ele>183</ele>
        <time>2014-05-29T16:38:51Z</time>
      </trkpt>
      <trkpt lat="44.40449" lon="4.13185">
        <ele>183</ele>
        <time>2014-05-29T16:38:54Z</time>
      </trkpt>
      <trkpt lat="44.40463" lon="4.13174">
        <ele>182</ele>
        <time>2014-05-29T16:38:57Z</time>
      </trkpt>
      <trkpt lat="44.40474" lon="4.13156">
        <ele>182</ele>
        <time>2014-05-29T16:39:01Z</time>
      </trkpt>
      <trkpt lat="44.40472" lon="4.13143">
        <ele>183</ele>
        <time>2014-05-29T16:39:03Z</time>
      </trkpt>
      <trkpt lat="44.40468" lon="4.13129">
        <ele>183</ele>
        <time>2014-05-29T16:39:07Z</time>
      </trkpt>
      <trkpt lat="44.40475" lon="4.13117">
        <ele>183</ele>
        <time>2014-05-29T16:39:10Z</time>
      </trkpt>
      <trkpt lat="44.4049" lon="4.13115">
        <ele>182</ele>
        <time>2014-05-29T16:39:17Z</time>
      </trkpt>
      <trkpt lat="44.40471" lon="4.13147">
        <ele>183</ele>
        <time>2014-05-29T17:01:08Z</time>
      </trkpt>
      <trkpt lat="44.40495" lon="4.13154">
        <ele>181</ele>
        <time>2014-05-29T17:01:16Z</time>
      </trkpt>
      <trkpt lat="44.40503" lon="4.13167">
        <ele>179</ele>
        <time>2014-05-29T17:01:21Z</time>
      </trkpt>
      <trkpt lat="44.40509" lon="4.13181">
        <ele>178</ele>
        <time>2014-05-29T17:01:24Z</time>
      </trkpt>
      <trkpt lat="44.40515" lon="4.13195">
        <ele>178</ele>
        <time>2014-05-29T17:01:27Z</time>
      </trkpt>
      <trkpt lat="44.40522" lon="4.13213">
        <ele>178</ele>
        <time>2014-05-29T17:01:31Z</time>
      </trkpt>
      <trkpt lat="44.40529" lon="4.13231">
        <ele>178</ele>
        <time>2014-05-29T17:01:35Z</time>
      </trkpt>
      <trkpt lat="44.40538" lon="4.13247">
        <ele>177</ele>
        <time>2014-05-29T17:01:39Z</time>
      </trkpt>
      <trkpt lat="44.40549" lon="4.13256">
        <ele>176</ele>
        <time>2014-05-29T17:01:46Z</time>
      </trkpt>
      <trkpt lat="44.40553" lon="4.13239">
        <ele>177</ele>
        <time>2014-05-29T17:01:55Z</time>
      </trkpt>
      <trkpt lat="44.40554" lon="4.13223">
        <ele>177</ele>
        <time>2014-05-29T17:02:03Z</time>
      </trkpt>
      <trkpt lat="44.40553" lon="4.13206">
        <ele>177</ele>
        <time>2014-05-29T17:02:18Z</time>
      </trkpt>
      <trkpt lat="44.4055" lon="4.13198">
        <ele>177</ele>
        <time>2014-05-29T17:02:31Z</time>
      </trkpt>
      <trkpt lat="44.40552" lon="4.13181">
        <ele>177</ele>
        <time>2014-05-29T17:03:06Z</time>
      </trkpt>
      <trkpt lat="44.40556" lon="4.13168">
        <ele>177</ele>
        <time>2014-05-29T17:03:11Z</time>
      </trkpt>
      <trkpt lat="44.40564" lon="4.131">
        <ele>179</ele>
        <time>2014-05-29T17:03:15Z</time>
      </trkpt>
      <trkpt lat="44.40562" lon="4.13086">
        <ele>179</ele>
        <time>2014-05-29T17:03:21Z</time>
      </trkpt>
      <trkpt lat="44.40571" lon="4.13075">
        <ele>180</ele>
        <time>2014-05-29T17:03:29Z</time>
      </trkpt>
      <trkpt lat="44.40583" lon="4.13066">
        <ele>181</ele>
        <time>2014-05-29T17:03:37Z</time>
      </trkpt>
      <trkpt lat="44.40595" lon="4.13054">
        <ele>183</ele>
        <time>2014-05-29T17:03:46Z</time>
      </trkpt>
      <trkpt lat="44.40604" lon="4.13042">
        <ele>184</ele>
        <time>2014-05-29T17:03:54Z</time>
      </trkpt>
      <trkpt lat="44.40615" lon="4.13029">
        <ele>184</ele>
        <time>2014-05-29T17:04:04Z</time>
      </trkpt>
      <trkpt lat="44.40619" lon="4.13015">
        <ele>185</ele>
        <time>2014-05-29T17:04:15Z</time>
      </trkpt>
      <trkpt lat="44.40627" lon="4.13005">
        <ele>186</ele>
        <time>2014-05-29T17:04:27Z</time>
      </trkpt>
      <trkpt lat="44.40641" lon="4.12999">
        <ele>188</ele>
        <time>2014-05-29T17:04:39Z</time>
      </trkpt>
      <trkpt lat="44.4065" lon="4.12989">
        <ele>189</ele>
        <time>2014-05-29T17:04:48Z</time>
      </trkpt>
      <trkpt lat="44.40654" lon="4.12975">
        <ele>189</ele>
        <time>2014-05-29T17:04:55Z</time>
      </trkpt>
      <trkpt lat="44.40664" lon="4.12967">
        <ele>189</ele>
        <time>2014-05-29T17:05:03Z</time>
      </trkpt>
      <trkpt lat="44.40669" lon="4.12964">
        <ele>192</ele>
        <time>2014-05-29T17:05:13Z</time>
      </trkpt>
      <trkpt lat="44.40651" lon="4.12959">
        <ele>189</ele>
        <time>2014-05-29T17:05:27Z</time>
      </trkpt>
      <trkpt lat="44.40645" lon="4.12952">
        <ele>189</ele>
        <time>2014-05-29T17:05:35Z</time>
      </trkpt>
      <trkpt lat="44.40641" lon="4.12941">
        <ele>189</ele>
        <time>2014-05-29T17:06:00Z</time>
      </trkpt>
      <trkpt lat="44.40637" lon="4.12949">
        <ele>188</ele>
        <time>2014-05-29T17:06:24Z</time>
      </trkpt>
      <trkpt lat="44.40648" lon="4.12955">
        <ele>189</ele>
        <time>2014-05-29T17:08:26Z</time>
      </trkpt>
    </trkseg>
  </trk>
</gpx>